[[[{"header":{"parameterUnit":"kt","parameterCategory":2,"dx":1,"dy":1,"la1":29.587661999999998,"la2":31.0,"lo1":-88.76705300000003,"lo2":-86.6583820000003,"nx":115,"ny":88,"refTime":"2022-09-18T12:00:00:Z","depth":0,"parameterNumber":1,"parameterNumberName":"U-component_of_WINDS"},"data":[4.7137,5.0419,5.1372,5.2636,5.3889,5.4268,5.4366,5.4347,5.4522,5.4689,5.4713,5.4469,5.403,5.403,5.4006,5.364,5.2737,5.2712,5.2189,5.1675,5.1993,5.1797,5.1797,5.2053,5.1699,5.2547,5.4091,5.5463,5.645,5.865,6.0286,6.0685,6.0799,6.1166,6.1166,6.1166,6.1166,6.1166,6.1166,6.1166,6.1166,6.1166,6.1166,6.1166,6.1166,6.1166,6.1166,6.1166,6.1166,6.1166,6.1166,6.1166,6.1166,6.1166,6.1166,6.1166,6.1166,6.1166,6.1166,6.1166,6.1166,6.1166,6.1166,6.1166,6.1166,6.1279,6.2299,6.3268,6.4379,6.5809,6.8445,6.9784,7.1374,7.4783,7.7003,7.7595,7.7924,7.7924,7.7989,7.7989,7.8086,7.8247,7.8247,7.8968,7.9956,8.0821,8.1877,8.2574,8.3467,8.3861,8.4176,8.4381,8.4516,8.4516,8.4516,8.4996,8.5418,8.5813,8.6361,8.7142,8.7786,8.8325,8.8505,8.8612,8.8612,8.8649,8.8758,8.8832,8.8899,8.9044,8.9365,8.9599,8.9637,8.9751,8.9865,4.3677,4.5966,4.9726,5.1675,5.2017,5.2765,5.3073,5.3322,5.414,5.4455,5.4133,5.2639,5.1931,5.1834,5.1834,5.1736,5.1736,5.2042,5.1919,5.1577,5.1552,5.1552,5.1552,5.1552,5.1552,5.1927,5.2299,5.3165,5.4501,5.6472,5.8337,5.9334,6.02,6.1166,6.1166,6.1166,6.1166,6.1166,6.1166,6.1166,6.1166,6.1166,6.1166,6.1166,6.1166,6.1166,6.1166,6.1166,6.1166,6.1166,6.1166,6.1166,6.1166,6.1166,6.1166,6.1166,6.1166,6.1166,6.1166,6.1166,6.1166,6.1166,6.1166,6.1166,6.1166,6.1736,6.2793,6.3784,6.4612,6.6359,6.9742,7.196,7.3541,7.5599,7.6841,7.7891,7.7924,7.7924,7.7989,7.8086,7.8247,7.8564,7.8874,7.927,8.0044,8.0905,8.1635,8.2307,8.2989,8.3825,8.4313,8.4381,8.4516,8.4516,8.4516,8.4905,8.5394,8.5906,8.667,8.7413,8.8062,8.8361,8.8577,8.8612,8.8649,8.8686,8.8795,8.8982,8.901,8.9044,8.9409,8.9675,8.9751,8.9827,8.9941,3.9976,4.0978,4.4103,4.5933,4.7027,4.8419,4.9279,4.9991,5.1316,5.1656,5.1163,5.1501,5.1577,5.1577,5.1552,5.1626,5.1626,5.1552,5.1552,5.1552,5.1552,5.1552,5.1552,5.1552,5.1552,5.1552,5.1552,5.2299,5.4017,5.5509,5.6595,5.7592,5.8983,5.9942,6.0057,6.0799,6.1166,6.1166,6.1166,6.0685,5.9826,6.0685,6.1166,6.1166,6.1166,6.1166,6.1166,6.1166,6.1166,6.1166,6.1166,6.1166,6.0912,6.0912,6.1054,6.1166,6.1166,6.1166,6.1166,6.1166,6.1166,6.1166,6.1166,6.1166,6.1166,6.1794,6.2852,6.4387,6.5228,6.6979,7.0269,7.2605,7.4079,7.5593,7.6873,7.7793,7.7924,7.7989,7.815,7.8214,7.8531,7.8968,7.9633,8.0044,8.0821,8.1682,8.2213,8.2905,8.3578,8.4278,8.4381,8.4449,8.4516,8.4516,8.468,8.4996,8.5514,8.6237,8.7,8.7665,8.8288,8.8505,8.8649,8.8686,8.8758,8.8791,8.8978,8.9206,8.9299,8.9295,8.9523,8.9789,8.9827,8.9903,8.9865,3.7162,3.7697,3.9187,4.0765,4.2465,4.4076,4.5325,4.6264,4.8039,4.9129,4.9566,5.0747,5.1552,5.1552,5.1552,5.1552,5.1552,5.1552,5.1552,5.1552,5.1552,5.1552,5.1552,5.1552,5.1552,5.1552,5.1686,5.2035,5.3425,5.5133,5.6472,5.723,5.8837,5.9942,6.0057,6.0656,6.077,6.0257,6.0056,5.9315,5.9771,6.0799,6.0912,6.0656,6.0941,6.0941,6.0057,6.0315,6.0799,6.0315,6.0458,6.0458,6.0171,6.0057,6.02,6.0572,6.0572,6.0828,6.1054,6.1166,6.1166,6.1166,6.1166,6.1166,6.1453,6.1911,6.2903,6.4625,6.6412,6.8279,7.0388,7.2285,7.403,7.5535,7.6964,7.743,7.7924,7.815,7.8277,7.8531,7.8934,7.9543,8.0393,8.1107,8.1877,8.2488,8.2941,8.3491,8.4132,8.4381,8.4449,8.4516,8.4583,8.4746,8.4933,8.5333,8.5963,8.6619,8.7188,8.7827,8.8505,8.8649,8.8686,8.8795,8.8889,8.8931,8.9103,8.9371,8.9561,8.9561,8.9751,8.9865,8.9941,8.9865,8.9751,3.6121,3.754,3.7738,3.8614,4.0334,4.1398,4.2353,4.3273,4.5123,4.7797,5.0429,5.1285,5.1151,5.0992,5.1127,5.1127,5.1552,5.1552,5.1552,5.1552,5.1552,5.1552,5.1552,5.1552,5.1552,5.1552,5.1552,5.1661,5.2693,5.4043,5.6253,5.8692,5.9682,6.0057,5.997,6.0685,6.04,5.954,5.8687,5.8859,6.0284,6.0799,6.0685,5.9798,6.0057,6.0315,5.8692,5.8837,5.9942,5.8483,5.798,5.8602,5.8099,5.7713,5.8456,5.8955,5.9826,6.0315,6.0941,6.1166,6.1166,6.1282,6.1308,6.1453,6.2236,6.2959,6.4334,6.5994,6.649,6.8153,7.0423,7.2426,7.3983,7.5487,7.6801,7.7661,7.7924,7.7989,7.815,7.8311,7.872,7.9722,8.0513,8.1554,8.2307,8.3064,8.3613,8.4097,8.4516,8.4516,8.4583,8.468,8.4775,8.4996,8.5236,8.5793,8.6413,8.6904,8.7406,8.8021,8.847,8.8649,8.8758,8.8908,8.9075,8.9133,8.9219,8.9485,8.9675,8.9751,8.9827,8.9941,8.9903,8.9789,8.9637,3.5381,3.5887,3.6018,3.641,3.7159,3.8543,3.9215,3.987,4.1679,4.375,4.6307,4.7564,4.8558,4.9726,4.9886,5.0429,5.1419,5.1552,5.1552,5.1552,5.1552,5.1552,5.1552,5.1552,5.1552,5.1552,5.1552,5.1552,5.1794,5.3165,5.3786,5.5133,5.723,5.786,5.8955,5.9942,5.9538,5.8675,5.8478,5.9343,6.0057,6.0543,6.0685,6.0656,6.0828,6.0714,5.9942,6.0315,6.0685,5.9942,5.9682,5.9826,5.945,5.9072,5.9711,5.9767,6.0114,6.0486,6.0916,6.1085,6.1631,6.2151,6.2436,6.2381,6.3137,6.4275,6.5674,6.6868,6.7311,6.8028,7.0423,7.2518,7.398,7.5411,7.6573,7.776,7.7858,7.7858,7.7989,7.8086,7.8753,7.9666,8.077,8.1797,8.2651,8.3467,8.4071,8.4449,8.4516,8.4516,8.4583,8.4746,8.4933,8.5211,8.585,8.6397,8.6855,8.7279,8.7703,8.8061,8.8435,8.8686,8.8832,8.9006,8.9195,8.9333,8.9447,8.9675,8.9789,8.9865,8.9941,8.9903,8.9789,8.9637,8.9485,3.5004,3.5004,3.5004,3.5004,3.5175,3.6257,3.7464,3.8501,4.0068,4.198,4.3693,4.5137,4.7144,4.8443,4.8605,4.9863,5.0858,5.1552,5.1419,5.1552,5.1552,5.1552,5.1552,5.1552,5.1552,5.1552,5.1552,5.1552,5.1552,5.2299,5.2562,5.2774,5.5882,5.6499,5.7565,5.896,5.8518,5.8163,5.8977,5.8865,5.872,5.9566,5.9252,5.9855,6.0429,6.0084,6.0025,6.0429,6.0486,6.0084,6.0057,6.0057,5.9942,5.9334,5.9935,6.0108,6.0745,6.0773,6.0651,6.0485,6.0658,6.1633,6.2995,6.3431,6.4798,6.5898,6.6798,6.7561,6.8034,6.8362,6.9969,7.1436,7.2643,7.4165,7.5631,7.646,7.7038,7.7267,7.7924,7.815,7.8781,7.9867,8.1355,8.2229,8.2727,8.3683,8.4313,8.4449,8.4516,8.4516,8.465,8.4876,8.506,8.5333,8.5963,8.6756,8.7234,8.7665,8.7944,8.8251,8.8543,8.8758,8.887,8.9075,8.9313,8.9485,8.9637,8.9789,8.9903,8.9979,8.9941,8.9827,8.9637,8.9485,8.9295,3.5004,3.5004,3.5004,3.5004,3.5004,3.5042,3.6976,4.0165,4.1083,4.2819,4.5258,4.4993,4.6015,4.7888,4.8466,4.9453,5.0858,5.1419,5.1419,5.1552,5.1552,5.1552,5.1552,5.1552,5.1552,5.1552,5.1552,5.1552,5.1686,5.2299,5.3812,5.5285,5.5758,5.6353,5.6628,5.7734,5.8459,5.8614,5.9077,5.8293,5.8443,5.8865,5.8383,5.8482,5.9837,5.9725,5.955,5.9993,5.9845,5.9327,5.8403,5.7933,5.6879,5.5059,5.6375,5.7879,5.9522,5.9773,5.9771,5.9131,5.9502,6.0669,6.252,6.5411,6.6679,6.679,6.685,6.7207,6.7676,6.8472,6.94,7.0575,7.1682,7.3491,7.494,7.5622,7.6245,7.694,7.7694,7.8247,7.8874,7.9689,8.0989,8.2115,8.2574,8.3467,8.4107,8.4313,8.4516,8.4516,8.468,8.4969,8.5454,8.5655,8.6183,8.7,8.7538,8.8138,8.8361,8.8399,8.8617,8.8832,8.8952,8.9133,8.939,8.9637,8.9789,8.9903,8.9979,8.9941,8.9903,8.9751,8.9447,8.9295,8.9058,3.5004,3.5004,3.5004,3.5004,3.4853,3.3734,3.4869,3.7542,3.9048,4.0563,4.1766,4.2142,4.3151,4.485,4.6156,4.7726,4.959,5.0723,5.1419,5.1552,5.1419,5.1285,5.1285,5.1552,5.1285,5.1552,5.1552,5.1552,5.1552,5.206,5.2799,5.3915,5.5311,5.6228,5.6866,5.7021,5.7941,5.9485,5.8572,5.7894,5.9176,5.9438,5.884,5.8722,5.9345,6.0697,6.0137,6.011,6.0516,6.0421,5.988,5.8994,5.8739,5.8068,5.8227,5.857,5.9438,5.948,5.948,5.8936,5.8931,5.95,6.0137,6.1868,6.3588,6.5383,6.5501,6.6039,6.6379,6.7421,6.8733,7.0453,7.2016,7.4315,7.5577,7.6155,7.67,7.7103,7.7792,7.7891,7.8373,7.9027,7.9956,8.119,8.2574,8.3247,8.3861,8.4245,8.4516,8.4614,8.4775,8.5597,8.6237,8.6619,8.7142,8.7494,8.7904,8.8505,8.8612,8.854,8.8758,8.8832,8.8981,8.9151,8.9331,8.955,8.9823,8.9979,8.9941,8.9903,8.9703,8.9445,8.9293,8.9028,8.8745,3.3217,3.3199,3.3217,3.3485,3.3922,3.3045,3.4166,3.6629,3.803,3.9261,3.9902,3.9997,4.0992,4.2544,4.4418,4.5708,4.7446,4.9293,4.9566,4.9406,4.9293,4.9863,5.0453,5.0429,5.0723,5.1285,5.1552,5.1552,5.1552,5.1686,5.1552,5.1857,5.3983,5.6109,5.7135,5.7069,5.7295,5.9705,5.8942,5.8074,6.0278,6.059,6.0678,6.0855,6.1167,6.1706,6.2081,6.1248,6.0923,6.061,6.0197,5.9548,5.926,5.8362,5.8891,6.0006,5.8472,5.8842,5.9709,5.9157,5.9024,5.9491,5.9969,6.0909,6.1876,6.3007,6.3634,6.4615,6.5878,6.7061,6.8074,6.972,7.0867,7.3352,7.456,7.528,7.6409,7.6899,7.753,7.7595,7.8469,7.927,8.0445,8.208,8.2879,8.354,8.4001,8.4381,8.4614,8.4775,8.5211,8.6183,8.6806,8.745,8.7786,8.7703,8.7984,8.847,8.8649,8.8686,8.8795,8.8907,8.9044,8.9322,8.9345,8.9416,8.9552,8.9715,8.977,8.9598,8.9125,8.8774,8.8765,8.8649,8.8323,2.975,2.9475,2.975,3.0727,3.1971,3.2924,3.4642,3.669,3.7671,3.8606,3.9619,4.0129,4.0972,4.2269,4.2964,4.4108,4.5587,4.6015,4.6418,4.6559,4.6863,4.7307,4.8027,4.9018,4.9726,5.0992,5.1552,5.1552,5.1552,5.1552,5.1699,5.2163,5.3543,5.5535,5.8465,5.748,5.7001,5.7514,5.7941,5.7967,5.934,6.14,6.1926,6.2289,6.2748,6.2562,6.2562,6.1826,6.118,6.0486,5.9817,5.9386,5.9119,5.8114,5.8587,6.0389,5.8003,5.8038,6.0003,5.8833,5.8801,5.9598,5.9478,6.0367,6.223,6.3052,6.2967,6.3106,6.4778,6.6303,6.785,6.8859,6.917,7.0326,7.1476,7.2635,7.4306,7.5266,7.6411,7.7067,7.8365,7.9867,8.1287,8.2427,8.2954,8.3683,8.414,8.4481,8.4775,8.5086,8.5735,8.6413,8.6855,8.7494,8.7984,8.7904,8.8021,8.8436,8.8758,8.8832,8.8945,8.8983,8.9207,8.9489,8.9496,8.9404,8.939,8.9535,8.9299,8.9124,8.8608,8.854,8.8324,8.8161,8.7598,2.9475,2.9475,2.9475,2.9329,2.8935,2.9165,3.1045,3.3651,3.4338,3.5489,3.7926,3.9486,4.0392,4.1122,4.1974,4.3256,4.3693,4.4706,4.5423,4.5423,4.528,4.6015,4.6885,4.7726,4.888,4.959,5.0588,5.1626,5.1675,5.1577,5.1956,5.2981,5.4415,5.5946,5.7919,5.7931,5.8921,6.0429,6.0683,6.0148,6.1435,6.2499,6.2958,6.1927,6.3067,6.2986,6.2087,6.1944,6.1329,6.0341,5.9313,5.8608,5.8251,5.806,5.8209,5.8409,5.8141,5.7718,5.8484,5.8159,5.8186,5.8833,5.8876,5.9148,5.9324,5.9546,6.0371,6.1067,6.2011,6.2967,6.4642,6.6651,6.7678,6.9254,7.0236,7.1604,7.3151,7.4357,7.5507,7.6801,7.7758,7.8968,8.0219,8.1156,8.2159,8.379,8.4342,8.4804,8.5122,8.5597,8.6201,8.667,8.7095,8.766,8.8176,8.8288,8.84,8.8758,8.8889,8.9007,8.9065,8.9143,8.9297,8.939,8.9392,8.9372,8.9695,9.024,8.973,8.8805,8.8948,8.9137,8.8671,8.7332,8.6752,2.7391,2.7266,2.6794,2.6537,2.664,2.7903,2.993,3.2177,3.277,3.4087,3.5747,3.7944,3.9335,4.011,4.14,4.1697,4.1826,4.3151,4.3277,4.3569,4.386,4.4418,4.5872,4.7026,4.8305,4.9886,5.0882,5.165,5.198,5.2151,5.2859,5.4128,5.5421,5.6813,5.7475,5.8091,5.9491,6.1197,6.1906,6.2074,6.3218,6.3244,6.2827,6.1702,6.3079,6.2548,6.1896,6.2027,6.1574,6.0506,5.8897,5.8288,5.7992,5.7941,5.8015,5.7914,5.8064,5.7861,5.7935,5.7935,5.7886,5.7886,5.7886,5.8012,5.8287,5.8036,5.8186,5.8981,6.0345,6.2011,6.3244,6.5075,6.6584,6.8449,7.0094,7.1355,7.2685,7.3746,7.5027,7.6967,7.789,7.8659,7.9395,8.0044,8.2046,8.3895,8.4639,8.5272,8.5597,8.6018,8.6619,8.7142,8.7703,8.8288,8.8584,8.8729,8.8836,8.8958,8.9074,8.9129,8.9133,8.9204,8.9216,8.9171,8.9192,8.9166,8.9608,9.0645,9.0301,8.8836,8.8766,8.9049,8.7946,8.6564,8.5823,2.3513,2.3483,2.2209,2.2709,2.4431,2.7969,3.0158,3.1114,3.2465,3.3031,3.3694,3.5419,3.7294,3.8879,3.9164,3.9316,3.9808,3.9808,4.0392,4.0411,4.028,4.229,4.386,4.5466,4.7048,4.9641,5.1036,5.1727,5.2632,5.2881,5.4616,5.608,5.647,5.7081,5.7569,5.7963,5.9104,6.0209,6.2774,6.3632,6.3769,6.3769,6.3494,6.3356,6.3218,6.3218,6.294,6.2967,6.2408,6.0055,5.8696,5.7989,5.7889,5.7886,5.7886,5.7886,5.7886,5.7886,5.7886,5.7886,5.7886,5.7886,5.7886,5.7886,5.7886,5.7886,5.8586,5.9668,5.9668,6.1041,6.2688,6.4589,6.5353,6.6905,6.8346,6.9995,7.1776,7.3057,7.4862,7.6969,7.8373,7.9303,8.0044,8.0565,8.2237,8.4,8.484,8.5272,8.5714,8.672,8.7279,8.7819,8.8363,8.8686,8.8941,8.9019,8.902,8.9083,8.9149,8.9178,8.9209,8.9206,8.921,8.9178,8.9125,8.9038,8.9172,8.9256,8.9048,8.8402,8.7769,8.7259,8.6334,8.585,8.5181,1.9792,2.0095,1.9754,2.0145,2.1258,2.371,2.5339,2.6335,2.8044,2.9748,3.1152,3.1776,3.3205,3.495,3.5419,3.6523,3.7637,3.7637,3.8574,3.9675,4.0129,4.0842,4.2162,4.3233,4.4653,4.5918,4.9316,5.0932,5.2421,5.3854,5.552,5.7398,5.6977,5.7443,5.7837,5.8012,5.8338,5.9445,6.2838,6.4723,6.502,6.5155,6.4316,6.3742,6.3079,6.2011,6.0226,6.156,6.1586,5.9516,5.8135,5.7964,5.7865,5.7886,5.7886,5.7886,5.7258,5.7409,5.7258,5.7409,5.7886,5.7886,5.7886,5.7584,5.7735,5.791,5.8312,5.871,5.8858,5.9668,6.0897,6.1702,6.3306,6.5077,6.6367,6.8767,7.0982,7.2386,7.4124,7.6285,7.8018,7.9203,8.0238,8.0871,8.2392,8.4036,8.4811,8.5247,8.6255,8.7457,8.8058,8.8474,8.8829,8.8871,8.9085,8.9166,8.9186,8.9211,8.9209,8.9219,8.9145,8.9144,8.8991,8.9021,8.9081,8.8621,8.7559,8.7546,8.7431,8.6727,8.6083,8.5527,8.4951,8.5314,8.4768,1.4548,1.5056,1.7139,1.8318,1.8854,2.1014,2.222,2.2756,2.3986,2.5133,2.6223,2.7015,2.88,3.1078,3.3047,3.4167,3.5435,3.654,3.7637,3.8421,3.9656,4.0561,4.118,4.2672,4.4147,4.6387,4.8782,5.0304,5.0835,5.2632,5.5081,5.6024,5.6401,5.6858,5.7886,5.7886,5.8387,5.9742,6.1924,6.4016,6.4452,6.4043,6.3249,6.2567,6.311,6.1942,6.0731,6.1784,6.1184,5.9783,5.8135,5.7989,5.7941,5.7886,5.7886,5.7735,5.6296,5.5326,5.5148,5.5017,5.4838,5.5172,5.5883,5.619,5.6754,5.7233,5.791,5.791,5.7886,5.8312,5.9277,6.02,6.182,6.3085,6.4188,6.6764,6.9141,7.1162,7.3315,7.5465,7.7431,7.8481,7.9563,8.1359,8.3648,8.4804,8.5236,8.5677,8.6633,8.7711,8.8363,8.8945,8.9081,8.9044,8.9167,8.9204,8.9218,8.9092,8.9082,8.9035,8.9044,8.8784,8.854,8.8468,8.7901,8.7013,8.6181,8.56,8.4912,8.4654,8.4316,8.2963,8.1758,8.2395,8.2955,0.8836,0.9198,1.3832,1.578,1.5992,1.8082,1.941,1.9766,2.0092,2.028,2.161,2.2857,2.4673,2.6663,3.0103,3.1731,3.2842,3.3771,3.5056,3.5989,3.7755,3.9279,4.1141,4.2662,4.2848,4.4987,4.8278,4.9271,4.9551,5.0824,5.264,5.4055,5.4676,5.5494,5.7034,5.7584,5.8833,6.032,6.0989,6.1985,6.3079,6.2468,6.2369,6.246,6.2869,6.2561,6.1826,6.0804,6.0756,5.9852,5.8546,5.8013,5.7841,5.7735,5.756,5.6119,5.4013,5.1435,5.1392,5.137,5.137,5.0921,5.1806,5.325,5.3629,5.4705,5.5805,5.6889,5.6954,5.6754,5.6834,5.8561,5.9727,6.072,6.209,6.4686,6.7863,7.0317,7.2068,7.4175,7.6934,7.8137,7.9414,8.2162,8.4639,8.52,8.5756,8.6218,8.6842,8.7554,8.8176,8.884,8.9119,8.9107,8.9181,8.9188,8.9111,8.8921,8.8879,8.8826,8.843,8.7953,8.7789,8.6773,8.6016,8.5126,8.3765,8.2757,8.234,8.1666,8.0735,7.9694,7.8723,7.9663,8.0806,0.4535,0.4952,0.7725,0.8948,0.9291,1.1364,1.3412,1.5303,1.682,1.8364,2.0448,2.0931,2.1245,2.209,2.3067,2.4355,2.591,2.8436,3.0525,3.2274,3.4242,3.5263,3.5727,3.6428,3.8714,4.1933,4.4015,4.6029,4.7359,4.946,5.1255,5.2096,5.3859,5.4953,5.5824,5.7258,5.8981,6.049,6.2011,6.2801,6.3578,6.4153,6.4768,6.5007,6.35,6.2678,6.1885,6.0278,5.9012,5.8533,5.8212,5.7793,5.7516,5.6225,5.4458,5.3048,5.2096,5.0341,4.8877,4.759,4.5609,4.4291,4.5731,4.7192,4.8406,4.9201,5.0551,5.2352,5.2732,5.271,5.2958,5.4567,5.626,5.7593,5.975,6.2689,6.5965,6.8597,7.0175,7.2246,7.6271,7.8199,7.9729,8.2217,8.4281,8.5069,8.6198,8.6708,8.7581,8.8026,8.8321,8.892,8.9171,8.9171,8.8793,8.8661,8.8652,8.8158,8.7766,8.767,8.7339,8.6779,8.5634,8.4502,8.3553,8.1818,8.0806,7.9695,7.9128,7.832,7.7157,7.6512,7.6562,7.7134,7.7465,0.0,0.0345,0.2589,0.3624,0.3794,0.4988,0.601,0.738,0.961,1.1326,1.2359,1.3589,1.5148,1.6852,1.7368,2.0044,2.3519,2.6185,2.8301,3.0569,3.254,3.371,3.3949,3.626,3.7697,3.8774,3.898,4.0401,4.3194,4.5254,4.6569,4.8635,5.241,5.4215,5.4993,5.6601,5.8287,5.9743,6.2116,6.3713,6.3279,6.4717,6.4525,6.3853,6.2402,6.1346,6.0459,5.8496,5.7869,5.8015,5.7696,5.7297,5.3374,4.7744,3.9715,3.8624,3.7364,3.6415,3.5724,3.5566,3.5031,3.3928,3.4673,3.6831,3.9795,4.1622,4.4059,4.6839,4.804,4.8061,4.7672,5.0031,5.1653,5.3,5.4836,5.8041,6.1987,6.5074,6.5823,6.6479,7.1894,7.6349,7.8857,8.1678,8.3757,8.5321,8.6549,8.7507,8.8473,8.8727,8.8802,8.9133,8.9165,8.8642,8.7574,8.7797,8.7953,8.6902,8.6292,8.6216,8.5816,8.4636,8.3512,8.1223,7.9657,7.7821,7.6514,7.5024,7.5276,7.5087,7.3557,7.2519,7.3438,7.39,7.3588,-0.5686,-0.5511,-0.2921,-0.1717,-0.1717,-0.1203,-0.0688,-0.0344,0.1895,0.2589,0.3448,0.5185,0.8446,1.1022,1.2053,1.5281,1.9327,2.2172,2.4989,2.734,2.9298,3.0422,3.083,3.3033,3.5684,3.6351,3.545,3.4995,3.69,3.8108,4.0522,4.4291,4.9626,5.2736,5.3656,5.5859,5.6921,5.7813,6.1309,6.3319,6.3416,6.458,6.4924,6.3821,6.3392,6.1687,5.9931,5.7253,5.6834,5.8554,5.5106,5.1724,4.4907,2.8629,1.9342,1.7183,1.6396,1.636,1.6471,1.6939,1.732,1.7998,1.8294,2.1693,2.6162,2.9411,3.1767,3.5884,3.8504,4.0225,4.0788,4.2815,4.4774,4.6362,4.8468,5.2801,5.6074,5.8294,5.9363,5.9709,6.716,7.3745,7.7548,8.0817,8.3946,8.6621,8.7554,8.8346,8.8657,8.8718,8.8629,8.8649,8.8722,8.7409,8.6073,8.6321,8.5358,8.3782,8.2928,8.284,8.2339,8.1753,7.9622,7.6145,7.3924,7.24,7.1193,7.0034,6.9588,6.8687,6.8375,6.7901,6.8021,6.7987,6.8037,-1.509,-1.4744,-1.0478,-0.8777,-0.8438,-0.6906,-0.5352,-0.345,-0.259,-0.1894,0.0344,0.086,0.2236,0.4651,0.4998,0.6558,1.0332,1.3896,1.8143,2.0379,2.2702,2.3588,2.4183,2.5913,2.745,2.807,2.9364,3.0515,3.1173,3.2061,3.3914,3.9393,4.6245,5.0057,5.0337,5.2383,5.4307,5.6449,6.0614,6.2847,6.3088,6.4686,6.6348,6.6421,6.6529,6.5293,6.165,5.544,5.2779,6.2216,4.4472,3.4148,2.4533,0.7584,-0.8657,-1.0304,-0.7182,-0.5807,-0.4566,-0.4331,-0.3747,-0.2668,-0.2128,0.0351,0.5132,0.9781,1.4403,1.8863,2.2803,2.5053,2.6244,3.052,3.4178,3.6373,4.3279,4.8627,5.0736,4.9287,4.7987,4.9829,5.8706,6.8782,7.4453,8.0343,8.4446,8.7821,8.8477,8.8868,8.8532,8.8244,8.7522,8.7276,8.6335,8.5094,8.3869,8.3569,8.0822,7.9286,7.8533,7.8213,7.7737,7.4328,6.9912,6.8248,6.6783,6.5839,6.4456,6.2981,6.1983,6.1826,6.1381,6.1119,6.1403,6.2038,6.3377,-1.9996,-1.8869,-1.794,-1.6763,-1.5958,-1.5913,-1.4546,-1.2353,-1.0146,-0.8931,-0.8556,-0.6349,-0.4119,-0.2057,-0.1888,0.0,0.3613,0.7896,1.1831,1.4927,1.736,1.8754,1.9309,1.7429,1.693,1.8924,2.2268,2.4218,2.3981,2.3847,2.652,3.3862,4.5242,4.8087,4.8759,4.5911,4.9409,5.5388,6.1885,6.4125,6.35,6.5396,6.7589,6.9229,7.0369,7.0482,6.7877,6.1357,6.3521,5.5805,2.3354,-0.2577,-0.1363,-1.6327,-2.861,-3.1077,-2.8723,-2.6322,-2.5449,-2.4508,-2.337,-2.1724,-2.2517,-1.8345,-1.2493,-0.911,-0.4308,0.1612,0.5023,0.6854,0.7217,1.4175,1.9035,2.1463,2.8388,3.4729,3.5483,3.0396,2.6322,3.11,4.8766,6.1724,7.1509,7.9155,8.3905,8.7384,8.8177,8.6868,8.6625,8.5157,8.4855,8.3062,8.2704,8.1594,8.0249,7.7895,7.4652,7.3188,7.1572,7.0488,6.8646,6.4276,5.9916,5.7727,5.5582,5.5496,5.5957,5.4929,5.3599,5.3936,5.4099,5.3897,5.4398,5.5588,5.7186,-2.5548,-2.4306,-2.5097,-2.446,-2.3343,-2.4003,-2.3309,-2.1528,-1.8126,-1.7252,-1.7445,-1.473,-1.1803,-0.9058,-0.8888,-0.684,-0.3078,0.1366,0.5623,0.9545,1.1984,1.3074,1.0546,0.8269,0.7379,1.0384,1.4262,1.6183,1.6148,1.566,1.8632,2.8557,3.8495,4.5685,4.5481,4.2878,4.5388,5.5337,6.2124,6.4391,6.5404,6.9044,7.2186,7.4796,7.4915,7.2697,6.8049,6.4093,6.2447,4.7185,0.6617,-2.3495,-2.226,-3.7297,-4.9379,-5.1383,-4.9558,-4.7354,-4.6235,-4.5057,-4.3337,-4.1875,-4.1381,-3.8333,-2.971,-2.8438,-2.3288,-1.7379,-1.4096,-1.3356,-1.218,-0.472,-0.0528,0.2482,0.8477,1.3021,1.0803,0.5537,0.2131,0.8552,3.0008,5.2962,5.4254,7.0943,8.4518,8.6431,8.6414,8.4839,8.3159,8.1418,7.8952,7.5673,7.4404,7.1987,7.0477,6.8314,6.6084,6.4691,6.2224,6.0322,5.6412,5.2274,4.9032,4.6556,4.485,4.507,4.575,4.5103,4.5221,4.6131,4.6738,4.6818,4.7407,4.9181,5.0485,-3.5386,-3.5566,-3.2219,-3.0614,-2.9966,-2.7855,-2.7267,-2.6484,-2.5773,-2.4671,-2.3406,-2.2583,-1.9872,-1.6104,-1.6371,-1.4708,-1.1944,-0.7485,-0.5105,-0.3258,-0.0696,-0.0535,-0.3113,-0.2053,0.1141,0.3865,0.4851,0.6982,0.8125,0.7453,1.289,2.1839,2.6577,3.2867,3.8645,4.1762,4.63,5.0797,5.7002,6.3686,6.7982,7.4038,7.8718,8.2049,8.079,6.8922,4.8468,3.5076,2.6016,2.2262,-0.8427,-2.9237,-3.7124,-5.6858,-6.9464,-7.2152,-7.0347,-6.8389,-6.7336,-6.5069,-6.4764,-6.1444,-5.9265,-5.7464,-5.3417,-4.8556,-4.398,-3.8794,-3.6144,-3.3377,-3.1382,-2.6962,-2.2277,-1.823,-1.57,-1.9129,-2.6662,-2.4384,-2.0425,-2.0756,1.4826,3.5407,4.7954,6.5364,8.6209,6.6222,7.1255,7.2903,7.5993,7.4509,7.1908,6.891,6.608,6.3139,6.0669,5.8547,5.689,5.5336,5.2398,4.7975,4.4099,3.9491,3.707,3.6587,3.6791,3.6855,3.6558,3.6416,3.6511,3.7459,3.9318,3.9816,4.0074,4.1022,4.1672,-4.0905,-3.9599,-3.9097,-3.7738,-3.6196,-3.6123,-3.5339,-3.4093,-3.2775,-3.1731,-3.1067,-2.9931,-2.7549,-2.5021,-2.4694,-2.3503,-2.0982,-1.6594,-1.4849,-1.4317,-1.0849,-1.1843,-1.4055,-1.1383,-0.7865,-0.5226,-0.2134,-0.0194,0.0775,0.193,0.6516,1.3731,1.9711,2.5005,3.0567,3.132,3.3793,4.0859,5.5692,6.1806,6.2206,7.3662,8.2244,8.6749,8.6048,7.0493,4.2176,2.6991,0.3394,-2.5136,-4.1448,-5.2617,-5.8968,-7.1494,-7.8927,-8.2318,-8.0146,-7.8605,-7.7746,-7.6781,-7.5275,-7.3363,-7.3023,-7.0315,-6.644,-6.3974,-6.0448,-5.6727,-5.4505,-5.29,-5.1582,-4.9646,-4.4914,-4.0096,-4.5965,-5.4143,-6.0403,-5.0935,-4.662,-3.9429,-1.9148,0.3873,0.7746,2.6718,3.8386,4.4129,5.0524,5.8284,6.6289,6.6794,6.4772,6.2526,5.9827,5.4477,5.0916,4.7975,4.5944,4.4551,4.138,3.5657,3.0507,2.4511,2.4789,2.691,2.8165,2.8618,2.8397,2.8213,2.7726,2.8155,3.1338,3.2319,3.165,3.1973,3.2421,-4.6773,-4.478,-4.5747,-4.4758,-4.3071,-4.3995,-4.3746,-4.2329,-4.06,-3.9528,-3.8419,-3.6993,-3.4998,-3.27,-3.2119,-3.1277,-2.892,-2.5117,-2.3566,-2.3799,-2.1844,-2.3558,-2.4815,-2.1122,-1.6697,-1.3295,-1.0268,-0.7834,-0.6287,-0.548,-0.1513,0.4946,1.1432,1.6302,1.8429,1.7516,2.204,3.5501,5.386,6.0221,6.4589,7.8702,8.3092,8.0051,7.6145,6.3794,4.3949,2.0999,-1.4219,-5.5946,-6.2687,-6.6961,-7.0695,-7.5078,-7.8595,-8.144,-8.1365,-8.1791,-8.2722,-8.2299,-8.1647,-8.0953,-8.0348,-7.9276,-7.498,-7.4404,-7.247,-7.013,-6.9095,-6.8594,-6.7922,-6.5935,-6.3051,-5.9936,-6.734,-7.5882,-7.6446,-7.1757,-6.6843,-6.4766,-4.1766,-2.5432,-1.7057,-0.5518,0.6249,1.3299,2.0498,2.8,4.0076,4.4068,3.9367,4.2395,4.3259,4.0996,3.9103,3.5944,3.4294,3.2569,2.7573,2.1233,1.5671,1.113,1.348,1.5262,1.423,1.4,1.5308,1.6775,1.7765,1.6814,1.9326,2.058,2.0883,2.1896,2.2297,-5.4268,-5.3795,-5.2137,-5.1196,-5.0748,-5.0338,-4.9953,-4.9904,-4.9567,-4.75,-4.5033,-4.4286,-4.2309,-3.9203,-3.7583,-3.7175,-3.6325,-3.2907,-3.1848,-3.3957,-3.6314,-3.7157,-3.5675,-3.024,-2.4436,-1.9755,-1.9544,-1.7666,-1.4016,-1.4164,-1.1603,-0.3877,0.0185,0.4993,0.8878,0.4387,1.5443,3.9127,4.7612,6.4624,8.7281,8.7343,7.4466,4.9964,4.3508,3.8412,2.9339,0.0641,-2.9254,-4.8659,-5.5574,-6.0393,-6.5767,-6.9467,-7.334,-7.6576,-8.0962,-8.2507,-8.3768,-8.4464,-8.5796,-8.6182,-8.4818,-8.3817,-8.3563,-8.2303,-8.1024,-7.9553,-7.9484,-7.9197,-7.7084,-7.4216,-7.3243,-7.5679,-7.9296,-8.2256,-8.3073,-8.1346,-7.9414,-7.5969,-5.5963,-3.5199,-3.8647,-2.7799,-1.3309,-0.259,-0.1275,0.0586,0.9351,1.1753,1.0116,1.0747,1.1891,1.1691,1.5014,1.3366,1.8563,1.5792,1.0457,0.5094,0.0191,-0.0575,0.0765,-0.0382,-0.1331,-0.1335,-0.0574,0.0575,0.1726,0.3633,0.5535,0.7253,0.8961,1.067,1.2541,-5.749,-5.6708,-5.5955,-5.5358,-5.4685,-5.4423,-5.4216,-5.4216,-5.4342,-5.2788,-5.0769,-5.0374,-4.8946,-4.6721,-4.5388,-4.501,-4.4906,-4.1969,-4.3057,-4.7909,-5.0265,-4.8777,-4.5392,-4.1779,-3.5957,-2.8935,-2.734,-2.6097,-2.4132,-2.1111,-1.7666,-1.4471,-1.1582,-0.6923,-0.149,-0.723,0.1865,3.2155,5.8979,7.9004,8.1279,5.345,3.2623,2.6954,-0.058,-1.5719,-1.802,-3.2219,-4.5036,-5.0853,-5.6905,-6.172,-6.6452,-6.9252,-7.1567,-7.3924,-7.7306,-8.0689,-8.2568,-8.4644,-8.6281,-8.7159,-8.6979,-8.668,-8.635,-8.6368,-8.5835,-8.5215,-8.5048,-8.4865,-8.3933,-8.1569,-8.1666,-8.4086,-8.5196,-8.568,-8.5777,-8.5041,-8.5131,-8.3081,-7.3688,-6.6394,-6.2048,-5.4345,-4.6124,-3.8076,-3.5167,-3.2866,-2.9487,-2.5924,-2.1185,-1.7641,-1.4035,-1.0085,-0.9155,-0.4137,0.1892,-0.1136,-0.5308,-0.8749,-1.1073,-1.1015,-1.0986,-1.1536,-1.3969,-1.3764,-1.4281,-1.3642,-1.1497,-1.0748,-0.8589,-0.5914,-0.3054,-0.1143,0.3243,-6.1301,-6.0231,-6.0203,-5.9785,-5.9224,-5.9161,-5.9221,-5.908,-5.8678,-5.7805,-5.6351,-5.5483,-5.4411,-5.3121,-5.1993,-5.1627,-5.1778,-5.1716,-5.3839,-5.7839,-5.8038,-5.6167,-5.3712,-5.1922,-4.6878,-3.9496,-3.6532,-3.4513,-3.2116,-2.8673,-2.5535,-2.3776,-2.1254,-1.8057,-1.5537,-1.7255,-0.489,2.6055,6.7866,8.4317,7.1044,1.4516,-0.8559,0.1939,-3.0002,-5.1164,-5.0962,-5.1342,-5.1552,-5.1595,-5.7102,-6.1879,-6.534,-6.8391,-7.0602,-7.2069,-7.5425,-7.8966,-8.1881,-8.4313,-8.6181,-8.7145,-8.8033,-8.8159,-8.7863,-8.79,-8.7965,-8.7941,-8.7979,-8.7964,-8.7731,-8.6872,-8.6685,-8.8457,-8.8225,-8.7837,-8.7866,-8.7504,-8.7132,-8.6558,-8.4166,-8.0777,-7.6063,-7.2246,-6.4861,-5.862,-5.5059,-5.0616,-4.7062,-4.1557,-4.0677,-3.4208,-3.025,-2.4211,-2.0385,-1.5391,-1.2359,-1.4357,-1.6658,-1.9187,-1.9823,-1.9814,-1.9989,-2.1097,-2.4307,-2.5963,-2.6436,-2.5238,-2.192,-2.0322,-1.9048,-1.7228,-1.5216,-1.1556,-0.73,-6.6216,-6.5,-6.5209,-6.4806,-6.4613,-6.4425,-6.4931,-6.4419,-6.3506,-6.2521,-6.1656,-5.9999,-5.8819,-5.8052,-5.6534,-5.6158,-5.775,-6.0742,-6.2789,-6.3416,-6.1784,-6.0666,-6.0162,-5.8896,-5.5545,-5.0543,-4.7417,-4.2558,-3.7341,-3.7252,-3.5554,-3.1345,-2.8432,-2.7884,-3.2023,-2.4575,-0.5633,2.7692,6.8106,7.3365,4.0915,-1.9039,-4.1154,-2.4096,-3.8982,-4.8807,-4.5252,-4.5379,-4.769,-5.1275,-5.4101,-5.6714,-6.1003,-6.5516,-6.9061,-7.1115,-7.5321,-7.9172,-8.1862,-8.4443,-8.6272,-8.7669,-8.8645,-8.907,-8.9143,-8.9333,-8.9373,-8.9344,-8.939,-8.9406,-8.9031,-8.8479,-8.8391,-8.9324,-8.9221,-8.9084,-8.9226,-8.9388,-8.8343,-8.5228,-8.1862,-7.8791,-7.6762,-7.398,-6.9429,-6.2901,-5.8743,-5.4535,-4.739,-4.3462,-3.9982,-3.6997,-3.3012,-2.9384,-2.8339,-2.718,-2.6515,-2.6115,-2.6397,-2.6763,-2.6657,-2.6456,-2.6198,-2.6303,-2.9448,-3.0754,-3.0974,-3.1222,-2.8805,-2.8491,-2.7738,-2.63,-2.3928,-2.0766,-1.674,-6.6802,-6.6167,-6.5581,-6.5647,-6.6136,-6.5526,-6.5259,-6.5271,-6.4822,-6.4596,-6.444,-6.3657,-6.372,-6.4102,-6.2349,-6.3282,-6.6769,-6.7837,-6.9267,-6.9943,-6.8375,-6.7474,-6.7204,-6.6238,-6.3326,-5.8891,-5.5582,-5.1491,-4.6533,-4.1927,-4.0104,-4.0195,-3.5834,-3.4439,-3.6414,-3.952,-2.7968,0.5663,5.9429,5.3363,-1.0749,-4.3979,-4.6605,-2.8544,-3.5232,-4.2142,-4.2635,-4.5263,-4.8286,-5.1414,-5.497,-5.7512,-5.8981,-6.2747,-6.6229,-6.9179,-7.2889,-7.6517,-7.9661,-8.2196,-8.4605,-8.6873,-8.7924,-8.8697,-8.9291,-8.9487,-8.9713,-8.9821,-8.9857,-8.9854,-8.9687,-8.9392,-8.887,-8.8336,-8.9141,-8.9332,-8.8338,-8.8155,-8.7048,-8.4755,-8.1237,-7.8206,-7.5993,-7.2702,-6.8047,-6.2378,-5.8602,-5.3888,-4.7354,-4.3833,-4.1984,-3.6053,-3.312,-3.1671,-2.9942,-3.0075,-3.0207,-3.0908,-3.154,-3.1758,-3.1715,-3.1458,-3.1368,-3.1253,-3.2176,-3.3253,-3.4267,-3.4866,-3.5101,-3.5349,-3.4469,-3.3052,-3.1112,-2.8887,-2.5735,-6.8956,-6.8705,-6.8104,-6.816,-6.8639,-6.8063,-6.781,-6.7759,-6.7329,-6.7168,-6.7182,-6.6864,-6.7199,-6.8074,-6.7454,-6.946,-7.3032,-7.2137,-7.25,-7.3761,-7.2055,-7.1323,-7.1409,-6.9408,-6.6739,-6.3884,-6.0666,-5.6611,-5.1877,-4.7752,-4.6126,-4.6425,-4.446,-4.3641,-4.5391,-5.2081,-4.3283,-1.7765,0.68,0.2099,-4.5457,-5.5003,-4.5787,-2.2489,-3.0003,-3.7064,-4.1129,-4.474,-4.8592,-5.2551,-5.5148,-5.7361,-5.8833,-6.049,-6.3137,-6.7207,-7.12,-7.5059,-7.8532,-8.0962,-8.3523,-8.6326,-8.744,-8.8268,-8.9001,-8.9294,-8.9482,-8.9644,-8.9709,-8.9709,-8.9696,-8.9572,-8.9097,-8.8406,-8.9058,-8.9247,-8.8386,-8.7997,-8.7038,-8.4621,-8.2191,-7.8893,-7.6077,-7.2127,-6.7839,-6.3257,-5.8682,-5.3838,-4.8762,-4.5544,-4.2752,-3.8019,-3.5509,-3.3988,-3.1787,-3.3582,-3.4817,-3.5926,-3.5738,-3.5387,-3.5061,-3.4722,-3.4304,-3.4016,-3.5756,-3.6957,-3.7303,-3.8113,-4.0236,-4.0269,-3.997,-3.845,-3.6701,-3.1656,-3.0251,-7.2292,-7.2258,-7.2366,-7.2116,-7.2331,-7.2086,-7.212,-7.1693,-7.0724,-7.0444,-7.0416,-6.9587,-6.9319,-6.9863,-7.1462,-7.3799,-7.5939,-7.384,-7.3671,-7.5005,-7.2697,-7.2213,-7.3286,-6.9366,-6.7483,-6.7211,-6.3088,-5.8618,-5.4509,-5.4742,-5.4071,-5.1244,-5.2504,-5.4646,-5.6564,-6.1455,-5.1598,-3.367,-5.7315,-7.48,-6.0096,-5.6027,-4.1877,-1.9484,-2.5555,-3.4017,-3.9708,-4.3218,-4.7649,-5.3945,-5.4343,-5.6363,-5.9713,-5.9079,-6.0599,-6.5411,-7.0545,-7.5112,-7.851,-8.0907,-8.3406,-8.6078,-8.7169,-8.8025,-8.8882,-8.9076,-8.9127,-8.9231,-8.9237,-8.9203,-8.9258,-8.9258,-8.9144,-8.8896,-8.9107,-8.9144,-8.9026,-8.8649,-8.7401,-8.503,-8.3476,-8.0969,-7.6445,-7.3128,-6.926,-6.4288,-5.9302,-5.4525,-5.1005,-4.6585,-4.3942,-4.2142,-3.9938,-3.7926,-3.9505,-3.9124,-4.011,-4.0638,-3.9064,-3.7881,-3.7548,-3.7458,-3.6981,-3.7081,-3.9092,-4.0421,-4.073,-4.1894,-4.4002,-4.4671,-4.4237,-4.3837,-4.222,-3.5566,-3.3517,-7.2292,-7.2439,-7.3046,-7.3357,-7.3217,-7.2632,-7.2309,-7.2219,-7.1929,-7.1772,-7.1845,-7.1545,-7.2053,-7.3203,-7.466,-7.572,-7.6273,-7.4625,-7.521,-7.7406,-7.5142,-7.5378,-7.714,-7.2763,-7.0363,-6.9614,-6.5174,-6.1833,-6.0131,-5.7359,-5.6001,-5.6217,-5.4258,-5.6511,-6.2577,-6.4365,-6.253,-5.8236,-6.2116,-6.3163,-5.4868,-4.0347,-2.6957,-1.7597,-2.541,-3.1551,-3.3558,-4.0608,-4.6285,-4.9504,-5.2195,-5.5068,-5.8437,-6.0008,-6.1673,-6.4315,-6.9957,-7.5136,-7.9102,-8.0674,-8.264,-8.5103,-8.6361,-8.7575,-8.8672,-8.9052,-8.9087,-8.9185,-8.8958,-8.8904,-8.902,-8.9091,-8.8586,-8.774,-8.863,-8.8681,-8.7756,-8.733,-8.6896,-8.5746,-8.3233,-8.0548,-7.8753,-7.5069,-7.0018,-6.4136,-6.0435,-5.7291,-5.2437,-5.007,-4.7627,-4.5302,-4.4108,-4.2923,-4.2102,-4.2042,-4.1981,-4.2276,-4.2235,-4.1035,-4.143,-4.2589,-4.2821,-4.1567,-4.3133,-4.4168,-4.435,-4.5599,-4.7525,-4.8246,-4.9204,-4.9712,-4.7423,-4.3989,-4.1264,-7.4211,-7.4211,-7.4476,-7.4608,-7.4551,-7.4056,-7.3859,-7.3811,-7.3592,-7.3219,-7.3011,-7.384,-7.4527,-7.5123,-7.5967,-7.6571,-7.6881,-7.5527,-7.6249,-7.8176,-7.5886,-7.5642,-7.6873,-7.306,-7.0893,-7.0024,-6.6723,-6.4582,-6.334,-6.0441,-5.9457,-6.0368,-6.0034,-6.1783,-6.6466,-6.8378,-6.8378,-6.7262,-6.025,-5.5099,-4.9569,-2.678,-1.5876,-2.1477,-2.74,-3.1552,-3.4531,-3.9028,-4.3522,-4.7285,-5.0129,-5.3158,-5.6373,-5.8722,-6.1046,-6.3767,-6.7121,-7.1451,-7.7229,-7.9921,-8.2443,-8.5008,-8.6145,-8.7197,-8.8346,-8.8727,-8.8931,-8.8958,-8.8781,-8.8674,-8.8848,-8.8878,-8.8531,-8.793,-8.839,-8.8683,-8.7687,-8.7517,-8.6588,-8.5044,-8.2812,-8.0798,-7.8532,-7.566,-7.1084,-6.5343,-6.0481,-5.7502,-5.4195,-5.0871,-4.8397,-4.6298,-4.644,-4.5993,-4.4397,-4.3858,-4.4291,-4.4786,-4.4435,-4.4392,-4.4807,-4.5851,-4.6015,-4.6722,-4.6722,-4.6841,-4.7703,-4.9202,-5.0005,-5.0364,-5.1782,-5.2311,-5.1611,-4.7855,-4.6304,-7.6929,-7.6884,-7.6272,-7.6069,-7.6048,-7.606,-7.6004,-7.6002,-7.5557,-7.484,-7.4299,-7.6099,-7.6566,-7.612,-7.5623,-7.5932,-7.6596,-7.5493,-7.5729,-7.7106,-7.4976,-7.4049,-7.4381,-7.1874,-7.0011,-6.8816,-6.7713,-6.6607,-6.556,-6.4215,-6.3599,-6.412,-6.7367,-6.8752,-6.9246,-7.289,-7.1114,-6.3032,-5.7921,-5.2378,-4.4847,-1.6006,-0.9399,-2.8708,-2.9416,-3.2349,-3.733,-3.7946,-4.0347,-4.5771,-4.8354,-5.1195,-5.4328,-5.6412,-5.9315,-6.3575,-6.3526,-6.6116,-7.3645,-7.8586,-8.2182,-8.484,-8.6037,-8.699,-8.766,-8.799,-8.8197,-8.837,-8.8412,-8.845,-8.8641,-8.8679,-8.8641,-8.8492,-8.8645,-8.8537,-8.823,-8.8387,-8.7016,-8.3222,-8.255,-8.0989,-7.7527,-7.5384,-7.242,-6.747,-6.1438,-5.6582,-5.465,-5.0592,-4.7121,-4.6581,-4.7307,-4.7586,-4.6418,-4.5993,-4.6818,-4.7888,-4.7144,-4.6981,-4.7424,-4.7166,-4.6722,-4.8581,-4.888,-4.9293,-5.0564,-5.1419,-5.1443,-5.1442,-5.1598,-5.1848,-5.1431,-4.8744,-4.7303,-7.6974,-7.6974,-7.6838,-7.6792,-7.6774,-7.6763,-7.6723,-7.6734,-7.6616,-7.6416,-7.6309,-7.6755,-7.6884,-7.6489,-7.3643,-7.2548,-7.2256,-6.9409,-7.0195,-7.3537,-7.1303,-7.2012,-7.4803,-7.1715,-6.9814,-6.9432,-6.8271,-6.7772,-6.7572,-6.6469,-6.6103,-6.6612,-6.825,-7.0403,-7.27,-7.6796,-7.4297,-6.5451,-6.2155,-5.088,-3.1089,-1.0816,-0.5967,-1.8281,-2.2443,-2.5663,-2.8864,-3.4483,-3.949,-4.3512,-4.6743,-5.0436,-5.4376,-5.6804,-5.8905,-6.0991,-6.4253,-6.7703,-7.0686,-7.6247,-8.0395,-8.242,-8.5068,-8.6997,-8.7413,-8.6089,-8.5562,-8.6755,-8.6943,-8.7469,-8.8456,-8.869,-8.8612,-8.8612,-8.8612,-8.7976,-8.6895,-8.6671,-8.5781,-8.3774,-8.1539,-8.0027,-7.8476,-7.5901,-7.2698,-6.9001,-6.2734,-5.6581,-5.3016,-5.1514,-4.943,-4.8605,-4.8328,-4.8466,-4.8189,-4.9018,-4.9453,-4.8605,-4.9293,-4.9453,-4.9018,-4.9726,-5.0294,-5.0429,-5.0723,-5.0992,-5.1285,-5.1552,-5.1552,-5.1601,-5.1956,-5.2794,-5.3399,-5.1454,-5.0405,-7.78,-7.7762,-7.7525,-7.7565,-7.7763,-7.7572,-7.7393,-7.7286,-7.6123,-7.5571,-7.5688,-7.7132,-7.7645,-7.718,-7.4494,-7.3016,-7.2633,-6.9858,-6.9943,-7.1969,-7.0681,-7.0814,-7.1988,-7.037,-6.9058,-6.8368,-6.7875,-6.7812,-6.7933,-6.7041,-6.6983,-6.7769,-6.8104,-7.034,-7.4186,-7.648,-7.37,-6.5943,-6.4489,-5.4028,-3.3833,-2.1152,-1.63,-1.9602,-1.9354,-2.0965,-2.4411,-2.9465,-3.328,-3.5321,-3.9569,-4.3865,-4.794,-5.0968,-5.4065,-5.7387,-6.0281,-6.3503,-6.7307,-7.1065,-7.5136,-7.943,-8.2076,-8.3543,-8.3897,-8.3931,-8.4326,-8.5141,-8.5306,-8.5745,-8.6484,-8.6529,-8.6107,-8.5326,-8.5994,-8.5699,-8.4325,-8.4474,-8.4182,-8.2108,-8.043,-7.8829,-7.7053,-7.4633,-7.2051,-6.8731,-6.4204,-5.851,-5.3325,-5.1828,-5.0723,-4.9179,-4.9316,-4.9863,-5.0022,-5.0858,-5.1017,-5.0158,-5.0858,-5.1017,-5.0429,-5.0588,-5.1419,-5.1552,-5.1419,-5.1552,-5.1552,-5.1552,-5.1552,-5.1626,-5.198,-5.2663,-5.3476,-5.3086,-5.1911,-7.8704,-7.8704,-7.8239,-7.8084,-7.8,-7.7569,-7.7096,-7.6576,-7.5207,-7.4421,-7.4404,-7.7171,-7.803,-7.7245,-7.528,-7.4093,-7.3466,-7.1615,-7.0792,-7.08,-7.0554,-6.9664,-6.8312,-6.8513,-6.7938,-6.6728,-6.7277,-6.7439,-6.7337,-6.702,-6.727,-6.8003,-6.7789,-6.9534,-7.325,-7.4275,-7.1466,-6.5129,-6.4081,-5.5335,-3.8818,-3.3535,-2.7605,-2.0116,-1.6748,-1.769,-2.1641,-2.4611,-2.6416,-2.7261,-3.2596,-3.722,-4.047,-4.3903,-4.7836,-5.302,-5.4006,-5.7152,-6.3612,-6.4981,-6.8585,-7.5657,-7.841,-7.8963,-7.8055,-8.0918,-8.2978,-8.3165,-8.3422,-8.3637,-8.3832,-8.3665,-8.2966,-8.1738,-8.2405,-8.2373,-8.0824,-8.178,-8.1582,-7.925,-7.8871,-7.7341,-7.4663,-7.2906,-7.07,-6.7306,-6.3918,-6.0416,-5.535,-5.2668,-5.0858,-4.975,-5.0429,-5.1419,-5.1285,-5.1552,-5.1419,-5.1552,-5.1419,-5.1419,-5.1285,-5.1419,-5.1419,-5.1552,-5.1552,-5.1552,-5.1552,-5.1552,-5.1552,-5.1552,-5.1601,-5.2017,-5.2932,-5.2867,-5.253,-7.8704,-7.8704,-7.8605,-7.711,-7.4703,-7.4615,-7.3092,-7.0927,-7.5766,0.0,0.0,-7.6535,-7.5982,-7.4361,-7.0995,-6.9424,-6.91,-6.583,-6.5647,-6.8036,-6.6712,-6.7271,-6.9374,-6.7749,-6.6751,-6.6558,-6.7498,-6.7564,-6.687,-6.7972,-6.7921,-6.6956,-6.8475,-6.8884,-6.8299,-7.2394,-7.0268,-6.1601,-5.6098,-4.176,-1.8591,-2.3249,-1.5767,0.6241,-0.7642,-1.5532,-1.5491,-2.3126,-2.8242,-3.0041,-3.7282,-4.1429,-4.1549,-4.3414,-4.5473,-4.7356,-4.8714,-5.2227,-5.824,-6.0273,-6.4073,-7.0824,-7.6385,-7.6698,-7.0015,-7.469,-7.8435,-7.9851,-8.1243,-8.256,-8.379,-8.2617,-8.1545,-8.127,-8.0274,-7.9,-7.7521,-7.7596,-7.7476,-7.6355,-7.5803,-7.5061,-7.4337,-7.2208,-6.9532,-6.685,-6.3499,-5.98,-5.6418,-5.3425,-5.1309,-5.0723,-5.0588,-5.1285,-5.1419,-5.1285,-5.1552,-5.1285,-5.1419,-5.1552,-5.1552,-5.1552,-5.1552,-5.1552,-5.1552,-5.1552,-5.1552,-5.1552,-5.1552,-5.1552,-5.1552,-5.1761,-5.2663,-5.2371,-5.204,-7.8704,-7.8704,-7.8704,-7.7806,0.0,-7.6311,-7.3093,-6.8076,-7.1401,-7.2835,-7.2964,-7.4457,-7.4675,-7.3822,-7.1067,-6.9811,-6.9699,-6.7061,-6.6565,-6.783,-6.6962,-6.7114,-6.8093,-6.7005,-6.6329,-6.6149,-6.6586,-6.6387,-6.5697,-6.7144,-6.622,-6.2974,-6.4822,-6.3762,-6.009,-6.4999,-6.3554,-5.5518,-3.5982,-2.2381,-1.5078,-1.0223,-0.2502,0.7998,0.0305,0.0,0.0,0.0,0.0,0.0,0.0,0.0,0.0,0.0,0.0,-4.6874,-4.7181,-4.9231,-5.3791,-5.5683,-5.8289,-6.2189,-6.6458,-6.7584,-6.4393,-6.7938,-7.1746,-7.4959,-7.6072,-7.7608,-7.9791,-7.9346,-7.8135,-7.6443,-7.6266,-7.5666,-7.4225,-7.457,-7.486,-7.4278,-7.4335,-7.3933,-7.2837,-7.1687,-6.9878,-6.6421,-6.277,-5.9543,-5.6785,-5.3554,-5.1151,-5.0158,-4.9293,-4.8857,-4.975,-4.9293,-4.8696,-4.9863,-5.0022,-5.0429,-5.1285,-5.1552,-5.1552,-5.1552,-5.1552,-5.1552,-5.1552,-5.1552,-5.1552,-5.1552,-5.1552,-5.1797,-5.2189,-5.2249,-5.2419,-7.8704,-7.8734,-7.8793,-7.8418,-7.7873,-7.8241,-7.4469,-6.8163,-6.8392,-6.915,-7.0509,-7.2598,-7.3346,-7.3018,-7.1584,-7.0943,-7.0852,-6.9581,-6.878,-6.8335,-6.8271,-6.7708,-6.6834,-6.657,-6.6235,-6.5886,-6.5732,-6.5271,-6.4597,-6.5672,-6.4177,-6.0213,-6.156,-5.9596,-5.4688,0.0,0.0,0.0,-1.399,-0.1338,-0.7486,0.5622,1.06,0.6188,0.7996,0.0,0.2829,0.1744,-0.5688,-2.0371,-2.7431,0.0,0.0,0.0,0.0,0.0,0.0,0.0,0.0,0.0,0.0,0.0,-5.6427,-5.7695,-5.9626,-6.1776,-6.493,-6.9204,-7.0631,-7.2027,-7.3857,-7.3749,-7.2749,-7.0708,-7.1333,-7.1756,-7.1133,-7.2095,-7.2846,-7.2463,-7.2929,-7.2489,-7.0657,-7.0538,-6.9217,-6.5371,-6.1772,-5.851,-5.5625,-5.2724,-5.0294,-4.8443,-4.6863,-4.644,-4.7749,-4.6863,-4.6559,-4.7446,-4.8027,-4.8605,-4.9863,-5.0429,-5.0858,-5.027,-5.0992,-5.1419,-5.0992,-5.1285,-5.1552,-5.1552,-5.1552,-5.1626,-5.1846,-5.2444,-5.3152,-7.8704,-7.8696,-7.899,-7.7287,-7.461,-7.642,-7.5776,-7.3465,-7.3481,-7.3647,-7.3707,-7.2641,-7.1332,-6.9824,-6.9595,-6.9405,-6.9319,-6.9105,-6.8966,-6.8874,-6.8436,-6.8134,-6.796,-6.6963,-6.6433,-6.634,-6.5951,-6.5271,-6.4562,-6.4715,-6.3658,-6.173,-6.3142,-6.1798,-5.7808,-5.362,-4.3001,-2.5612,0.1639,1.8641,2.4717,2.6148,2.2213,1.28,1.543,1.3493,0.5837,0.9467,0.1238,-2.1062,-2.7323,-3.1728,-3.5568,-3.5184,-3.6973,0.0,-3.978,0.0,0.0,0.0,0.0,0.0,0.0,0.0,0.0,-5.7561,-5.9778,-6.2656,-6.6813,-6.8284,-6.5756,-6.4278,-6.447,-6.6761,-6.5951,-6.6315,-6.8945,-6.9479,-6.9936,-7.0758,-6.9846,-6.9163,-6.8565,-6.6809,-6.5148,-6.3408,-5.9495,-5.5354,-5.2398,-5.0228,-4.8282,-4.6298,-4.5872,-4.5566,-4.5566,-4.5566,-4.5566,-4.5851,-4.5993,-4.6156,-4.6581,-4.7888,-4.8443,-4.7284,-4.9269,-5.0858,-4.9179,-5.0453,-5.1419,-5.1552,-5.1419,-5.1577,-5.238,-5.2819,-5.3056,-7.8939,-7.8965,-7.9155,-7.731,-7.4328,-7.5428,-7.4841,-7.3182,-7.3295,-7.2794,-7.1829,-7.1172,-7.0275,-6.9307,-6.9242,-6.9089,-6.8982,-6.902,-6.8836,-6.8566,-6.834,-6.789,-6.7247,-6.6703,-6.6366,-6.6064,-6.5835,-6.5016,-6.3836,-6.4293,-6.26,-5.8882,-5.9244,-5.7367,-5.3323,-5.1326,-3.4911,-0.4298,0.714,1.8388,2.9688,2.9825,2.636,1.9655,1.8934,1.587,1.0122,0.9618,0.1815,-1.4825,-2.8007,-3.4559,-3.3371,-3.4483,-3.6752,0.0,0.0,0.0,0.0,0.0,0.0,0.0,0.0,0.0,0.0,0.0,-5.2889,-5.4732,-6.1899,-6.5758,-6.4119,-6.422,-6.3471,-6.1206,-6.1119,-6.1816,-6.3349,-6.5077,-6.5629,-6.4037,-6.5426,-6.5989,-6.469,-6.3457,-6.2489,-6.1792,-5.5295,-5.014,-4.9,-4.777,-4.5798,-4.3375,-4.447,-4.4685,-4.1153,-4.0855,-4.1598,-4.3527,-4.3963,-4.4418,-4.5566,-4.644,-4.6722,-4.6015,-4.8004,-4.959,-4.8904,-5.0158,-5.1419,-5.1419,-5.0723,-5.0403,-5.1306,-5.2771,-5.4182,-7.8872,-7.8428,-7.7458,-7.5443,-7.2792,-7.3108,-7.2622,-7.1635,-7.182,-7.1051,-6.9752,-6.8998,-6.8501,-6.8192,-6.715,-6.7032,-6.7679,-6.7642,-6.7881,-6.8201,-6.81,-6.7445,-6.6479,-6.6329,-6.6078,-6.5715,-6.5715,-6.4848,-6.3238,-6.3202,-6.075,-5.618,-5.512,-5.2801,-4.9006,-4.4014,-2.4247,1.0284,1.1398,1.9313,3.4259,3.1776,2.8847,2.5883,2.2311,1.8664,1.4691,1.1291,0.3719,-0.888,-2.4724,-3.2932,-3.175,-3.3855,0.0,0.0,0.0,0.0,0.0,0.0,0.0,0.0,0.0,-4.5645,-4.5062,0.0,-4.8505,0.0,-5.7653,-6.2239,-6.1787,-6.2552,0.0,0.0,-5.6758,-5.7546,-5.8442,-6.0822,-6.1369,-5.8595,-6.0652,-6.1683,-5.987,-5.893,-5.8133,-5.7027,-4.961,-4.4272,-4.4481,-4.3465,-4.1671,-3.9247,-4.0275,-4.0432,-3.6349,-3.5554,-3.6949,-4.0031,-4.1004,-4.1914,-4.3361,-4.4231,-4.4871,-4.4562,-4.6298,-4.7469,-4.7166,-4.8719,-4.9856,-4.9515,-4.8296,-4.7662,-4.8872,-5.0885,-5.2635,-7.8233,-7.6433,-7.24,-6.9664,-6.8032,-6.8034,-6.8832,-7.0121,-7.0014,-6.9948,-6.9556,-6.6373,-6.4959,-6.4686,-6.1186,0.0,-6.3821,-6.3821,-6.5366,-6.8205,-6.7708,-6.7161,-6.6433,-6.5965,-6.5767,-6.5715,-6.5715,-6.4813,-6.3105,-6.0674,-5.7909,-5.5119,-5.2612,-5.0692,-4.815,-2.6853,-0.6949,1.014,1.7989,3.1276,4.9926,3.8485,3.1538,3.0524,2.7785,2.4164,1.9541,1.9248,1.0989,-0.6579,-1.3054,-2.1086,-3.188,0.0,0.0,0.0,0.0,0.0,0.0,0.0,0.0,0.0,0.0,0.0,0.0,0.0,0.0,-5.2391,-5.5272,0.0,-5.5467,-5.3791,0.0,0.0,0.0,-5.322,-5.6449,-5.751,-5.7922,-5.7669,0.0,0.0,-5.4608,-5.2122,-4.9419,-4.6958,-4.2348,-3.8722,-3.7556,-3.5992,-3.4541,-3.3487,-3.2383,-3.1492,-3.1215,-3.1739,-3.2971,-3.428,-3.6041,-3.7512,-3.7934,-4.0369,-4.2102,-4.0914,-4.3402,-4.5401,-4.3527,-4.4679,-4.5585,-4.4027,-4.3563,-4.409,-4.5664,-4.6497,-4.6543,-7.2916,-6.7547,-6.5995,-6.4302,-6.2779,-6.2741,-6.3121,-6.3765,-6.3725,-6.3672,-6.3512,-6.1165,-5.998,-5.9722,-5.7105,0.0,0.0,0.0,-5.8973,-6.2024,-6.1463,-6.2135,-6.3574,-6.3119,-6.3121,-6.3583,-6.3618,-6.3172,-6.2381,-6.1157,-5.566,-4.5991,0.0,0.0,-4.0789,-3.2657,-1.4646,1.1778,1.0703,2.3355,5.1641,4.2772,3.7503,3.7039,3.2145,2.7949,2.4547,2.1634,1.4963,0.4072,-0.4444,-1.4336,0.0,0.0,0.0,0.0,0.0,0.0,0.0,0.0,0.0,0.0,0.0,-4.2343,-4.0909,0.0,0.0,0.0,-4.8057,-4.8904,-4.8436,-5.1053,0.0,0.0,0.0,0.0,0.0,0.0,0.0,-5.2944,-5.2846,-5.2475,-5.1505,-4.3814,-3.8069,-3.7785,-3.3153,-2.978,-2.9823,0.0,-2.9364,-2.8356,-2.8544,-2.8552,-2.7619,-2.9375,-3.0515,-2.9734,-3.1966,-3.3886,-3.3936,-3.6806,-3.8753,-3.8082,-4.0553,-4.2878,-4.1631,-3.9114,-3.7065,-3.6489,-3.7309,-3.8478,-3.9917,-4.1163,-4.2,-6.5916,0.0,0.0,0.0,0.0,-5.8231,-5.8505,-5.8921,-5.8882,-5.8585,-5.7908,-5.5718,0.0,0.0,0.0,0.0,0.0,0.0,-5.4264,-5.6372,-5.7843,-5.901,-5.9912,-5.9615,-5.9642,-5.9935,-5.9007,-5.8337,-5.8123,-5.6782,-5.015,-3.8655,0.0,0.0,0.0,0.0,0.0281,1.6012,1.8064,3.0133,5.3938,4.8885,4.4927,4.2575,3.6689,3.1775,2.8025,2.35,1.8868,1.4375,0.3675,0.0,0.0,0.0,0.0,0.0,0.0,0.0,0.0,0.0,0.0,0.0,0.0,0.0,0.0,0.0,0.0,0.0,0.0,0.0,-4.2991,-4.699,-4.7045,0.0,0.0,0.0,0.0,0.0,0.0,0.0,0.0,0.0,-4.107,-3.1128,-2.4717,0.0,0.0,-1.8522,-2.3119,-2.4525,-2.5059,-2.4812,-2.5238,0.0,-2.4179,-2.5813,-2.6672,-2.5336,-2.6947,-2.8867,-3.0182,-3.2445,-3.4006,-3.415,-3.6483,-3.7636,-3.5498,-3.1971,-2.9928,-3.0099,-3.086,-3.2127,-3.336,-3.4161,-3.474,0.0,0.0,0.0,0.0,0.0,0.0,0.0,0.0,-5.6925,-5.5784,0.0,-5.0545,0.0,0.0,0.0,0.0,-4.8087,-5.0897,0.0,0.0,-5.8484,-5.941,-5.5569,-5.5561,-5.542,-5.4642,-5.139,-4.9565,-4.9042,-4.4796,0.0,0.0,0.0,0.0,0.0,0.0,5.1552,2.28,4.755,6.0904,5.8673,5.7562,5.3549,4.6161,4.1714,3.628,2.9595,2.5865,2.3156,2.1972,1.1803,0.0,0.0,0.0,0.0,0.0,0.0,0.0,0.0,0.0,0.0,0.0,0.0,0.0,0.0,0.0,0.0,0.0,0.0,0.0,0.0,-3.9891,0.0,0.0,0.0,0.0,0.0,0.0,0.0,0.0,0.0,0.0,-1.9865,-1.2951,-0.8742,-0.6675,0.0,0.0,0.0,0.0,-2.1397,-2.3231,-2.1505,-2.0182,-2.0685,-2.0413,-2.0265,-2.0778,0.0,0.0,-2.597,-2.6933,-2.8038,-3.024,-3.0686,-2.8892,-2.3608,-2.3421,-2.4432,-2.5718,-2.5295,-2.5159,-2.6829,-2.579,-2.3865,0.0,0.0,0.0,0.0,0.0,0.0,0.0,0.0,0.0,-4.7689,-4.6859,-4.4701,0.0,0.0,0.0,0.0,0.0,0.0,0.0,0.0,-4.7594,-4.8857,-4.934,-4.8991,-4.8815,0.0,-4.6911,-4.2575,0.0,0.0,0.0,0.0,0.0,0.0,0.0,0.0,1.761,2.6923,5.0317,6.1505,5.9032,5.8872,5.577,4.935,4.7604,4.3629,3.6794,3.0484,2.7443,0.0,0.0,0.0,0.0,0.0,0.0,0.0,0.0,0.0,0.0,0.0,0.0,0.0,0.0,0.0,0.0,0.0,0.0,0.0,0.0,0.0,0.0,0.0,-2.7657,0.0,0.0,0.0,0.0,0.0,0.0,0.0,0.0,0.0,-0.3545,0.2786,0.697,1.0293,0.7022,0.1999,-0.4289,0.0,0.0,0.0,0.0,0.0,0.0,0.0,-1.9528,-1.9814,-2.0328,-2.1129,-2.2481,-2.3752,-2.4946,-2.6088,0.0,0.0,-1.8166,-1.7158,-1.8056,-2.0591,-2.2805,-2.3424,-2.0822,-1.9419,-1.8593,0.0,0.0,0.0,0.0,0.0,0.0,0.0,0.0,0.0,-4.1681,-4.099,0.0,0.0,0.0,0.0,0.0,0.0,0.0,0.0,0.0,0.0,0.0,-4.3001,-4.2665,0.0,0.0,0.0,0.0,0.0,0.0,0.0,0.0,0.0,0.0,0.0,0.0,0.2434,3.0127,5.2971,6.3545,6.1543,6.1316,5.8877,5.3995,5.2466,4.8869,4.2782,0.0,0.0,0.0,0.0,0.0,0.0,0.0,0.0,0.0,0.0,0.0,0.0,0.0,0.0,0.0,0.0,0.0,0.0,0.0,0.0,0.0,0.0,0.0,0.0,0.0,-1.7088,0.0,0.0,0.0,0.0,0.0,0.0,0.0,0.0,0.0,0.0,0.0,2.0915,2.4385,2.0677,1.5708,1.083,0.5236,0.0265,0.0,0.0,0.0,0.0,0.0,0.0,0.0,0.0,0.0,0.0,0.0,0.0,0.0,0.0,-1.3391,-0.9709,-0.8751,-0.9303,-1.1757,0.0,0.0,0.0,0.0,0.0,0.0,0.0,0.0,0.0,0.0,0.0,0.0,0.0,0.0,0.0,-3.6516,0.0,0.0,-3.513,0.0,0.0,0.0,0.0,0.0,0.0,0.0,0.0,0.0,0.0,0.0,0.0,0.0,0.0,0.0,0.0,0.0,0.0,0.0,0.0,0.0,0.0,1.1471,3.4142,5.7661,6.8799,6.6637,6.5479,6.331,5.9962,5.6025,5.1636,4.696,0.0,0.0,0.0,0.0,0.0,0.0,0.0,0.0,0.0,0.0,0.0,0.0,0.0,0.0,0.0,0.0,0.0,0.0,0.0,0.0,0.0,0.0,0.0,0.0,0.0,0.0,-0.5702,-0.3088,-0.187,0.0,0.0,0.0,0.0,0.0,0.0,0.0,0.0,0.0,3.5058,3.8049,3.6205,2.638,1.6795,0.8608,0.2854,-0.1128,-0.2866,-0.1066,-0.1365,-0.2627,0.0,0.0,0.0,0.0,0.0,0.0,0.0,0.0,0.0,0.0,0.0,0.0,0.0,0.0,0.0,0.0,0.0,0.0,0.0,0.0,0.0,0.0,0.0,0.0,0.0,0.0,0.0,0.0,0.0,0.0,0.0,0.0,0.0,0.0,0.0,0.0,0.0,0.0,0.0,0.0,0.0,0.0,0.0,0.0,0.0,0.0,0.0,0.0,0.0,0.0,0.0,0.0,0.0,0.0,1.8713,3.7085,5.8868,6.9091,6.7364,6.6513,6.477,6.1844,5.7482,5.2951,0.0,0.0,0.0,0.0,0.0,0.0,0.0,0.0,0.0,0.0,0.0,0.0,0.0,0.0,0.0,0.0,0.0,0.0,0.0,0.0,0.0,0.0,0.0,0.0,0.0,0.0,0.0,0.0,0.8262,0.9854,1.0204,0.0,0.0,0.0,0.0,0.0,0.0,0.0,0.0,0.0,0.0,3.6575,2.9301,2.5718,2.23,1.7923,1.7847,1.6974,1.3289,0.7743,0.3598,0.2839,0.0,0.0,0.0,0.0,0.0,0.0,0.0,0.0,0.0,0.0,0.0,0.0,0.0,0.0,0.0,0.0,0.0,0.0,0.0,0.0,0.0,0.0,0.0,0.0,0.0,0.0,0.0,0.0,0.0,0.0,0.0,0.0,0.0,0.0,0.0,0.0,0.0,0.0,0.0,0.0,0.0,0.0,0.0,0.0,0.0,0.0,0.0,0.0,0.0,0.0,0.0,0.0,0.0,2.2282,3.9905,5.976,6.927,6.7765,6.7618,6.6326,6.3808,5.9874,5.5136,0.0,0.0,0.0,0.0,0.0,0.0,0.0,0.0,0.0,0.0,0.0,0.0,0.0,0.0,0.0,0.0,0.0,0.0,0.0,0.0,0.0,0.0,0.0,0.0,0.0,0.0,0.0,0.0,1.6743,1.8391,2.0217,0.0,0.0,0.0,0.0,0.0,0.0,0.0,0.0,0.0,0.0,4.0674,3.481,3.2574,0.0,0.0,2.6529,2.4714,2.1885,1.671,1.2977,1.3153,1.1608,0.0,0.0,0.0,0.0,0.0,0.0,0.0,0.0,0.0,0.0,0.0,0.0,0.0,0.0,0.0,0.0,0.0,0.0,0.0,0.0,0.0,0.0,0.0,0.0,0.0,0.0,0.0,0.0,0.0,0.0,0.0,0.0,0.0,0.0,0.0,0.0,0.0,0.0,0.0,0.0,0.0,0.0,0.0,0.0,0.0,0.0,0.0,0.0,0.0,0.0,0.0,0.0,2.3458,4.2297,6.0511,6.919,6.8015,6.8616,6.7909,6.5767,6.24,5.7408,0.0,0.0,0.0,0.0,0.0,0.0,0.0,0.0,0.0,0.0,0.0,0.0,0.0,0.0,0.0,0.0,0.0,0.0,0.0,0.0,0.0,0.0,0.0,0.0,0.0,0.0,0.0,0.0,0.0,0.0,0.0,0.0,0.0,0.0,0.0,0.0,0.0,0.0,0.0,0.0,0.0,4.7409,4.2342,3.7735,3.4639,0.0,2.7733,2.3692,2.5931,2.4956,2.4257,2.4236,0.0,0.0,0.0,0.0,0.0,0.0,0.0,0.0,0.0,0.0,0.0,0.0,0.0,0.0,0.0,0.0,0.0,0.0,0.0,0.0,0.0,0.0,0.0,0.0,0.0,0.0,0.0,0.0,0.0,0.0,0.0,0.0,0.0,0.0,0.0,0.0,0.0,0.0,0.0,0.0,0.0,0.0,0.0,0.0,0.0,0.0,0.0,0.0,0.0,0.0,0.0,0.0,0.0,0.0,4.3266,5.9905,6.8484,6.8699,6.8715,6.853,6.7999,6.1283,0.0,0.0,0.0,0.0,0.0,0.0,0.0,0.0,0.0,0.0,0.0,0.0,0.0,0.0,0.0,0.0,0.0,0.0,0.0,0.0,0.0,0.0,0.0,0.0,0.0,0.0,0.0,2.6071,0.0,0.0,0.0,0.0,0.0,0.0,0.0,0.0,0.0,0.0,0.0,0.0,0.0,0.0,5.0968,4.6502,4.3332,4.0681,0.0,0.0,3.2432,3.0294,3.0506,3.0085,0.0,0.0,0.0,0.0,0.0,0.0,0.0,0.0,0.0,0.0,0.0,0.0,0.0,0.0,0.0,0.0,0.0,0.0,0.0,0.0,0.0,0.0,0.0,0.0,0.0,0.0,0.0,0.0,0.0,0.0,0.0,0.0,0.0,0.0,0.0,0.0,0.0,0.0,0.0,0.0,0.0,0.0,0.0,0.0,0.0,0.0,0.0,0.0,0.0,0.0,0.0,0.0,0.0,0.0,2.9698,4.4224,5.9863,6.8163,6.8825,6.9712,6.9806,6.9026,6.1707,5.6324,0.0,0.0,0.0,0.0,0.0,0.0,0.0,0.0,0.0,0.0,0.0,0.0,0.0,0.0,0.0,0.0,0.0,0.0,0.0,0.0,0.0,0.0,0.0,0.0,0.0,0.0,0.0,0.0,0.0,0.0,0.0,0.0,0.0,0.0,0.0,0.0,0.0,0.0,0.0,0.0,0.0,0.0,5.0487,4.7027,0.0,0.0,0.0,3.7984,3.5853,0.0,0.0,0.0,0.0,0.0,0.0,0.0,0.0,0.0,0.0,0.0,0.0,0.0,0.0,0.0,0.0,0.0,0.0,0.0,0.0,0.0,0.0,0.0,0.0,0.0,0.0,0.0,0.0,0.0,0.0,0.0,0.0,0.0,0.0,0.0,0.0,0.0,0.0,0.0,0.0,0.0,0.0,0.0,0.0,0.0,0.0,0.0,0.0,0.0,0.0,0.0,0.0,0.0,0.0,0.0,0.0,0.0,4.548,6.0361,6.8155,6.8677,7.0637,7.0903,6.9061,6.3075,5.7809,0.0,0.0,0.0,0.0,0.0,0.0,0.0,0.0,0.0,0.0,0.0,0.0,0.0,0.0,0.0,0.0,0.0,0.0,0.0,0.0,0.0,0.0,0.0,0.0,0.0,0.0,0.0,0.0,0.0,0.0,0.0,0.0,0.0,0.0,0.0,0.0,0.0,0.0,0.0,0.0,0.0,5.2303,5.3893,4.9454,4.566,0.0,0.0,4.1608,4.1423,4.1085,0.0,0.0,0.0,0.0,0.0,0.0,0.0,0.0,0.0,0.0,0.0,0.0,0.0,0.0,0.0,0.0,0.0,0.0,0.0,0.0,0.0,0.0,0.0,0.0,0.0,0.0,0.0,0.0,0.0,0.0,0.0,0.0,0.0,0.0,0.0,0.0,0.0,0.0,0.0,0.0,0.0,0.0,0.0,0.0,0.0,0.0,0.0,0.0,0.0,0.0,0.0,0.0,0.0,0.0,0.0,0.0,4.7882,6.1726,6.8664,6.8538,6.9356,6.9638,6.9249,6.5242,6.0283,0.0,0.0,0.0,0.0,0.0,0.0,0.0,0.0,0.0,0.0,0.0,0.0,0.0,0.0,0.0,0.0,0.0,0.0,0.0,0.0,0.0,0.0,0.0,0.0,0.0,0.0,0.0,0.0,0.0,0.0,0.0,0.0,0.0,0.0,0.0,0.0,0.0,0.0,0.0,0.0,0.0,5.3062,5.5055,5.1233,0.0,0.0,0.0,0.0,4.3838,4.3455,0.0,0.0,0.0,0.0,0.0,0.0,0.0,0.0,0.0,0.0,0.0,0.0,0.0,0.0,0.0,0.0,0.0,0.0,0.0,0.0,0.0,0.0,0.0,0.0,0.0,0.0,0.0,0.0,0.0,0.0,0.0,0.0,0.0,0.0,0.0,0.0,0.0,0.0,0.0,0.0,0.0,0.0,0.0,0.0,0.0,0.0,0.0,0.0,0.0,0.0,0.0,0.0,0.0,0.0,0.0,0.0,5.022,6.4165,7.0289,6.8181,6.9582,6.9992,6.9023,6.5947,6.1104,0.0,0.0,0.0,0.0,0.0,0.0,0.0,0.0,0.0,0.0,0.0,0.0,0.0,0.0,0.0,0.0,0.0,0.0,0.0,0.0,0.0,0.0,0.0,0.0,0.0,0.0,0.0,0.0,0.0,0.0,0.0,0.0,0.0,0.0,0.0,0.0,0.0,0.0,0.0,0.0,5.1882,5.1561,5.4034,0.0,0.0,0.0,0.0,0.0,0.0,4.5958,4.4914,0.0,0.0,0.0,0.0,0.0,0.0,0.0,0.0,0.0,0.0,0.0,0.0,0.0,0.0,0.0,0.0,0.0,0.0,0.0,0.0,0.0,0.0,0.0,0.0,0.0,0.0,0.0,0.0,0.0,0.0,0.0,0.0,0.0,0.0,0.0,0.0,0.0,0.0,0.0,0.0,0.0,0.0,0.0,0.0,0.0,0.0,0.0,0.0,0.0,0.0,0.0,0.0,0.0,0.0,0.0,5.1298,6.5499,7.0896,6.6999,6.9576,7.0224,6.8554,6.586,6.1022,5.4163,0.0,0.0,0.0,0.0,0.0,0.0,0.0,0.0,0.0,0.0,0.0,0.0,0.0,0.0,0.0,0.0,0.0,0.0,0.0,0.0,0.0,0.0,0.0,0.0,0.0,0.0,0.0,0.0,0.0,0.0,0.0,0.0,0.0,0.0,0.0,0.0,0.0,0.0,0.0,5.057,4.9932,0.0,0.0,0.0,0.0,0.0,0.0,0.0,0.0,4.6582,0.0,0.0,0.0,0.0,0.0,0.0,0.0,0.0,0.0,0.0,0.0,0.0,0.0,0.0,0.0,0.0,0.0,0.0,0.0,0.0,0.0,0.0,0.0,0.0,0.0,0.0,0.0,0.0,0.0,0.0,0.0,0.0,0.0,0.0,0.0,0.0,0.0,0.0,0.0,0.0,0.0,0.0,0.0,0.0,0.0,0.0,0.0,0.0,0.0,0.0,0.0,0.0,0.0,0.0,0.0,0.0,6.1829,6.6748,6.3626,6.6455,6.8187,6.8248,6.5325,6.0248,5.3033,0.0,0.0,0.0,0.0,0.0,0.0,0.0,0.0,0.0,0.0,0.0,0.0,0.0,0.0,0.0,0.0,0.0,0.0,0.0,0.0,0.0,0.0,0.0,0.0,0.0,0.0,0.0,0.0,0.0,0.0,0.0,0.0,0.0,0.0,0.0,0.0,0.0,0.0,5.0093,4.9775,0.0,0.0,0.0,0.0,0.0,0.0,0.0,0.0,4.7524,0.0,0.0,0.0,0.0,0.0,0.0,0.0,0.0,0.0,0.0,0.0,0.0,0.0,0.0,0.0,0.0,0.0,0.0,0.0,0.0,0.0,0.0,0.0,0.0,0.0,0.0,0.0,0.0,0.0,0.0,0.0,0.0,0.0,0.0,0.0,0.0,0.0,0.0,0.0,0.0,0.0,0.0,0.0,0.0,0.0,0.0,0.0,0.0,0.0,0.0,0.0,0.0,0.0,0.0,0.0,0.0,0.0,0.0,6.2191,6.1886,6.5517,6.74,6.718,6.256,5.7441,0.0,0.0,0.0,0.0,0.0,0.0,0.0,0.0,0.0,0.0,0.0,0.0,0.0,0.0,0.0,0.0,0.0,0.0,0.0,0.0,0.0,0.0,0.0,0.0,0.0,0.0,0.0,0.0,0.0,0.0,0.0,0.0,0.0,0.0,0.0,0.0,0.0,0.0,0.0,0.0,0.0,0.0,0.0,0.0,0.0,0.0,0.0,0.0,0.0,0.0,0.0,0.0,0.0,0.0,0.0,0.0,0.0,0.0,0.0,0.0,0.0,0.0,0.0,0.0,0.0,0.0,0.0,0.0,0.0,0.0,0.0,0.0,0.0,0.0,0.0,0.0,0.0,0.0,0.0,0.0,0.0,0.0,0.0,0.0,0.0,0.0,0.0,0.0,0.0,0.0,0.0,0.0,0.0,0.0,0.0,0.0,0.0,0.0,0.0,0.0,0.0,0.0,0.0,0.0,0.0,0.0,0.0,0.0,5.8368,6.009,6.4771,6.7041,6.655,6.0234,5.4961,0.0,0.0,0.0,0.0,0.0,0.0,0.0,0.0,0.0,0.0,0.0,0.0,0.0,0.0,0.0,0.0,0.0,0.0,0.0,0.0,0.0,0.0,0.0,0.0,0.0,0.0,0.0,0.0,0.0,0.0,0.0,0.0,0.0,0.0,0.0,0.0,0.0,0.0,0.0,0.0,0.0,0.0,0.0,0.0,0.0,0.0,0.0,0.0,5.0261,0.0,0.0,0.0,0.0,0.0,0.0,0.0,0.0,0.0,0.0,0.0,0.0,0.0,0.0,0.0,0.0,0.0,0.0,0.0,0.0,0.0,0.0,0.0,0.0,0.0,0.0,0.0,0.0,0.0,0.0,0.0,0.0,0.0,0.0,0.0,0.0,0.0,0.0,0.0,0.0,0.0,0.0,0.0,0.0,0.0,0.0,0.0,0.0,0.0,0.0,0.0,0.0,0.0,0.0,0.0,0.0,0.0,0.0,0.0,5.6698,5.6975,6.3215,6.6646,6.6621,6.0112,5.4499,0.0,0.0,0.0,0.0,0.0,0.0,0.0,0.0,0.0,0.0,0.0,0.0,0.0,0.0,0.0,0.0,0.0,0.0,0.0,0.0,0.0,0.0,0.0,0.0,0.0,0.0,0.0,0.0,0.0,0.0,0.0,0.0,0.0,0.0,0.0,0.0,0.0,0.0,0.0,0.0,0.0,0.0,0.0,0.0,0.0,0.0,0.0,0.0,0.0,0.0,0.0,0.0,0.0,0.0,0.0,0.0,0.0,0.0,0.0,0.0,0.0,0.0,0.0,0.0,0.0,0.0,0.0,0.0,0.0,0.0,0.0,0.0,0.0,0.0,0.0,0.0,0.0,0.0,0.0,0.0,0.0,0.0,0.0,0.0,0.0,0.0,0.0,0.0,0.0,0.0,0.0,0.0,0.0,0.0,0.0,0.0,0.0,0.0,0.0,0.0,0.0,0.0,0.0,0.0,0.0,0.0,0.0,0.0,5.5163,5.6439,6.0933,6.1908,5.904,5.5503,5.2026,0.0,0.0,0.0,0.0,0.0,0.0,0.0,0.0,0.0,0.0,0.0,0.0,0.0,0.0,0.0,0.0,0.0,0.0,0.0,0.0,0.0,0.0,0.0,0.0,0.0,0.0,0.0,0.0,0.0,0.0,0.0,0.0,0.0,0.0,0.0,0.0,0.0,0.0,0.0,0.0,0.0,0.0,0.0,0.0,0.0,0.0,0.0,0.0,0.0,0.0,0.0,0.0,0.0,0.0,0.0,0.0,0.0,0.0,0.0,0.0,0.0,0.0,0.0,0.0,0.0,0.0,0.0,0.0,0.0,0.0,0.0,0.0,0.0,0.0,0.0,0.0,0.0,0.0,0.0,0.0,0.0,0.0,0.0,0.0,0.0,0.0,0.0,0.0,0.0,0.0,0.0,0.0,0.0,0.0,0.0,0.0,0.0,0.0,0.0,0.0,0.0,0.0,0.0,0.0,0.0,0.0,0.0,0.0,0.0,5.5191,5.7403,5.635,5.1868,5.1709,5.0204,0.0,0.0,0.0,0.0,0.0,0.0,0.0,0.0,0.0,0.0,0.0,0.0,0.0,0.0,0.0,0.0,0.0,0.0,0.0,0.0,0.0,0.0,0.0,0.0,0.0,0.0,0.0,0.0,0.0,0.0,0.0,0.0,0.0,0.0,0.0,0.0,0.0,0.0,0.0,0.0,0.0,0.0,0.0,0.0,0.0,0.0,0.0,0.0,0.0,0.0,0.0,0.0,0.0,0.0,0.0,0.0,0.0,0.0,0.0,0.0,0.0,0.0,0.0,0.0,0.0,0.0,0.0,0.0,0.0,0.0,0.0,0.0,0.0,0.0,0.0,0.0,0.0,0.0,0.0,0.0,0.0,0.0,0.0,0.0,0.0,0.0,0.0,0.0,0.0,0.0,0.0,0.0,0.0,0.0,0.0,0.0,0.0,0.0,0.0,0.0,0.0,0.0,0.0,0.0,0.0,0.0,0.0,0.0,0.0,5.198,5.2158,5.0746,4.7617,5.0248,5.0232,0.0,0.0,0.0,0.0,0.0,0.0,0.0,0.0,0.0,0.0,0.0,0.0,0.0,0.0,0.0,0.0,0.0,0.0,0.0,0.0,0.0,0.0,0.0,0.0,0.0,0.0,0.0,0.0,0.0,0.0,0.0,0.0,0.0,0.0,0.0,0.0,0.0,0.0,0.0,0.0,0.0,0.0,0.0,0.0,0.0,0.0,0.0,0.0,0.0,0.0,0.0,0.0,0.0,0.0,0.0,0.0,0.0,0.0,0.0,0.0,0.0,0.0,0.0,0.0,0.0,0.0,0.0,0.0,0.0,0.0,0.0,0.0,0.0,0.0,0.0,0.0,0.0,0.0,0.0,0.0,0.0,0.0,0.0,0.0,0.0,0.0,0.0,0.0,0.0,0.0,0.0,0.0,0.0,0.0,0.0,0.0,0.0,0.0,0.0,0.0,0.0,0.0,0.0,0.0,0.0,0.0,0.0,0.0,0.0,5.1659,5.173,5.065,4.8573,4.9621,4.9233,4.7128,0.0,0.0,0.0,0.0,0.0,0.0,0.0,0.0,0.0,0.0,0.0,0.0,0.0,0.0,0.0,0.0,0.0,0.0,0.0,0.0,0.0,0.0,0.0,0.0,0.0,0.0,0.0,0.0,0.0,0.0,0.0,0.0,0.0,0.0,0.0,0.0,0.0,0.0,0.0,0.0,0.0,0.0,0.0,0.0,0.0,0.0,0.0,0.0,0.0,0.0,0.0,0.0,0.0,0.0,0.0,0.0,0.0,0.0,0.0,0.0,0.0,0.0,0.0,0.0,0.0,0.0,0.0,0.0,0.0,0.0,0.0,0.0,0.0,0.0,0.0,0.0,0.0,0.0,0.0,0.0,0.0,0.0,0.0,0.0,0.0,0.0,0.0,0.0,0.0,0.0,0.0,0.0,0.0,0.0,0.0,0.0,0.0,0.0,0.0,0.0,0.0,0.0,0.0,0.0,0.0,0.0,0.0,0.0,5.1659,5.173,5.1664,5.1499,5.0132,4.8626,0.0,0.0,0.0,0.0,0.0,0.0,0.0,0.0,0.0,0.0,0.0,0.0,0.0,0.0,0.0,0.0,0.0,0.0,0.0,0.0,0.0,0.0,0.0,0.0,0.0,0.0,0.0,0.0,0.0,0.0,0.0,0.0,0.0,0.0,0.0,0.0,0.0,0.0,0.0,0.0,0.0,0.0,0.0,0.0,0.0,0.0,0.0,0.0,0.0,0.0,0.0,0.0,0.0,0.0,0.0,0.0,0.0,0.0,0.0,0.0,0.0,0.0,0.0,0.0,0.0,0.0,0.0,0.0,0.0,0.0,0.0,0.0,0.0,0.0,0.0,0.0,0.0,0.0,0.0,0.0,0.0,0.0,0.0,0.0,0.0,0.0,0.0,0.0,0.0,0.0,0.0,0.0,0.0,0.0,0.0,0.0,0.0,0.0,0.0,0.0,0.0,0.0,0.0,0.0,0.0,0.0,0.0,0.0,5.1695,5.1766,5.1837,5.3175,5.6017,5.1825,4.873,0.0,0.0,0.0,0.0,0.0,0.0,0.0,0.0,0.0,0.0,0.0,0.0,0.0,0.0,0.0,0.0,0.0,0.0,0.0,0.0,0.0,0.0,0.0,0.0,0.0,0.0,0.0,0.0,0.0,0.0,0.0,0.0,0.0,0.0,0.0,0.0,0.0,0.0,0.0,0.0,0.0,0.0,0.0,0.0,0.0,0.0,0.0,0.0,0.0,0.0,0.0,0.0,0.0,0.0,0.0,0.0,0.0,0.0,0.0,0.0,0.0,0.0,0.0,0.0,0.0,0.0,0.0,0.0,0.0,0.0,0.0,0.0,0.0,0.0,0.0,0.0,0.0,0.0,0.0,0.0,0.0,0.0,0.0,0.0,0.0,0.0,0.0,0.0,0.0,0.0,0.0,0.0,0.0,0.0,0.0,0.0,0.0,0.0,0.0,0.0,0.0,0.0,0.0,0.0,0.0,0.0,0.0,0.0,0.0,5.487,0.0,5.4806,0.0,5.3313,5.1302,0.0,0.0,0.0,0.0,0.0,0.0,0.0,0.0,0.0,0.0,0.0,0.0,0.0,0.0,0.0,0.0,0.0,0.0,0.0,0.0,0.0,0.0,0.0,0.0,0.0,0.0,0.0,0.0,0.0,0.0,0.0,0.0,0.0,0.0,0.0,0.0,0.0,0.0,0.0,0.0,0.0,0.0,0.0,0.0,0.0,0.0,0.0,0.0,0.0,0.0,0.0,0.0,0.0,0.0,0.0,0.0,0.0,0.0,0.0,0.0,0.0,0.0,0.0,0.0,0.0,0.0,0.0,0.0,0.0,0.0,0.0,0.0,0.0,0.0,0.0,0.0,0.0,0.0,0.0,0.0,0.0,0.0,0.0,0.0,0.0,0.0,0.0,0.0,0.0,0.0,0.0,0.0,0.0,0.0,0.0,0.0,0.0,0.0,0.0,0.0,0.0,0.0,0.0,0.0,0.0,0.0,0.0,0.0,0.0,5.6323,5.6323,5.5904,5.4905,5.4335,5.3015,0.0,0.0,0.0,0.0,0.0,0.0,0.0,0.0,0.0,0.0,0.0,0.0,0.0,0.0,0.0,0.0,0.0,0.0,0.0,0.0,0.0,0.0,0.0,0.0,0.0,0.0,0.0,0.0,0.0,0.0,0.0,0.0,0.0,0.0,0.0,0.0,0.0,0.0,0.0,0.0,0.0,0.0,0.0,0.0,0.0,0.0,0.0,0.0,0.0,0.0,0.0,0.0,0.0,0.0,0.0,0.0,0.0,0.0,0.0,0.0,0.0,0.0,0.0,0.0,0.0,0.0,0.0,0.0,0.0,0.0,0.0,0.0,0.0,0.0,0.0,0.0,0.0,0.0,0.0,0.0,0.0,0.0,0.0,0.0,0.0,0.0,0.0,0.0,0.0,0.0,0.0,0.0,0.0,0.0,0.0,0.0,0.0,0.0,0.0,0.0,0.0,0.0,0.0,0.0,0.0,0.0,0.0,0.0,0.0,5.6323,5.6323,5.6323,5.6288,5.4941,5.3871,0.0,0.0,0.0,0.0,0.0,0.0,0.0,0.0,0.0,0.0,0.0,0.0,0.0,0.0,0.0,0.0,0.0,0.0,0.0,0.0,0.0,0.0,0.0,0.0,0.0,0.0,0.0,0.0,0.0,0.0,0.0,0.0,0.0,0.0,0.0,0.0,0.0,0.0,0.0,0.0,0.0,0.0,0.0,0.0,0.0,0.0,0.0,0.0,0.0,0.0,0.0,0.0,0.0,0.0,0.0,0.0,0.0,0.0,0.0,0.0,0.0,0.0,0.0,0.0,0.0,0.0,0.0,0.0,0.0,0.0,0.0,0.0,0.0,0.0,0.0,0.0,0.0,0.0,0.0,0.0,0.0,0.0,0.0,0.0,0.0,0.0,0.0,0.0,0.0,0.0,0.0,0.0,0.0,0.0,0.0,0.0,0.0,0.0,0.0,0.0,0.0,0.0,0.0,0.0,0.0,0.0,0.0,0.0,0.0,0.0,5.6323,5.6323,5.6368,5.6329,5.5638,5.4303,0.0,0.0,0.0,0.0,0.0,0.0,0.0,0.0,0.0,0.0,0.0,0.0,0.0,0.0,0.0,0.0,0.0,0.0,0.0,0.0,0.0,0.0,0.0,0.0,0.0,0.0,0.0,0.0,0.0,0.0,0.0,0.0,0.0,0.0,0.0,0.0,0.0,0.0,0.0,0.0,0.0,0.0,0.0,0.0,0.0,0.0,0.0,0.0,0.0,0.0,0.0,0.0,0.0,0.0,0.0,0.0,0.0,0.0,0.0,0.0,0.0,0.0,0.0,0.0,0.0,0.0,0.0,0.0,0.0,0.0,0.0,0.0,0.0,0.0,0.0,0.0,0.0,0.0,0.0,0.0,0.0,0.0,0.0,0.0,0.0,0.0,0.0,0.0,0.0,0.0,0.0,0.0,0.0,0.0,0.0,0.0,0.0,0.0,0.0,0.0,0.0,0.0,0.0,0.0,0.0,0.0,0.0,0.0,0.0,0.0,5.6323,5.6323,5.6675,5.6464,0.0,0.0,0.0,0.0,0.0,0.0,0.0,0.0,0.0,0.0,0.0,0.0,0.0,0.0,0.0,0.0,0.0,0.0,0.0,0.0,0.0,0.0,0.0,0.0,0.0,0.0,0.0,0.0,0.0,0.0,0.0,0.0,0.0,0.0,0.0,0.0,0.0,0.0,0.0,0.0,0.0,0.0,0.0,0.0,0.0,0.0,0.0,0.0,0.0,0.0,0.0,0.0,0.0,0.0,0.0,0.0,0.0,0.0,0.0,0.0,0.0,0.0,0.0,0.0,0.0,0.0,0.0,0.0,0.0,0.0,0.0,0.0,0.0,0.0,0.0,0.0,0.0,0.0,0.0,0.0,0.0,0.0,0.0,0.0,0.0,0.0,0.0,0.0,0.0,0.0,0.0,0.0,0.0,0.0,0.0,0.0,0.0,0.0,0.0,0.0,0.0,0.0,0.0,0.0,0.0,0.0,0.0,0.0,0.0,0.0,0.0,5.6323,5.6323,5.6404,0.0,5.7022,0.0,0.0,0.0,0.0,0.0,0.0,0.0,0.0,0.0,0.0,0.0,0.0,0.0,0.0,0.0,0.0,0.0,0.0,0.0,0.0,0.0,0.0,0.0,0.0,0.0,0.0,0.0,0.0,0.0,0.0,0.0,0.0,0.0,0.0,0.0,0.0,0.0,0.0,0.0,0.0,0.0,0.0,0.0,0.0,0.0,0.0,0.0,0.0,0.0,0.0,0.0,0.0,0.0,0.0,0.0,0.0,0.0,0.0,0.0,0.0,0.0,0.0,0.0,0.0,0.0,0.0,0.0,0.0,0.0,0.0,0.0,0.0,0.0,0.0,0.0,0.0,0.0,0.0,0.0,0.0,0.0,0.0,0.0,0.0,0.0,0.0,0.0,0.0,0.0,0.0,0.0,0.0,0.0,0.0,0.0,0.0,0.0,0.0,0.0,0.0,0.0,0.0,0.0,0.0,0.0,0.0,0.0,0.0,0.0,0.0,0.0,0.0,5.6323,5.6632,5.7098,0.0,0.0,0.0,0.0,0.0,0.0,0.0,0.0,0.0,0.0,0.0,0.0,0.0,0.0,0.0,0.0,0.0,0.0,0.0,0.0,0.0,0.0,0.0,0.0,0.0,0.0,0.0,0.0,0.0,0.0,0.0,0.0,0.0,0.0,0.0,0.0,0.0,0.0,0.0,0.0,0.0,0.0,0.0,0.0,0.0,0.0,0.0,0.0,0.0,0.0,0.0,0.0,0.0,0.0,0.0,0.0,0.0,0.0,0.0,0.0,0.0,0.0,0.0,0.0,0.0,0.0,0.0,0.0,0.0,0.0,0.0,0.0,0.0,0.0,0.0,0.0,0.0,0.0,0.0,0.0,0.0,0.0,0.0,0.0,0.0,0.0,0.0,0.0,0.0,0.0,0.0,0.0,0.0,0.0,0.0,0.0,0.0,0.0,0.0,0.0,0.0,0.0,0.0,0.0,0.0,0.0,0.0,0.0,0.0,0.0,5.6323,5.6323,5.6323,5.6501,5.6802,0.0,0.0,0.0,0.0,0.0,0.0,0.0,0.0,0.0,0.0,0.0,0.0,0.0,0.0,0.0,0.0,0.0,0.0,0.0,0.0,0.0,0.0,0.0,0.0,0.0,0.0,0.0,0.0,0.0,0.0,0.0,0.0,0.0,0.0,0.0,0.0,0.0,0.0,0.0,0.0,0.0,0.0,0.0,0.0,0.0,0.0,0.0,0.0,0.0,0.0,0.0,0.0,0.0,0.0,0.0,0.0,0.0,0.0,0.0,0.0,0.0,0.0,0.0,0.0,0.0,0.0,0.0,0.0,0.0,0.0,0.0,0.0,0.0,0.0,0.0,0.0,0.0,0.0,0.0,0.0,0.0,0.0,0.0,0.0,0.0,0.0,0.0,0.0,0.0,0.0,0.0,0.0,0.0,0.0,0.0,0.0,0.0,0.0,0.0,0.0,0.0,0.0,0.0,0.0,0.0,0.0,0.0,0.0,0.0,0.0,0.0,0.0,0.0,0.0,5.6368,0.0,0.0,0.0,0.0,0.0,0.0,0.0,0.0,0.0,0.0,0.0,0.0,0.0,0.0,0.0,0.0,0.0,0.0,0.0,0.0,0.0,0.0,0.0,0.0,0.0,0.0,0.0,0.0,0.0,0.0,0.0,0.0,0.0,0.0,0.0,0.0,0.0,0.0,0.0,0.0,0.0,0.0,0.0,0.0,0.0,0.0,0.0,0.0,0.0,0.0,0.0,0.0,0.0,0.0,0.0,0.0,0.0,0.0,0.0,0.0,0.0,0.0,0.0,0.0,0.0,0.0,0.0,0.0,0.0,0.0,0.0,0.0,0.0,0.0,0.0,0.0,0.0,0.0,0.0,0.0,0.0,0.0,0.0,0.0,0.0,0.0,0.0,0.0,0.0,0.0,0.0,0.0,0.0,0.0,0.0,0.0,0.0,0.0,0.0,0.0,0.0,0.0,0.0,0.0,0.0,0.0,0.0,0.0,0.0,0.0,0.0,0.0,0.0,0.0,0.0,0.0,0.0,0.0,0.0,0.0,0.0,0.0,0.0,0.0,0.0,0.0,0.0,0.0,0.0,0.0,0.0,0.0,0.0,0.0,0.0,0.0,0.0,0.0,0.0,0.0,0.0,0.0,0.0,0.0,0.0,0.0,0.0,0.0,0.0,0.0,0.0,0.0,0.0,0.0,0.0,0.0,0.0,0.0,0.0,0.0,0.0,0.0,0.0,0.0,0.0,0.0,0.0,0.0,0.0,0.0,0.0,0.0,0.0,0.0,0.0,0.0,0.0,0.0,0.0,0.0,0.0,0.0,0.0,0.0,0.0,0.0,0.0,0.0,0.0,0.0,0.0,0.0,0.0,0.0,0.0,0.0,0.0,0.0,0.0,0.0,0.0,0.0,0.0,0.0,0.0,0.0,0.0,0.0,0.0,0.0,0.0,0.0,0.0,0.0,0.0,0.0,0.0,0.0,0.0,0.0,0.0,0.0,0.0,0.0,0.0,0.0,0.0,0.0,0.0,0.0,0.0,0.0,0.0,0.0,0.0,0.0,0.0,0.0,0.0,0.0,0.0,0.0,0.0,0.0,0.0,0.0,0.0,0.0,0.0,0.0,0.0,0.0,0.0,0.0,0.0,0.0,0.0,0.0,0.0,0.0,0.0,0.0,0.0,0.0,0.0,0.0,0.0,0.0,0.0,0.0,0.0,0.0,0.0,0.0,0.0,0.0,0.0,0.0,0.0,0.0,0.0,0.0,0.0,0.0,0.0,0.0,0.0,0.0,0.0,0.0,0.0,0.0,0.0,0.0,0.0,0.0,0.0,0.0,0.0,0.0,0.0,0.0,0.0,0.0,0.0,0.0,0.0,0.0,0.0,0.0,0.0,0.0,0.0,0.0,0.0,0.0,0.0,0.0,0.0,0.0,0.0,0.0,0.0,0.0,0.0,0.0,0.0,0.0,0.0,0.0,0.0,0.0,0.0,0.0,0.0,0.0,0.0,0.0,0.0,0.0,0.0,0.0,0.0,0.0,0.0,0.0,0.0,0.0,0.0,0.0,0.0,0.0,0.0,0.0,0.0,0.0,0.0,0.0,0.0,0.0,0.0,0.0,0.0,0.0,0.0,0.0,0.0,0.0,0.0,0.0,0.0,0.0,0.0,0.0,0.0,0.0,0.0,0.0,0.0,0.0,0.0,0.0,0.0,0.0,0.0,0.0,0.0,0.0,0.0,0.0,0.0,0.0,0.0,0.0,0.0,0.0,0.0,0.0,0.0,0.0,0.0,0.0,0.0,0.0,0.0,0.0,0.0,0.0,0.0,0.0,0.0,0.0,0.0,0.0,0.0,0.0,0.0,0.0,0.0,0.0,0.0,0.0,0.0,0.0,0.0,0.0,0.0,0.0,0.0,0.0,0.0,0.0,0.0,0.0,0.0,0.0,0.0,0.0,0.0,0.0,0.0,0.0,0.0,0.0,0.0,0.0,0.0,0.0,0.0,0.0,0.0,0.0,0.0,0.0,0.0,0.0,0.0,0.0,0.0,0.0,0.0,0.0,0.0,0.0,0.0,0.0,0.0,0.0,0.0,0.0,0.0,0.0,0.0,0.0,0.0,0.0,0.0,0.0,0.0,0.0,0.0,0.0,0.0,0.0,0.0,0.0,0.0,0.0,0.0,0.0,0.0,0.0,0.0,0.0,0.0,0.0,0.0,0.0,0.0,0.0,0.0,0.0,0.0,0.0,0.0,0.0,0.0,0.0,0.0,0.0,0.0,0.0,0.0,0.0,0.0,0.0,0.0,0.0,0.0,0.0,0.0,0.0,0.0,0.0,0.0,0.0,0.0,0.0,0.0,0.0,0.0,0.0,0.0,0.0,0.0,0.0,0.0,0.0,0.0,0.0,0.0,0.0,0.0,0.0,0.0,0.0,0.0,0.0,0.0,0.0,0.0,0.0,0.0,0.0,0.0,0.0,0.0,0.0,0.0,0.0,0.0,0.0,0.0,0.0,0.0,0.0,0.0,0.0,0.0,0.0,0.0,0.0,0.0,0.0,0.0,0.0,0.0,0.0,0.0,0.0,0.0,0.0,0.0,0.0,0.0,0.0,0.0,0.0,0.0,0.0,0.0,0.0,0.0,0.0,0.0,0.0,0.0,0.0,0.0,0.0,0.0,0.0,0.0,0.0,0.0,0.0,0.0,0.0,0.0,0.0,0.0,0.0,0.0,0.0,0.0,0.0,0.0,0.0,0.0,0.0,0.0,0.0,0.0,0.0,0.0,0.0,0.0,0.0,0.0,0.0,0.0,0.0,0.0,0.0,0.0,0.0,0.0,0.0,0.0,0.0,0.0,0.0,0.0,0.0,0.0,0.0,0.0,0.0,0.0,0.0,0.0,0.0,0.0,0.0,0.0,0.0,0.0,0.0,0.0,0.0,0.0,0.0,0.0,0.0,0.0,0.0,0.0,0.0,0.0,0.0,0.0,0.0,0.0,0.0,0.0,0.0,0.0,0.0,0.0,0.0,0.0,0.0,0.0,0.0,0.0,0.0,0.0,0.0,0.0,0.0,0.0,0.0,0.0,0.0,0.0,0.0,0.0,0.0,0.0,0.0,0.0,0.0,0.0,0.0,0.0,0.0,0.0,0.0,0.0,0.0,0.0,0.0,0.0,0.0,0.0,0.0,0.0,0.0,0.0,0.0,0.0,0.0,0.0,0.0,0.0,0.0,0.0,0.0,0.0,0.0,0.0,0.0,0.0,0.0,0.0,0.0,0.0,0.0,0.0,0.0,0.0,0.0,0.0,0.0,0.0,0.0,0.0,0.0,0.0,0.0,0.0,0.0,0.0,0.0,0.0,0.0,0.0,0.0,0.0,0.0,0.0,0.0,0.0,0.0,0.0,0.0,0.0,0.0,0.0,0.0,0.0,0.0,0.0,0.0,0.0,0.0,0.0,0.0,0.0,0.0,0.0,0.0,0.0,0.0,0.0,0.0,0.0,0.0,0.0,0.0,0.0,0.0,0.0,0.0,0.0,0.0,0.0,0.0,0.0,0.0,0.0,0.0,0.0,0.0,0.0,0.0,0.0,0.0,0.0,0.0,0.0,0.0,0.0,0.0,0.0,0.0,0.0,0.0,0.0,0.0,0.0,0.0,0.0,0.0,0.0,0.0,0.0,0.0,0.0,0.0,0.0,0.0,0.0,0.0,0.0,0.0,0.0,0.0,0.0,0.0,0.0,0.0,0.0,0.0,0.0,0.0,0.0,0.0,0.0,0.0,0.0,0.0,0.0,0.0,0.0,0.0,0.0,0.0,0.0,0.0,0.0,0.0,0.0,0.0,0.0,0.0,0.0,0.0,0.0,0.0,0.0,0.0,0.0,0.0,0.0,0.0,0.0,0.0,0.0,0.0,0.0,0.0,0.0,0.0,0.0,0.0,0.0,0.0,0.0,0.0,0.0,0.0,0.0,0.0,0.0,0.0,0.0,0.0,0.0,0.0,0.0,0.0,0.0,0.0,0.0,0.0,0.0,0.0,0.0,0.0,0.0,0.0,0.0,0.0,0.0,0.0,0.0,0.0,0.0,0.0,0.0,0.0,0.0,0.0,0.0,0.0,0.0,0.0,0.0,0.0,0.0,0.0,0.0,0.0,0.0,0.0,0.0,0.0,0.0,0.0,0.0,0.0,0.0,0.0,0.0,0.0,0.0,0.0,0.0,0.0,0.0,0.0,0.0,0.0,0.0,0.0,0.0,0.0,0.0,0.0,0.0,0.0,0.0,0.0,0.0,0.0,0.0,0.0,0.0,0.0,0.0,0.0,0.0,0.0,0.0,0.0,0.0,0.0,0.0,0.0,0.0,0.0,0.0,0.0,0.0,0.0,0.0,0.0]}],[{"header":{"parameterUnit":"kt","parameterCategory":2,"dx":1,"dy":1,"la1":29.587661999999998,"la2":31.0,"lo1":-88.76705300000003,"lo2":-86.6583820000003,"nx":115,"ny":88,"refTime":"2022-09-18T12:00:00:Z","depth":0,"parameterNumber":2,"parameterNumberName":"V-component_of_WINDS"},"data":[6.8584,6.6304,6.605,6.5291,6.4508,6.4389,6.4505,6.4769,6.5266,6.5176,6.5205,6.4914,6.4391,6.4391,6.4361,6.3925,6.2849,6.282,6.1921,6.1311,6.1689,6.1457,6.1457,6.2035,6.134,6.0716,5.955,5.7433,5.6945,5.4454,5.2406,5.206,5.1927,5.1552,5.1552,5.1552,5.1552,5.1552,5.1552,5.1552,5.1552,5.1552,5.1552,5.1552,5.1552,5.1552,5.1552,5.1552,5.1552,5.1552,5.1552,5.1552,5.1552,5.1552,5.1552,5.1552,5.1552,5.1552,5.1552,5.1552,5.1552,5.1552,5.1552,5.1552,5.1552,5.1419,5.0901,4.9876,4.9623,4.9816,4.8596,4.7737,4.6795,4.5156,4.4458,4.4799,4.4989,4.4989,4.48,4.48,4.463,4.427,4.427,4.2653,4.052,3.8766,3.6668,3.5263,3.33,3.2401,3.1682,3.113,3.0761,3.0761,3.0761,2.9059,2.7548,2.6031,2.4153,2.1323,1.886,1.6769,1.6004,1.5625,1.5625,1.5631,1.5451,1.5464,1.5076,1.3705,1.4354,0.0,0.0,0.0,0.0,6.506,6.3557,6.2514,6.1857,6.1718,6.178,6.2416,6.3547,6.5386,6.5766,6.48,6.2733,6.1889,6.1773,6.1773,6.1657,6.1657,6.1747,6.1602,6.1195,6.1166,6.1166,6.1166,6.1166,6.1166,6.0799,6.0429,5.9566,5.819,5.6226,5.44,5.3425,5.2562,5.1552,5.1552,5.1552,5.1552,5.1552,5.1552,5.1552,5.1552,5.1552,5.1552,5.1552,5.1552,5.1552,5.1552,5.1552,5.1552,5.1552,5.1552,5.1552,5.1552,5.1552,5.1552,5.1552,5.1552,5.1552,5.1552,5.1552,5.1552,5.1552,5.1552,5.1552,5.1552,5.1345,5.1076,5.0509,5.0253,4.9779,4.7932,4.6731,4.573,4.4754,4.4812,4.497,4.4989,4.4989,4.48,4.463,4.427,4.3549,4.2825,4.1927,4.0345,3.859,3.7203,3.5788,3.4375,3.2388,3.1314,3.113,3.0761,3.0761,3.0761,2.9442,2.7746,2.5855,2.3021,2.0181,1.7716,1.6576,1.5818,1.5625,1.5631,1.5638,1.5457,1.549,1.2906,1.0933,0.0,0.0,0.0,0.0,0.0,6.4601,6.4015,6.2694,6.1792,6.1011,6.006,6.0584,6.201,6.3088,6.3789,6.3748,6.2199,6.1195,6.1195,6.1166,6.1253,6.1253,6.1166,6.1166,6.1166,6.1166,6.1166,6.1166,6.1166,6.1166,6.1166,6.1166,6.0429,5.8692,5.723,5.6103,5.5133,5.3812,5.2799,5.2668,5.1927,5.1552,5.1552,5.1552,5.206,5.293,5.206,5.1552,5.1552,5.1552,5.1552,5.1552,5.1552,5.1552,5.1552,5.1552,5.1552,5.1794,5.1794,5.1686,5.1552,5.1552,5.1552,5.1552,5.1552,5.1552,5.1552,5.1552,5.1552,5.1552,5.1394,5.1124,5.2606,5.2351,5.2095,5.0354,4.8513,4.7649,4.5871,4.5508,4.514,4.4989,4.48,4.4441,4.4251,4.353,4.2653,4.1234,4.0345,3.8766,3.7009,3.4264,3.2449,3.2292,3.1301,3.113,3.0946,3.0761,3.0761,3.0195,2.9059,2.7373,2.4728,2.1893,1.9234,1.6962,1.6004,1.5631,1.5638,1.5451,1.5257,1.5289,1.5529,1.3545,0.0,0.0,0.0,0.0,0.0,0.0,6.3723,6.3363,6.2408,6.1298,6.0086,5.9294,5.9876,6.1117,6.1765,6.26,6.2593,6.1836,6.1166,6.1166,6.1166,6.1166,6.1166,6.1166,6.1166,6.1166,6.1166,6.1166,6.1166,6.1166,6.1166,6.1166,6.1054,6.0656,5.9334,5.7592,5.6226,5.5509,5.3915,5.2799,5.2668,5.2035,5.1902,5.2381,5.1976,5.2017,5.2649,5.1927,5.1794,5.2035,5.1819,5.1819,5.2668,5.2431,5.1927,5.2431,5.2324,5.2324,5.2537,5.2668,5.2562,5.2192,5.2192,5.1952,5.1686,5.1552,5.1552,5.1552,5.1552,5.1552,5.1565,5.1491,5.2316,5.3987,5.4746,5.4555,5.3767,5.2038,5.0405,4.8121,4.6245,4.561,4.4989,4.4441,4.4062,4.353,4.2635,4.1407,3.9645,3.8252,3.6668,3.459,3.2254,3.0801,3.1038,3.113,3.0946,3.0761,3.0577,3.001,2.9245,2.7932,2.5667,2.321,2.1133,1.8668,1.6004,1.5631,1.5638,1.5457,1.4676,1.3688,1.3317,0.0,0.0,0.0,0.0,0.0,0.0,0.0,0.0,6.0413,5.9497,5.9237,5.8896,5.7871,5.9675,6.0768,6.1514,6.3554,6.3717,6.1998,6.1391,6.1502,6.1585,6.1473,6.1473,6.1166,6.1166,6.1166,6.1166,6.1166,6.1166,6.1166,6.1166,6.1166,6.1166,6.1166,6.1025,6.0085,5.872,5.6499,5.4017,5.3035,5.2668,5.2824,5.206,5.2274,5.2909,5.2611,5.1846,5.1944,5.1927,5.206,5.2905,5.2668,5.2431,5.4017,5.3915,5.2799,5.4299,5.4781,5.4171,5.4654,5.5007,5.4273,5.3786,5.293,5.2431,5.1819,5.1552,5.1552,5.165,5.1443,5.1565,5.1991,5.2131,5.3506,5.5131,5.5545,5.5436,5.4282,5.262,5.0137,4.7629,4.6147,4.5291,4.4989,4.48,4.4441,4.4081,4.3187,4.106,3.9487,3.7381,3.5788,3.4194,3.2305,3.1025,3.0761,3.0761,3.0577,3.0195,2.9813,2.9059,2.8107,2.6229,2.3965,2.2273,2.038,1.8108,1.6197,1.5631,1.5451,1.4082,1.2717,1.1735,0.0,0.0,0.0,0.0,0.0,0.0,0.0,0.0,0.0,6.0366,6.0022,5.9944,5.9707,5.9467,6.0209,6.1852,6.319,6.297,6.3955,6.4621,6.3986,6.3282,6.2514,6.2436,6.1998,6.1279,6.1166,6.1166,6.1166,6.1166,6.1166,6.1166,6.1166,6.1166,6.1166,6.1166,6.1166,6.0912,5.9566,5.8955,5.7592,5.5509,5.4907,5.3786,5.2799,5.314,5.353,5.3351,5.2502,5.2207,5.2167,5.206,5.2035,5.1952,5.2084,5.2799,5.2431,5.206,5.2799,5.3035,5.293,5.3295,5.3657,5.306,5.3111,5.2718,5.2349,5.2257,5.1942,5.1944,5.2151,5.1928,5.2113,5.2511,5.3457,5.4863,5.5861,5.5982,5.5829,5.4282,5.2687,4.9666,4.6893,4.601,4.5121,4.4951,4.4951,4.48,4.463,4.3206,4.1251,3.8959,3.6847,3.5083,3.33,3.1852,3.0946,3.0761,3.0761,3.0577,3.001,2.9245,2.8305,2.6042,2.4163,2.2462,2.0753,1.9243,1.7916,1.639,1.5638,1.5464,1.3699,1.0952,0.0,0.0,0.0,0.0,0.0,0.0,0.0,0.0,0.0,0.0,6.0629,6.0629,6.0629,6.0629,6.0618,6.0642,6.2043,6.4077,6.3199,6.3726,6.6644,6.5674,6.4296,6.3418,6.3343,6.2406,6.1696,6.1166,6.1279,6.1166,6.1166,6.1166,6.1166,6.1166,6.1166,6.1166,6.1166,6.1166,6.1166,6.0429,6.02,5.9913,5.6866,5.6253,5.5107,5.3555,5.4094,5.4475,5.4043,5.394,5.4043,5.3165,5.3118,5.2955,5.2762,5.2925,5.3106,5.2762,5.2812,5.2925,5.2668,5.2668,5.2799,5.3425,5.3494,5.3413,5.2572,5.2829,5.3659,5.3044,5.2962,5.3576,5.3094,5.3225,5.4372,5.5541,5.6299,5.669,5.6835,5.6856,5.5906,5.3831,5.1339,4.9321,4.8182,4.6855,4.4927,4.4835,4.4989,4.4441,4.2997,4.0694,3.7721,3.5968,3.4903,3.2753,3.1314,3.0946,3.0761,3.0761,3.0392,2.964,2.8874,2.7932,2.5667,2.2841,2.0943,1.9234,1.8292,1.7154,1.6011,1.5451,1.547,1.2717,0.7618,0.0,0.0,0.0,0.0,0.0,0.0,0.0,0.0,0.0,0.0,6.0629,6.0629,6.0629,6.0629,6.0629,6.0695,6.1539,6.3047,6.4488,6.531,6.5545,6.5773,6.5109,6.3839,6.3449,6.2731,6.1696,6.1279,6.1279,6.1166,6.1166,6.1166,6.1166,6.1166,6.1166,6.1166,6.1166,6.1166,6.1054,6.0429,5.8983,5.7499,5.6988,5.7095,5.6876,5.5753,5.4992,5.538,5.5332,5.6048,5.5947,5.4892,5.5404,5.574,5.5071,5.4968,5.5047,5.4733,5.4838,5.4841,5.494,5.5217,5.6139,5.7768,5.7871,5.7126,5.5021,5.6476,5.7469,5.466,5.4763,5.6575,5.5557,5.6114,5.7201,5.806,5.8626,5.868,5.8313,5.7966,5.7209,5.4892,5.28,5.2179,5.1025,4.8409,4.604,4.487,4.4856,4.427,4.2825,4.1042,3.8413,3.6132,3.5263,3.33,3.1865,3.1314,3.0761,3.0761,3.0195,2.9257,2.756,2.6802,2.4916,2.1893,1.9808,1.7532,1.6576,1.6583,1.6025,1.5464,1.4288,1.1142,0.488,0.0,0.0,0.0,0.0,0.0,0.0,0.0,0.0,0.0,-1.1725,6.0629,6.0629,6.0629,6.0629,6.0673,6.1172,6.1319,6.2173,6.5961,6.7843,6.7823,6.777,6.7086,6.5871,6.5008,6.3913,6.2623,6.1807,6.1279,6.1166,6.1279,6.1391,6.1391,6.1166,6.1391,6.1166,6.1166,6.1166,6.1166,6.0685,5.9942,5.8837,5.7527,5.8225,5.9403,5.9306,5.8194,5.6944,5.7558,5.8401,5.7647,5.765,5.8583,5.9237,5.8829,5.7599,5.8074,5.8047,5.7679,5.7338,5.7574,5.8482,5.8739,5.9349,5.9511,5.9601,5.841,5.8963,5.8963,5.6419,5.7408,6.0284,6.04,6.0269,6.0343,6.0705,6.108,6.0779,6.0294,5.9127,5.7419,5.5541,5.4762,5.6255,5.4158,5.0167,4.7695,4.5417,4.4913,4.497,4.3891,4.2463,4.052,3.8075,3.5263,3.3846,3.2401,3.1498,3.0761,3.038,2.9813,2.6989,2.4728,2.321,2.1323,1.9999,1.8484,1.6004,1.5625,1.5811,1.5451,1.5464,1.31,1.0355,0.5855,0.1368,-0.2744,0.0,0.0,0.0,-0.3917,-0.5863,-0.9779,-1.2512,-1.4851,6.1497,6.1464,6.1497,6.1352,6.1198,6.2149,6.2277,6.2495,6.6203,6.8692,6.9112,6.9276,6.856,6.7428,6.6163,6.5278,6.412,6.2809,6.2593,6.2671,6.2809,6.2406,6.2027,6.1998,6.1807,6.1391,6.1166,6.1166,6.1166,6.1054,6.1166,6.1257,5.9955,6.017,6.1808,6.228,6.1711,5.9705,5.998,6.04,5.9235,5.9024,5.9369,6.0326,5.9847,5.9071,5.84,5.9926,5.9608,5.8786,5.9155,5.9808,6.004,6.0966,6.0984,6.0797,6.243,6.2551,6.183,6.0726,6.0326,6.2145,6.3471,6.2252,6.2418,6.3007,6.2807,6.2126,6.0897,5.9592,5.8141,5.6458,5.6118,5.7567,5.5676,5.1739,4.8444,4.6205,4.5214,4.5252,4.372,4.1927,3.9453,3.6116,3.4542,3.3118,3.2035,3.113,3.038,2.9813,2.8305,2.4916,2.2652,2.019,1.886,1.9243,1.8101,1.6197,1.5631,1.5638,1.5457,1.5477,1.3705,1.1759,0.7228,0.2341,-0.391,-0.9034,-1.0625,-1.1398,-0.9564,-1.0311,-1.3266,-1.5631,-1.7769,6.3079,6.3208,6.3079,6.2652,6.241,6.3585,6.4136,6.452,6.6583,6.8235,6.9318,6.9156,6.8527,6.7645,6.7116,6.6325,6.5409,6.5109,6.4776,6.4674,6.4501,6.4224,6.3734,6.3023,6.2514,6.1585,6.1166,6.1166,6.1166,6.1166,6.134,6.1346,6.2414,6.3047,6.2696,6.2728,6.2754,6.2491,6.2406,6.2434,6.1448,5.9553,5.9281,5.989,6.0069,6.0153,6.0153,6.1557,6.1986,6.1283,6.1673,6.2035,6.2027,6.2867,6.3102,6.2809,6.5273,6.706,6.842,6.8581,6.705,6.619,6.548,6.4453,6.3881,6.3605,6.3796,6.3659,6.2011,6.049,5.8981,5.8036,5.7784,5.7458,5.5093,5.181,4.8486,4.5897,4.5912,4.585,4.3438,4.0694,3.7689,3.5414,3.4361,3.2753,3.1668,3.0749,2.9813,2.8676,2.6417,2.3965,2.2462,1.9999,1.8101,1.8484,1.8108,1.659,1.5451,1.5464,1.5483,1.4094,1.3133,1.2776,0.724,-0.0975,-0.6643,-1.1589,-1.3545,-1.5114,-1.4034,-1.4221,-1.6569,-1.8739,-2.0224,6.3208,6.3208,6.3208,6.3987,6.5372,6.5893,6.6958,6.8237,6.8871,6.9651,7.0216,6.9438,6.8915,6.8438,6.7829,6.6928,6.6644,6.5969,6.5477,6.5477,6.5576,6.5109,6.4532,6.3913,6.313,6.2623,6.1917,6.1253,6.1311,6.1195,6.1918,6.314,6.4563,6.5504,6.5754,6.6349,6.5726,6.4238,6.3946,6.4501,6.3065,6.1956,6.1599,6.2742,6.1976,6.1896,6.2905,6.3311,6.4065,6.4425,6.5013,6.5954,6.6422,6.679,6.6962,6.7191,6.7774,6.8482,6.8779,6.9004,6.8732,6.7979,6.7136,6.7149,6.7349,6.7305,6.6463,6.5773,6.4778,6.3796,6.2152,6.0277,5.9352,5.8628,5.6119,5.3226,4.9807,4.7143,4.6953,4.6147,4.4668,4.2653,3.9996,3.8059,3.5937,3.2374,3.0907,2.9615,2.8688,2.6989,2.4718,2.3021,2.1514,1.9434,1.7339,1.7161,1.6983,1.5451,1.4676,1.4895,1.2517,1.0748,0.9385,0.6643,0.1755,-0.4488,-0.9229,-1.2883,-1.562,-1.8068,-1.8501,-1.8338,-2.0471,-2.1977,-2.3448,6.4139,6.4234,6.5089,6.6095,6.7199,6.8204,6.9246,7.0199,7.0678,7.1065,7.1307,7.0249,6.9524,6.9123,6.8225,6.8044,6.792,6.7086,6.696,6.677,6.658,6.6163,6.5209,6.4429,6.3524,6.2436,6.1725,6.1282,6.1948,6.2151,6.2995,6.4507,6.6048,6.711,6.7892,6.8016,6.6948,6.534,6.4668,6.456,6.3494,6.3521,6.3934,6.502,6.3632,6.4207,6.494,6.5078,6.5455,6.6031,6.6865,6.7647,6.82,6.8443,6.853,6.8714,6.8588,6.8957,6.9044,6.9044,6.8986,6.8986,6.8986,6.883,6.8548,6.8859,6.8732,6.785,6.6435,6.4778,6.3521,6.1754,6.0746,6.0028,5.8038,5.5249,5.2326,4.9742,4.8491,4.6018,4.4744,4.3377,4.1772,4.0345,3.6101,3.1994,2.9972,2.8119,2.6989,2.548,2.321,2.1323,1.9243,1.6962,1.6418,1.6045,1.5664,1.4488,1.3511,1.0549,0.7015,0.5456,0.2726,-0.1362,-0.5651,-0.9175,-1.2195,-1.4762,-1.6736,-1.8478,-1.9882,-2.1996,-2.3977,-2.5642,-2.6649,6.5942,6.6315,6.8351,6.8867,6.8517,7.0552,7.1048,7.1133,7.207,7.248,7.2258,7.1429,7.0511,6.978,6.9576,6.9491,6.9298,6.9298,6.8915,6.8948,6.9068,6.7677,6.658,6.5539,6.446,6.2969,6.2188,6.275,6.3283,6.3866,6.5089,6.6834,6.7299,6.8026,6.8608,6.8772,6.7693,6.5995,6.3879,6.3079,6.294,6.294,6.3218,6.3356,6.3494,6.3494,6.3769,6.3796,6.4343,6.6698,6.6637,6.7003,6.8685,6.8986,6.8986,6.8986,6.8986,6.8986,6.8986,6.8986,6.8986,6.8986,6.8986,6.8986,6.8986,6.8986,6.8293,6.7146,6.7146,6.5745,6.407,6.2372,6.2289,6.1576,6.0202,5.7443,5.4827,5.1871,4.7693,4.5792,4.3891,4.1945,4.0345,3.9294,3.5758,3.1825,2.9628,2.8119,2.6615,2.2831,2.0753,1.9067,1.6976,1.5638,1.5283,1.3105,1.1127,0.9953,0.8584,0.5259,0.1362,-0.1557,-0.3895,-0.741,-0.9564,-1.2712,-1.5723,-1.7552,-1.9131,-1.9598,-2.1477,-2.5021,-2.7428,-2.9142,-3.0373,6.8458,7.0662,7.1231,7.2028,7.2934,7.2973,7.3589,7.4367,7.4511,7.4093,7.339,7.308,7.2442,7.1659,7.1429,7.0913,7.0414,7.0414,6.9949,6.9417,6.9156,6.8649,6.7802,6.7214,6.6828,6.744,6.4854,6.519,6.5902,6.6504,6.7053,6.8404,6.8508,6.8762,6.8928,6.883,6.8004,6.6021,6.3389,6.1959,6.1702,6.156,6.2381,6.2913,6.3632,6.4778,6.6595,6.5155,6.5182,6.6976,6.6876,6.6974,6.8656,6.8986,6.8986,6.8986,6.9459,6.9334,6.9459,6.9334,6.8986,6.8986,6.8986,6.9238,6.9112,6.9015,6.8576,6.8136,6.8008,6.7146,6.5878,6.502,6.4421,6.3395,6.2432,5.9778,5.6462,5.045,4.587,4.516,4.4366,4.1891,3.9787,3.8573,3.5399,3.1838,2.9825,2.8317,2.453,1.999,1.8116,1.7198,1.5264,1.4076,1.2917,1.0554,0.6823,0.4675,0.292,-0.0,-0.4477,-0.7799,-0.9746,-1.172,-1.3711,-1.6425,-1.9011,-2.0614,-2.2205,-2.4255,-2.6318,-2.9032,-3.134,-3.2749,-3.4034,7.1505,7.3184,7.3504,7.4158,7.4924,7.5136,7.562,7.6213,7.6074,7.5663,7.5091,7.4729,7.4059,7.3215,7.2515,7.2036,7.1463,7.0947,7.0414,7.0033,6.9384,6.8859,6.8535,6.8289,6.798,6.781,6.7143,6.7673,6.9968,7.0483,6.9558,7.0118,6.9961,6.9591,6.8986,6.8986,6.7762,6.606,6.4124,6.2635,6.2241,6.2661,6.3249,6.3391,6.3386,6.4423,6.5411,6.4259,6.504,6.6687,6.6876,6.7003,6.8443,6.8986,6.8986,6.9112,7.0143,7.0814,7.0905,7.1055,7.1145,7.0935,7.057,7.0325,6.9773,6.943,6.9015,6.9015,6.8986,6.8576,6.7592,6.6567,6.6005,6.5326,6.4188,6.0379,5.4751,4.868,4.559,4.5569,4.5157,4.2834,4.0539,3.7077,3.2529,2.9615,2.8107,2.6604,2.3011,1.8844,1.6976,1.5483,1.3711,1.0933,0.839,0.5456,0.0389,-0.1555,-0.3305,-0.6812,-1.0933,-1.2873,-1.4221,-1.5998,-1.8684,-2.089,-2.2489,-2.4748,-2.7385,-2.9355,-3.1524,-3.3941,-3.6188,-3.755,-3.8243,7.4651,7.4913,7.5549,7.5864,7.6052,7.6792,7.7133,7.7121,7.6998,7.7027,7.6625,7.5945,7.5375,7.4775,7.358,7.2976,7.2483,7.2012,7.148,7.1015,7.0265,6.9425,6.847,6.9278,6.9921,6.9606,6.8948,7.1356,7.3462,7.3605,7.2786,7.1409,7.0934,7.0393,6.9496,6.9238,6.7979,6.6407,6.5689,6.475,6.3632,6.4125,6.3745,6.3283,6.3144,6.3663,6.3744,6.4354,6.4869,6.6472,6.6466,6.7032,6.8627,6.9112,6.9208,7.0236,7.1678,7.3457,7.3395,7.3364,7.3364,7.4091,7.3986,7.2624,7.1492,7.0335,6.9222,6.932,6.9708,6.9773,6.9561,6.7963,6.8106,6.7733,6.6584,6.1117,5.4466,5.0156,4.8154,4.7711,4.5999,4.3535,4.0245,3.4876,2.9972,2.8095,2.6218,2.4519,2.2055,1.921,1.714,1.427,1.2129,0.4475,0.0195,-0.3504,-0.6818,-0.8171,-1.0716,-1.387,-1.5991,-1.7096,-1.866,-2.1233,-2.4259,-2.684,-2.9252,-3.1354,-3.2642,-3.4876,-3.7433,-3.9517,-4.1418,-4.1913,-4.2514,7.6899,7.8166,7.8437,7.8536,7.8497,7.8377,7.8052,7.782,7.7467,7.7233,7.6983,7.6774,7.6609,7.6409,7.604,7.5518,7.4718,7.4078,7.3242,7.2488,7.179,7.1506,7.1657,7.2665,7.3195,7.263,7.3254,7.4383,7.5791,7.5438,7.423,7.3037,7.0508,6.9708,7.018,6.9459,6.785,6.6303,6.4778,6.3906,6.3025,6.2222,6.1195,6.0886,6.2402,6.3227,6.3527,6.464,6.6408,6.7335,6.7261,6.7072,6.885,7.0054,7.1293,7.2348,7.3037,7.3936,7.4549,7.5063,7.6283,7.7886,7.881,7.7011,7.4539,7.1588,7.022,7.2057,7.2579,7.2548,7.2226,7.1114,7.1046,7.1439,6.9344,6.4916,5.785,5.3353,5.1454,5.0119,4.651,4.3346,3.9102,3.4056,2.9845,2.7641,2.431,2.2424,1.9617,1.751,1.4384,1.1904,0.7018,-0.1362,-0.6988,-1.0298,-1.2459,-1.3963,-1.706,-1.9035,-2.0164,-2.1838,-2.4353,-2.7049,-3.0411,-3.4519,-3.6825,-3.9085,-3.9884,-4.1206,-4.3653,-4.552,-4.6688,-4.7499,-4.8406,7.8323,7.9044,7.9078,7.9037,7.8991,7.8735,7.8549,7.8432,7.8267,7.8114,7.8034,7.806,7.7928,7.7616,7.7541,7.6814,7.5743,7.4983,7.4211,7.3347,7.266,7.2292,7.239,7.3934,7.4789,7.5689,7.7756,7.8866,7.8327,7.799,7.7123,7.525,7.3139,7.1621,7.1025,6.9897,6.8548,6.7231,6.4888,6.3159,6.3003,6.1414,6.1232,6.1932,6.35,6.4363,6.4834,6.6409,6.8056,6.853,6.8153,6.8587,7.0829,7.352,7.67,7.7467,7.8335,7.899,7.9304,7.9417,7.9613,8.1407,8.3194,8.1762,7.7683,7.3943,7.2607,7.4235,7.5046,7.5078,7.5191,7.3826,7.3768,7.4304,7.3102,6.8258,6.1987,5.7827,5.7725,5.8301,5.1995,4.5423,3.9747,3.446,3.0072,2.6085,2.2585,1.96,1.6597,1.326,0.9725,0.7015,0.3114,-0.4646,-1.0753,-1.4299,-1.7096,-1.9863,-2.2518,-2.3101,-2.4405,-2.75,-3.019,-3.4268,-3.8208,-4.2694,-4.507,-4.6653,-4.7038,-4.7835,-4.9615,-5.1251,-5.2383,-5.3691,-5.5201,7.884,7.8814,7.8724,7.8684,7.8684,7.8769,7.8814,7.8816,7.8946,7.9078,7.8969,7.9103,7.8706,7.8426,7.8312,7.7708,7.6802,7.6069,7.523,7.461,7.3904,7.3901,7.4431,7.597,7.6525,7.7512,8.0092,8.1946,8.1439,8.1259,7.9529,7.7886,7.5692,7.3933,7.2182,7.054,6.9979,6.8898,6.6324,6.3874,6.2865,6.1284,6.0808,6.1363,6.2295,6.3879,6.5117,6.793,6.9561,6.9167,7.0216,6.9267,6.7526,7.086,7.3466,7.4429,7.6316,7.8652,8.0063,8.144,8.2368,8.3777,8.4257,8.3132,8.052,7.712,7.622,7.7394,7.8077,7.8102,7.7938,7.6844,7.6776,7.7159,7.6079,7.2012,6.5944,6.3062,6.3104,6.3195,5.6104,4.858,4.2324,3.6618,3.0554,2.5043,1.921,1.3993,0.8927,0.465,0.1934,-0.0387,-0.2711,-0.9187,-1.5371,-1.9335,-2.4073,-2.7425,-2.957,-3.0151,-3.202,-3.4282,-3.8191,-4.3741,-4.8237,-5.0695,-5.244,-5.4226,-5.4859,-5.5622,-5.6364,-5.7229,-5.861,-6.015,-6.18,7.7629,7.7657,7.827,7.8556,7.8631,7.8933,7.9015,7.9007,7.9116,7.8908,7.8816,7.8812,7.8823,7.8869,7.8886,7.8924,7.8481,7.7813,7.7051,7.6726,7.6031,7.6556,7.7882,7.9163,8.029,8.1523,8.2921,8.3273,8.2826,8.1916,8.1372,7.9882,7.6964,7.5271,7.4627,7.3438,7.1742,7.002,6.7319,6.508,6.3088,6.1117,5.9478,5.9283,5.9903,6.169,6.4965,6.9077,7.1981,6.9707,7.4751,6.8117,5.8505,5.4832,5.6248,5.8439,6.6929,7.1786,7.4653,7.6264,7.8005,8.1506,8.1257,8.0524,8.1008,7.9661,7.9651,8.0899,8.1535,8.1944,8.2607,8.0556,8.0519,8.1219,7.8887,7.4168,6.9195,6.8464,6.7899,6.7033,6.0264,5.2303,4.5625,3.5352,2.949,2.3121,1.4608,0.6994,-0.0773,-0.6171,-0.9199,-1.1878,-1.4061,-1.9255,-2.2473,-2.6349,-3.2654,-3.6133,-3.8091,-3.9423,-4.1333,-4.4661,-4.8953,-5.4044,-5.6787,-5.7994,-5.9583,-6.1086,-6.2526,-6.3744,-6.412,-6.3845,-6.4989,-6.6528,-6.7667,7.663,7.7111,7.6943,7.7208,7.7572,7.7349,7.754,7.7996,7.8391,7.8385,7.8122,7.8484,7.8595,7.8562,7.8642,7.8779,7.881,7.842,7.8,7.7699,7.7504,7.8116,7.9661,8.1996,8.4154,8.5362,8.5337,8.5159,8.5029,8.4554,8.3475,8.2256,7.9966,7.7708,7.5442,7.3831,7.2228,6.9945,6.5213,6.2741,6.2402,6.0188,5.8239,5.9127,6.1984,6.4021,6.4978,6.9352,7.1797,6.9222,5.6035,3.9324,2.9734,3.6034,4.3846,4.9255,5.7925,6.4339,6.7172,7.018,7.3561,7.7027,7.2516,7.4269,7.7782,8.1536,8.2197,8.2104,8.2118,8.2481,8.2488,8.1427,8.1638,8.2251,8.1292,7.8003,7.2751,7.1608,7.183,6.9852,6.3554,5.7057,4.4684,3.0782,2.2482,1.2475,0.4043,-0.2464,-1.0061,-1.7713,-2.0764,-2.3818,-2.568,-2.8095,-3.1006,-3.5704,-4.2451,-4.529,-4.7598,-4.9586,-5.1729,-5.5628,-5.9655,-6.2449,-6.5366,-6.6431,-6.6392,-6.7832,-6.9224,-6.9347,-6.9556,-7.024,-7.0573,-7.0513,-7.1571,7.5804,7.5932,7.5555,7.5843,7.6353,7.5551,7.5649,7.6333,7.6977,7.7022,7.7095,7.7583,7.7813,7.7989,7.8008,7.8176,7.8339,7.8273,7.7969,7.7739,7.7862,7.9187,8.1478,8.3953,8.6513,8.7734,8.7572,8.7315,8.7128,8.66,8.5815,8.4125,8.2084,7.9932,7.6447,7.5021,7.2636,6.9257,6.3772,6.1372,6.0459,5.7935,5.7936,5.923,5.9324,6.0193,5.9677,6.0029,5.5981,4.286,1.9083,0.1437,0.1069,1.2842,2.3553,3.1027,4.1584,4.9901,5.2721,5.8455,6.5787,6.6368,6.4026,6.4752,7.3535,7.7605,7.9896,7.921,7.8935,7.8755,7.9138,8.0044,8.0637,8.1246,8.065,7.7811,7.4507,7.2379,6.9748,6.8413,6.5847,6.0658,4.3156,1.8182,0.7952,0.1697,-0.5664,-1.2301,-2.0349,-2.8831,-3.3107,-3.7113,-3.9353,-4.1982,-4.4683,-4.8057,-5.2801,-5.5496,-5.8025,-6.0322,-6.2927,-6.6309,-6.874,-7.1349,-7.3548,-7.3547,-7.3215,-7.4327,-7.4522,-7.4185,-7.4075,-7.4562,-7.4774,-7.4304,-7.4847,7.5029,7.2921,7.4544,7.5299,7.511,7.4501,7.3909,7.4274,7.4323,7.4816,7.538,7.5631,7.6153,7.7425,7.702,7.7471,7.7599,7.7736,7.789,7.8559,7.9763,8.17,8.3884,8.5512,8.7124,8.8527,8.8859,8.8717,8.8429,8.7383,8.6249,8.5212,8.3656,8.135,7.9234,7.7723,7.5554,7.2884,6.8537,6.3132,5.654,5.2325,4.9908,4.809,4.0721,3.1409,2.8124,2.5484,0.839,-4.885,-4.5468,-3.6266,-2.9135,-1.7248,-0.623,0.1732,1.5435,2.523,2.8409,4.066,4.8362,5.1102,5.624,6.1086,6.2821,6.8706,7.2122,7.0348,7.132,7.1987,7.3044,7.3577,7.5207,7.7421,7.3863,7.2658,7.2271,6.9339,6.2863,5.5146,6.059,4.3336,1.7099,-0.6438,-1.4813,-1.8209,-2.6996,-3.2649,-3.8512,-4.3235,-4.6253,-4.9837,-5.2562,-5.5372,-5.7573,-6.0101,-6.2906,-6.5077,-6.7369,-6.9805,-7.2316,-7.506,-7.7718,-7.891,-7.8899,-7.9036,-7.93,-7.9449,-7.9656,-7.9424,-7.886,-7.8993,-7.9075,-7.8802,-7.8374,7.2299,7.1073,7.1264,7.135,7.1038,7.0137,7.011,7.0682,7.1094,7.169,7.2311,7.2707,7.3683,7.478,7.4888,7.5112,7.5657,7.6428,7.7289,7.82,7.9714,8.1683,8.3989,8.6461,8.769,8.861,8.889,8.8953,8.8798,8.8439,8.7687,8.6696,8.6236,8.4417,8.1756,8.1063,7.9611,7.6441,7.0962,6.3446,5.1967,3.7735,2.7718,1.5687,0.1878,-0.9907,-1.672,-2.3463,-3.6937,-5.58,-5.8108,-4.9066,-3.9401,-2.998,-2.226,-1.4145,-0.2449,0.7569,1.4059,2.3109,3.2536,3.8803,3.483,4.1006,5.1675,6.0709,6.3698,6.1099,6.1068,6.1665,6.2575,6.3544,6.4443,6.4794,5.9097,5.6806,6.0403,5.6569,5.0433,4.5358,4.2508,3.2726,0.8911,-0.2573,-1.9243,-3.87,-4.879,-5.0889,-5.5132,-5.73,-5.9352,-6.1713,-6.4437,-6.5501,-6.7262,-6.9805,-7.2465,-7.3418,-7.5425,-7.7792,-8.0521,-8.3415,-8.4362,-8.4068,-8.4177,-8.4305,-8.4259,-8.4321,-8.4082,-8.3539,-8.3818,-8.3648,-8.3539,-8.3293,-8.2835,6.8695,6.7655,6.7189,6.6986,6.6641,6.5533,6.5471,6.6125,6.6579,6.7441,6.8602,6.9209,7.0196,7.1755,7.2141,7.28,7.389,7.5068,7.6483,7.7842,7.8767,8.0173,8.2453,8.551,8.6909,8.638,8.6753,8.735,8.717,8.6502,8.67,8.7105,8.6837,8.5863,8.3994,8.3297,8.2255,7.9737,7.5509,6.4017,3.8236,1.4942,-0.5264,-2.7564,-4.3741,-5.1891,-5.7535,-6.5112,-6.7619,-6.5504,-6.2414,-5.5691,-4.6792,-4.1616,-3.5818,-2.725,-1.6739,-0.7336,-0.0902,1.0105,1.9979,2.6303,2.1529,2.3107,4.0288,4.9715,5.2171,4.9105,4.7933,4.8253,5.0031,5.2683,5.2672,4.8752,4.3107,4.1415,4.5706,4.3116,3.7051,3.1065,2.6225,1.7154,0.0969,-1.3658,-3.4133,-5.8181,-6.4036,-6.1088,-6.4136,-6.6579,-6.7843,-7.1259,-7.3439,-7.4726,-7.6331,-7.8871,-8.0305,-8.0611,-8.1812,-8.3604,-8.5594,-8.7489,-8.758,-8.7673,-8.6192,-8.5961,-8.6817,-8.7319,-8.7317,-8.6499,-8.6284,-8.572,-8.6155,-8.6216,-8.5447,6.4389,6.1341,6.241,6.294,6.2668,6.1337,6.0867,6.0809,6.0938,6.2466,6.4314,6.4739,6.6093,6.8244,6.9581,7.0659,7.2461,7.391,7.5486,7.6269,7.6564,7.7466,7.9659,8.2524,8.316,8.2287,8.3001,8.311,8.2648,8.243,8.2561,8.4574,8.4929,8.4668,8.4464,8.3713,8.332,8.2961,8.3728,5.3035,0.0571,-0.4769,-2.6736,-7.8052,-8.1826,-8.2374,-8.0065,-7.3461,-7.0193,-7.2141,-6.9554,-6.4481,-5.9217,-5.5257,-4.9935,-4.4211,-3.1892,-2.5028,-1.8571,-0.129,1.1486,0.8868,1.1355,1.7625,2.2586,3.2836,3.7352,3.2749,3.1912,3.321,3.7597,4.1989,4.3143,4.0028,3.0837,2.9533,3.6121,3.143,2.3712,1.5456,0.924,0.223,-1.0809,-3.8087,-5.1929,-6.2438,-6.4909,-6.7197,-7.1028,-7.3171,-7.5561,-7.7697,-7.9565,-8.0631,-8.1006,-8.3217,-8.3731,-8.4182,-8.5163,-8.6374,-8.7776,-8.7813,-8.7697,-8.7586,-8.7121,-8.7387,-8.7737,-8.7851,-8.7873,-8.7587,-8.7374,-8.7286,-8.7089,-8.6896,-8.6492,6.1113,5.9238,5.9742,5.9364,5.8642,5.8107,5.7886,5.7886,5.7767,5.8885,6.0237,6.0568,6.1534,6.3429,6.5732,6.7046,6.7845,7.0894,7.2014,7.1364,7.1124,7.2656,7.5173,7.6548,7.711,7.7907,7.8843,7.9143,7.8931,8.0184,8.1363,8.2069,8.2411,8.3313,8.5334,8.4773,8.5478,8.3223,6.4083,3.4147,-0.2661,-3.8302,-6.726,-8.5488,-8.8686,-8.5856,-8.1285,-7.4544,-7.1377,-7.2289,-6.842,-6.3635,-5.8791,-5.5829,-5.2957,-4.8929,-4.1974,-3.4458,-2.7827,-1.2839,-0.3956,-0.1331,0.0,0.4353,1.3484,1.895,2.32,2.1049,2.0615,2.1356,2.3672,2.8286,2.812,2.3122,1.714,1.7043,2.099,1.8076,1.1586,0.5992,0.0643,-0.7858,-1.897,-3.9848,-5.0116,-6.0056,-6.5449,-7.0885,-7.534,-7.692,-7.9065,-8.1252,-8.276,-8.364,-8.5313,-8.6121,-8.6731,-8.6744,-8.6779,-8.6882,-8.7037,-8.6585,-8.6359,-8.6173,-8.5773,-8.5691,-8.5337,-8.6133,-8.7327,-8.7537,-8.7203,-8.7311,-8.7457,-8.7351,-8.7413,5.5438,5.4471,5.4445,5.3831,5.3092,5.3503,5.3323,5.3196,5.4479,5.4855,5.5376,5.646,5.7337,5.8739,6.1689,6.347,6.4227,6.6792,6.7684,6.6831,6.706,6.8439,6.9999,7.049,7.1501,7.3122,7.3673,7.4013,7.4753,7.6181,7.8009,7.8999,7.9321,8.0616,8.1835,7.9471,7.9958,7.8437,4.2202,0.3681,-2.9974,-6.903,-8.8884,-8.8856,-8.6519,-8.268,-7.6995,-7.4355,-7.3283,-7.3345,-6.8354,-6.3798,-6.0136,-5.688,-5.4175,-5.1882,-4.9687,-4.3997,-3.2254,-2.1217,-1.2304,-0.9159,-0.9059,-0.4427,0.4989,0.9239,1.0996,1.1773,1.1778,1.2167,1.3503,1.6886,1.6654,1.0078,0.6943,0.7492,1.1178,0.8233,0.3614,-0.0755,-0.6255,-1.3699,-2.3255,-3.1789,-4.4578,-5.6857,-6.306,-6.8717,-7.4588,-7.6539,-7.898,-8.0589,-8.1995,-8.2395,-8.3307,-8.4063,-8.3948,-8.3553,-8.3744,-8.3941,-8.4183,-8.4146,-8.4066,-8.3834,-8.3395,-8.2974,-8.2586,-8.3198,-8.476,-8.547,-8.5918,-8.6611,-8.7411,-8.7778,-8.7853,4.7014,4.6364,4.5872,4.644,4.6514,4.7672,4.7175,4.7234,5.0064,5.0628,4.9705,5.2157,5.3428,5.4372,5.8034,6.0487,6.139,6.2626,6.3064,6.2865,6.4259,6.5056,6.5368,6.5698,6.649,6.7685,6.7093,6.7778,6.9496,7.006,7.1701,7.475,7.5542,7.5584,7.409,6.7981,6.6048,5.9725,2.4788,-2.598,-8.0735,-8.6775,-8.8761,-8.6889,-8.4076,-8.0828,-7.7595,-7.7037,-7.5584,-7.3569,-7.1469,-6.9414,-6.5417,-6.0562,-5.6425,-5.4815,-5.5989,-4.9472,-3.5382,-2.2824,-1.6184,-1.5064,-1.5431,-1.1924,-0.3697,0.0,0.2535,0.4292,0.488,0.5273,0.7789,0.9885,0.929,0.4681,0.2531,0.1944,0.3506,0.195,-0.0771,-0.3721,-1.0233,-1.8372,-2.4203,-3.1022,-4.049,-5.2082,-5.7979,-6.2459,-6.9928,-7.3054,-7.48,-7.5856,-7.7302,-7.9117,-8.0585,-8.1824,-8.1004,-8.0375,-8.0643,-8.1162,-8.1437,-8.0823,-8.0628,-8.0354,-7.9822,-7.9084,-7.8631,-8.0287,-8.191,-8.2743,-8.4118,-8.4699,-8.5557,-8.6496,-8.7132,4.4006,4.3795,4.5072,4.4908,4.3774,4.4615,4.5271,4.5916,4.7966,4.8017,4.6818,4.7751,4.8674,4.9857,5.4199,5.5497,5.4069,5.6419,5.6594,5.5635,5.7373,5.814,5.8162,5.8861,5.9571,6.019,6.0657,6.1911,6.3755,6.7098,6.8424,6.8238,7.1094,7.14,6.8485,6.2333,5.7027,4.6965,1.1015,-2.9732,-6.5103,-8.058,-8.6283,-8.5931,-8.5058,-8.2709,-7.8934,-7.6841,-7.5069,-7.3426,-7.0995,-6.915,-6.785,-6.3852,-5.9895,-5.6522,-5.4677,-4.8982,-3.9069,-2.7503,-2.0507,-2.0656,-2.0501,-1.6639,-0.742,-0.2539,0.0,0.098,0.1176,0.1372,0.2153,0.1755,0.1163,0.1349,0.0583,0.039,0.1156,0.0385,-0.114,-0.4071,-1.0335,-1.6267,-2.1611,-2.9743,-3.9089,-4.8735,-5.4171,-5.9067,-6.5177,-6.7821,-6.8848,-7.1918,-7.3524,-7.5067,-7.6996,-7.784,-7.7178,-7.6982,-7.7094,-7.8113,-7.8498,-7.7374,-7.6673,-7.6392,-7.5801,-7.5127,-7.563,-7.7401,-7.8377,-7.8932,-8.023,-8.1807,-8.3214,-8.4493,-8.5506,3.9412,3.9467,4.0719,4.0551,3.943,3.9893,4.0543,4.1726,4.5201,4.5305,4.3213,4.4256,4.5326,4.6133,4.7893,4.7739,4.6751,5.0276,5.1475,5.0932,5.3318,5.4481,5.4055,5.4228,5.4528,5.4803,5.5347,5.7107,5.9941,6.2513,6.3488,6.3316,6.4389,6.4397,6.1343,5.2081,4.2349,3.1083,-0.4784,-3.844,-6.5222,-7.8189,-8.5214,-8.6181,-8.5915,-8.3737,-7.943,-7.7103,-7.4826,-7.2663,-7.0905,-6.9275,-6.7979,-6.6303,-6.3413,-5.868,-5.4142,-4.8511,-4.0881,-2.9868,-2.3163,-2.3131,-2.3225,-1.8963,-1.0337,-0.3704,-0.0781,-0.2347,-0.2741,-0.2741,-0.3132,-0.4302,-0.4669,-0.3087,-0.2915,-0.2922,-0.2507,-0.1152,-0.1709,-0.5732,-0.9728,-1.5157,-2.1456,-2.9141,-3.7604,-4.5538,-5.307,-5.8754,-6.2694,-6.5347,-6.7431,-6.93,-7.0449,-7.1659,-7.3986,-7.3689,-7.3408,-7.3253,-7.3682,-7.4609,-7.4762,-7.3621,-7.3565,-7.3365,-7.2109,-7.1373,-7.1278,-7.2825,-7.2587,-7.3782,-7.6781,-7.84,-8.007,-8.3008,-8.4257,3.371,3.3694,3.3553,3.382,3.3537,3.3614,3.363,3.4967,4.166,4.191,3.8034,4.1195,4.3316,4.3232,4.0226,3.9034,4.059,4.4807,4.716,4.8245,5.1854,5.3679,5.3245,5.2034,5.1315,5.1108,5.1316,5.3479,5.719,5.644,5.6979,5.9734,5.7298,5.5366,5.2516,3.7844,2.2436,1.0374,-2.0578,-5.0216,-7.1938,-8.0762,-8.5388,-8.6988,-8.6273,-8.3669,-7.9641,-7.7966,-7.5519,-7.1587,-7.1142,-6.9602,-6.6903,-6.7664,-6.5843,-6.0731,-5.5116,-4.8778,-4.1088,-3.0451,-2.372,-2.3467,-2.3357,-1.9716,-1.1899,-0.5058,-0.3112,-0.7219,-0.7611,-0.8,-0.7809,-0.7809,-0.7799,-0.7582,-0.7796,-0.7799,-0.7398,-0.3677,-0.4389,-0.8937,-1.1361,-1.5007,-2.2101,-2.899,-3.6247,-4.4806,-5.363,-6.0028,-6.1327,-6.5309,-6.7343,-6.777,-6.8828,-7.0216,-6.9471,-6.986,-6.9123,-6.899,-7.0111,-7.0499,-7.0247,-7.0079,-7.0289,-7.0108,-6.9094,-6.8281,-6.7787,-6.77,-6.7757,-6.9449,-7.2543,-7.5169,-7.6956,-8.0829,-8.2438,3.371,3.3395,3.1951,3.1327,3.1267,2.9714,3.088,3.3868,3.5862,3.6176,3.4654,3.5866,3.6713,3.7299,3.7021,3.6931,3.7614,4.0308,4.169,4.2028,4.515,4.6873,4.7272,4.7028,4.7015,4.7177,4.8447,4.9848,5.113,5.3723,5.5515,5.5729,5.6432,5.2238,4.3209,3.315,1.8819,0.0635,-2.4,-4.6313,-6.3678,-7.6283,-8.4213,-8.7467,-8.6474,-8.4387,-8.1519,-7.8845,-7.6275,-7.4088,-7.1185,-6.9229,-6.812,-6.5201,-6.331,-6.2109,-5.8441,-5.1881,-4.1838,-3.3416,-2.7852,-2.6019,-2.4153,-1.9816,-1.2857,-0.7987,-0.662,-0.8195,-1.1317,-1.2297,-1.1127,-1.0545,-1.0289,-0.9997,-1.2062,-1.1085,-0.7099,-0.9564,-1.067,-1.1289,-1.3742,-1.6937,-1.9818,-2.6399,-3.51,-4.4492,-5.0711,-5.4844,-6.0057,-6.2386,-6.4364,-6.5607,-6.6325,-6.7052,-6.7705,-6.7608,-6.7512,-6.7328,-6.7263,-6.7958,-6.794,-6.7175,-6.6892,-6.75,-6.6737,-6.6102,-6.5751,-6.5123,-6.4817,-6.6405,-6.8664,-7.1327,-7.3728,-7.6966,-7.8847,2.8301,2.8301,2.8031,2.7895,2.7503,2.55,2.6518,2.9634,3.0671,3.1647,3.1936,2.9459,2.9169,3.0543,3.0886,3.1913,3.3031,3.5219,3.5556,3.4806,3.9715,4.3014,4.4607,4.4116,4.3443,4.3332,4.5217,4.6492,4.773,5.0941,5.2373,5.1788,5.0598,4.6136,3.7414,2.8673,1.3137,-0.9154,-2.7458,-4.6439,-6.5186,-7.7228,-8.463,-8.7769,-8.69,-8.4954,-8.2348,-8.0019,-7.7318,-7.4222,-7.1591,-6.9276,-6.7183,-6.3804,-6.1851,-6.131,-5.9123,-5.3113,-4.2589,-3.6844,-3.1647,-2.7211,-2.4498,-2.0934,-1.5379,-1.247,-1.0919,-1.1317,-1.3665,-1.5038,-1.3477,-1.3283,-1.3034,-1.2945,-1.4197,-1.4046,-0.9797,-1.2884,-1.5073,-1.4422,-1.6285,-1.8283,-2.0676,-2.5499,-3.3336,-4.3045,-5.0301,-5.4567,-5.8372,-6.1438,-6.3358,-6.4908,-6.4806,-6.5078,-6.6131,-6.6262,-6.5974,-6.5777,-6.5877,-6.5814,-6.5808,-6.5178,-6.5109,-6.4603,-6.4603,-6.447,-6.3882,-6.2976,-6.2584,-6.3317,-6.5391,-6.6955,-7.0389,-7.4398,-7.6307,2.0793,2.0961,2.2955,2.362,2.3432,2.1093,2.1435,2.3963,2.6386,2.8354,2.8707,2.3266,2.1955,2.3454,2.4025,2.5406,2.7879,2.9928,2.964,2.8255,3.4962,4.0415,4.3378,4.1496,4.0014,3.9731,4.1292,4.2843,4.4429,4.6869,4.8143,4.7446,4.2711,3.8306,3.34,2.4566,0.6534,-2.0025,-3.1449,-4.9488,-7.3905,-8.1396,-8.5821,-8.8355,-8.7281,-8.5385,-8.287,-8.1376,-7.8339,-7.3605,-7.2026,-6.9186,-6.5033,-6.2927,-6.1155,-5.9026,-5.745,-5.3064,-4.447,-3.9611,-3.4041,-2.7976,-2.5281,-2.27,-1.9434,-1.6904,-1.5353,-1.4788,-1.4994,-1.5,-1.5231,-1.5238,-1.5231,-1.5206,-1.5431,-1.5611,-1.5161,-1.5585,-1.6127,-1.7689,-1.7923,-1.9631,-2.2597,-2.5957,-3.1677,-4.0741,-4.9309,-5.5846,-5.7842,-6.1373,-6.4265,-6.4705,-6.4224,-6.4017,-6.4776,-6.5078,-6.444,-6.3839,-6.4296,-6.4368,-6.409,-6.4327,-6.4603,-6.3313,-6.313,-6.2809,-6.1888,-6.1279,-6.1308,-6.1853,-6.2316,-6.2897,-6.6725,-7.2266,-7.5334,2.0625,2.0625,2.1129,2.1296,2.0931,1.7018,1.7713,2.1641,2.5635,2.5754,2.2966,2.1286,2.0961,2.1392,2.2339,2.3048,2.3826,2.5091,2.5375,2.5141,2.9353,3.3771,3.7499,3.5951,3.4998,3.4997,3.6492,3.7567,3.862,4.2142,4.396,4.3673,4.1212,3.4148,2.3446,1.9504,0.2432,-2.661,-3.5166,-5.0219,-7.2798,-8.0791,-8.5328,-8.6938,-8.6782,-8.6637,-8.6265,-8.2739,-7.8774,-7.4611,-7.1635,-6.8473,-6.5091,-6.1182,-5.9162,-5.9156,-5.5364,-5.1716,-4.9037,-3.885,-3.1466,-2.9186,-2.9084,-2.6183,-2.0181,-1.6734,-1.4318,-1.2579,-1.2606,-1.2682,-1.3023,-1.4246,-1.5625,-1.5625,-1.5625,-1.5513,-1.5518,-1.5478,-1.5705,-1.5905,-1.845,-2.051,-2.2318,-2.632,-3.1988,-3.8248,-4.7273,-5.536,-5.9139,-6.0851,-6.2701,-6.3343,-6.3554,-6.3449,-6.3659,-6.3023,-6.2731,-6.3343,-6.2809,-6.2731,-6.3023,-6.2514,-6.2108,-6.1998,-6.1807,-6.1585,-6.1391,-6.1166,-6.1166,-6.1224,-6.1918,-6.3197,-6.5357,-7.0175,-7.334,1.7426,1.7596,1.8612,1.8443,1.7418,1.5958,1.6804,1.927,2.0575,1.9544,1.73,1.7453,1.8104,1.9064,1.9613,2.0421,2.1343,2.1859,2.2221,2.2864,2.503,2.7716,3.0372,3.0963,3.1108,3.0977,3.2922,3.3995,3.4427,3.8706,4.0446,3.972,4.0719,3.3928,2.0748,1.8891,0.2091,-2.9705,-3.3571,-4.5941,-6.8231,-7.3163,-7.6686,-7.9355,-7.9846,-8.0341,-8.1108,-7.7261,-7.3451,-7.0076,-6.6181,-6.3231,-6.136,-5.7608,-5.5986,-5.7137,-5.3332,-5.0739,-5.0032,-4.0002,-3.2475,-2.9303,-2.7861,-2.5144,-2.0529,-1.6885,-1.4111,-1.3105,-1.1989,-1.186,-1.3118,-1.4286,-1.5183,-1.5237,-1.5163,-1.5304,-1.5438,-1.5466,-1.5792,-1.7453,-1.9681,-2.2047,-2.5036,-2.9211,-3.3598,-3.8886,-4.5585,-5.3147,-5.8964,-6.0683,-6.1807,-6.2946,-6.2839,-6.2406,-6.2327,-6.1696,-6.1614,-6.2217,-6.1696,-6.1614,-6.1998,-6.1917,-6.1279,-6.1166,-6.1279,-6.1166,-6.1166,-6.1166,-6.1166,-6.1253,-6.1948,-6.2762,-6.4013,-6.644,-6.8889,1.3878,1.3878,1.5918,1.5532,1.3929,1.5782,1.6739,1.6451,1.4619,1.3457,1.3119,1.3607,1.4815,1.6771,1.6689,1.7617,1.9342,1.9357,1.9632,2.0302,2.1402,2.2467,2.3522,2.63,2.7449,2.7299,2.9602,3.109,3.1758,3.5448,3.6906,3.6349,3.9534,3.5048,2.3096,2.0424,0.2964,-3.0025,-3.0737,-4.1887,-6.4285,-6.6172,-6.8325,-7.1326,-7.2542,-7.2983,-7.3059,-6.9984,-6.6634,-6.3451,-5.9415,-5.6769,-5.5959,-5.3259,-5.2204,-5.302,-5.0804,-4.8597,-4.6856,-4.0802,-3.457,-2.8664,-2.4911,-2.227,-2.055,-1.6463,-1.3886,-1.3917,-1.2282,-1.2127,-1.3841,-1.4376,-1.4629,-1.4597,-1.453,-1.471,-1.5162,-1.4788,-1.6043,-1.9392,-2.0581,-2.3093,-2.8287,-3.208,-3.6023,-4.1448,-4.6439,-5.1146,-5.7067,-6.0057,-6.1696,-6.2544,-6.1998,-6.1279,-6.1391,-6.1166,-6.1279,-6.1166,-6.1279,-6.1279,-6.1391,-6.1279,-6.1279,-6.1166,-6.1166,-6.1166,-6.1166,-6.1166,-6.1166,-6.1166,-6.1224,-6.1718,-6.3082,-6.3285,-6.4008,1.3878,1.3878,1.4214,1.3944,1.3172,1.3661,1.3547,1.3146,1.3701,0.0,0.0,1.3495,1.3569,1.3782,1.4767,1.5391,1.5794,1.6566,1.6672,1.6177,1.7408,1.8972,2.0714,2.185,2.2335,2.2432,2.4901,2.6955,2.8729,2.9908,3.2034,3.467,3.4702,3.397,3.2212,2.2652,0.092,-3.0881,-3.4884,-4.7201,-6.9383,-7.4873,-7.6642,-7.5103,-7.5889,-7.4675,-7.1346,-6.8127,-6.4184,-5.9601,-5.7409,-5.473,-5.1309,-4.9287,-4.7918,-4.7356,-4.5625,-4.3244,-4.0402,-3.6575,-3.2471,-2.7898,-2.4635,-2.1631,-1.8433,-1.3674,-1.0675,-1.069,-1.0876,-1.1053,-1.159,-1.327,-1.4379,-1.3965,-1.3253,-1.3043,-1.4018,-1.4032,-1.4884,-1.7277,-1.9251,-2.2234,-2.7424,-3.2527,-3.7753,-4.2179,-4.7201,-5.2213,-5.6173,-5.9334,-6.142,-6.1807,-6.1917,-6.1391,-6.1279,-6.1391,-6.1166,-6.1391,-6.1279,-6.1166,-6.1166,-6.1166,-6.1166,-6.1166,-6.1166,-6.1166,-6.1166,-6.1166,-6.1166,-6.1166,-6.1166,-6.1686,-6.2762,-6.2413,-6.2294,1.3878,1.3878,1.3878,1.3719,0.0,1.3456,1.2231,1.0174,0.9717,0.9589,0.9768,1.2126,1.2664,1.1527,1.3011,1.3728,1.3706,1.4101,1.4605,1.5038,1.5768,1.767,2.0494,2.0805,2.1552,2.2455,2.3743,2.5483,2.7212,2.7984,2.983,3.2782,3.2673,3.2664,3.2626,2.2064,0.0277,-3.254,-3.4445,-4.5136,-6.4667,-6.6417,-6.7419,-6.8862,-6.9818,0.0,0.0,0.0,0.0,0.0,0.0,0.0,0.0,0.0,0.0,-4.6063,-4.2296,-3.8119,-3.3776,-3.1184,-2.8587,-2.576,-2.3534,-2.034,-1.6055,-1.1521,-0.9127,-1.0035,-1.0015,-1.0562,-1.1925,-1.3278,-1.3602,-1.3135,-1.2591,-1.2493,-1.3255,-1.3484,-1.4213,-1.6297,-1.8706,-2.2427,-2.796,-3.2481,-3.7351,-4.334,-4.8165,-5.2218,-5.5802,-5.9217,-6.1502,-6.2217,-6.2809,-6.31,-6.2544,-6.2809,-6.3176,-6.2406,-6.2327,-6.1998,-6.1391,-6.1166,-6.1166,-6.1166,-6.1166,-6.1166,-6.1166,-6.1166,-6.1166,-6.1166,-6.1166,-6.1457,-6.1921,-6.2267,-6.2471,1.3878,1.3706,1.3362,1.3299,1.3556,1.2742,1.0798,0.7766,0.6284,0.5898,0.6479,1.0203,1.1125,0.9937,1.1338,1.219,1.2493,1.2269,1.3058,1.4681,1.4979,1.6882,1.9797,2.067,2.1841,2.3331,2.3762,2.4892,2.6592,2.737,2.891,3.1178,3.2046,3.2022,3.0784,0.0,0.0,0.0,-3.1423,-4.3792,-6.0971,-5.8387,-5.8617,-6.2833,-6.3968,0.0,-6.8204,-6.6607,-6.5015,-6.3639,-5.9845,0.0,0.0,0.0,0.0,0.0,0.0,0.0,0.0,0.0,0.0,0.0,-2.166,-1.8885,-1.4453,-1.0615,-0.8548,-0.8957,-0.9456,-1.0443,-1.2028,-1.2672,-1.2664,-1.1991,-1.1937,-1.2169,-1.2863,-1.2875,-1.383,-1.6065,-1.8691,-2.2856,-2.8727,-3.2892,-3.7777,-4.4301,-4.9135,-5.3147,-5.6852,-5.9856,-6.2108,-6.3418,-6.4501,-6.4806,-6.3943,-6.4501,-6.4674,-6.412,-6.3734,-6.3343,-6.2406,-6.1998,-6.1696,-6.2078,-6.1585,-6.1279,-6.1585,-6.1391,-6.1166,-6.1166,-6.1166,-6.1253,-6.1515,-6.25,-6.3344,1.3878,1.3699,1.1629,1.1723,1.282,0.9383,0.763,0.7074,0.6914,0.6767,0.6935,0.7315,0.8127,0.9192,0.9471,1.0527,1.2223,1.2341,1.2471,1.2765,1.4391,1.5417,1.6002,1.9359,2.1106,2.1395,2.3031,2.4892,2.6578,2.6806,2.8676,3.1964,3.287,3.3379,3.3208,2.9265,2.0166,0.5854,-2.5879,-5.0869,-6.8374,-6.7677,-6.6871,-6.6626,-6.7508,-6.707,-6.5078,-6.4304,-6.3049,-6.1169,-5.9268,-5.6945,-5.3993,-4.9099,-4.4456,0.0,-3.5194,0.0,0.0,0.0,0.0,0.0,0.0,0.0,0.0,-1.2235,-0.8667,-0.3558,-0.85,-1.0815,-0.8074,-0.9893,-1.1078,-1.0723,-1.0741,-1.1097,-1.2157,-1.2407,-1.3278,-1.5687,-1.9206,-2.3142,-2.8225,-3.5523,-4.1106,-4.4605,-5.0589,-5.584,-5.9486,-6.1476,-6.3207,-6.4908,-6.5209,-6.5378,-6.5378,-6.5378,-6.5378,-6.5178,-6.5078,-6.5008,-6.4705,-6.3839,-6.3418,-6.4193,-6.2779,-6.1696,-6.2946,-6.2027,-6.1279,-6.1166,-6.1279,-6.174,-6.2702,-6.3226,-6.4362,1.1974,1.1801,0.9544,0.8979,0.9291,0.4944,0.3922,0.4957,0.3681,0.3815,0.4708,0.3574,0.4606,0.7437,0.8655,1.0325,1.2163,1.217,1.2758,1.395,1.4838,1.6299,1.8491,2.0234,2.1563,2.2587,2.3475,2.5447,2.8089,2.7125,2.8528,3.2304,3.2671,3.3288,3.3807,3.0233,2.9035,2.9645,-1.1207,-4.412,-6.7073,-6.6596,-6.6493,-6.7984,-6.8858,-6.9433,-6.981,-6.9536,-6.9301,-6.9004,-6.5981,-6.2668,-5.8983,-5.0883,-4.38,0.0,0.0,0.0,0.0,0.0,0.0,0.0,0.0,0.0,0.0,0.0,-0.8022,-0.515,-0.8012,-0.8365,-0.4484,-0.6042,-0.6671,-0.522,-0.5347,-0.7453,-1.1741,-1.2208,-1.2757,-1.3904,-1.692,-2.1123,-2.6466,-3.2508,-3.8481,-4.5101,-4.957,-5.3068,-5.5142,-5.8729,-6.1892,-6.3705,-6.4705,-6.5937,-6.8153,-6.8332,-6.7882,-6.6707,-6.6421,-6.6163,-6.5378,-6.4806,-6.4603,-6.5109,-6.3704,-6.2623,-6.316,-6.2217,-6.1279,-6.1279,-6.1807,-6.28,-6.3925,-6.4301,-6.4858,1.0559,1.0151,0.6777,0.5276,0.509,0.1436,0.0951,0.2502,0.1254,0.1705,0.3045,0.1807,0.2991,0.5966,0.8245,1.0467,1.2544,1.2537,1.3502,1.512,1.5566,1.7757,2.0961,2.1552,2.243,2.3918,2.3918,2.5872,2.9321,2.7645,2.8814,3.2763,3.3283,3.3638,3.3997,3.1978,3.5115,4.3252,-0.0822,-3.7499,-6.5115,-6.4082,-6.4039,-6.6558,-6.8158,-7.0268,-7.3025,-7.3359,-7.4054,-7.5028,-7.0306,-6.6051,-6.2651,-5.1393,0.0,0.0,0.0,0.0,0.0,0.0,0.0,0.0,0.0,-0.7638,-0.4935,0.0,-0.6493,0.0,-0.6441,-0.5172,-0.1618,-0.2594,0.0,0.0,-0.0248,-0.3142,-0.9126,-1.0998,-1.179,-1.1921,-1.5968,-2.0489,-2.5106,-3.0188,-3.6856,-4.5769,-4.8965,-5.0705,-5.208,-5.6902,-6.0916,-6.2505,-6.3832,-6.5657,-6.8003,-6.9405,-6.949,-6.8642,-6.8242,-6.7732,-6.677,-6.6197,-6.5902,-6.6066,-6.4908,-6.4151,-6.4327,-6.3206,-6.2119,-6.1419,-6.2094,-6.3249,-6.4856,-6.513,-6.5876,1.0473,0.9893,0.3319,0.0608,0.0594,0.0148,0.015,0.0459,0.2139,0.2901,0.3189,0.435,0.497,0.5517,0.8191,0.0,1.3275,1.3275,1.4043,1.5277,1.7038,1.8941,2.1106,2.2875,2.3775,2.3918,2.3918,2.5858,2.9426,2.7811,2.9347,3.3942,3.599,3.5826,3.4029,3.7646,3.9408,3.8514,-0.2089,-3.6945,-6.4481,-6.311,-6.1565,-6.0888,-6.4672,-6.7766,-6.9871,-7.1212,-7.2445,-7.3359,-6.7157,-6.2565,-6.0275,0.0,0.0,0.0,0.0,0.0,0.0,0.0,0.0,0.0,0.0,0.0,0.0,0.0,0.0,-0.4008,-0.3018,0.0,-0.0242,-0.0822,0.0,0.0,0.0,0.0929,-0.2218,-0.7316,-1.0605,-1.0298,0.0,0.0,-2.4456,-3.1784,-3.9841,-4.7163,-5.1145,-5.4036,-5.5679,-5.9605,-6.2635,-6.1998,-6.254,-6.3163,-6.4357,-6.6169,-6.8357,-7.0676,-7.1117,-7.018,-6.9866,-6.8532,-6.7705,-6.8429,-6.6834,-6.5446,-6.6707,-6.562,-6.4204,-6.1724,-6.1356,-6.2099,-6.4613,-6.5186,-6.6779,0.8308,0.8443,0.4326,0.2526,0.2604,0.2602,0.2618,0.2645,0.3479,0.3755,0.3885,0.4277,0.4852,0.5619,0.7772,0.0,0.0,0.0,1.3751,1.5034,1.6901,1.8553,2.0198,2.2042,2.36,2.5046,2.506,2.7141,3.1102,3.1667,3.2297,3.3262,0.0,0.0,3.8203,4.256,3.9434,2.7748,0.3426,-2.5045,-5.6852,-5.7803,-5.8305,-5.9274,-6.1422,-6.3898,-6.6536,-6.8097,-6.8197,-6.6581,-6.3551,-5.9146,0.0,0.0,0.0,0.0,0.0,0.0,0.0,0.0,0.0,0.0,0.0,-0.6896,0.2771,0.0,0.0,0.0,0.6114,0.8403,0.8868,0.9117,0.0,0.0,0.0,0.0,0.0,0.0,0.0,-0.2427,-1.2443,-2.0406,-2.2931,-3.4077,-4.3218,-4.6247,-4.779,-4.9075,-5.0377,0.0,-5.9218,-6.1509,-6.2634,-6.4129,-6.6679,-6.5592,-6.5069,-6.7177,-6.8163,-6.8714,-6.8816,-6.9222,-6.9198,-6.8702,-6.683,-6.509,-6.4723,-6.5745,-6.6183,-6.5157,-6.4296,-6.4356,-6.6105,-6.5874,-6.6245,0.7365,0.0,0.0,0.0,0.0,0.4327,0.4219,0.4249,0.4763,0.5126,0.5448,0.561,0.0,0.0,0.0,0.0,0.0,0.0,1.4287,1.5369,1.7134,1.8889,2.063,2.1698,2.3344,2.5441,2.5199,2.6894,3.0096,3.2783,3.3668,3.2724,0.0,0.0,0.0,0.0,4.2976,3.1767,1.3245,-1.4778,-5.2087,-5.2423,-5.3542,-5.6243,-5.8149,-6.0716,-6.4071,-6.413,-6.319,-6.105,-5.8009,0.0,0.0,0.0,0.0,0.0,0.0,0.0,0.0,0.0,0.0,0.0,0.0,0.0,0.0,0.0,0.0,0.0,0.0,0.0,1.5754,1.6295,1.7706,0.0,0.0,0.0,0.0,0.0,0.0,0.0,0.0,0.0,-1.8178,-3.0723,-4.1752,0.0,0.0,-4.9212,-4.8744,-5.32,-5.7289,-5.917,-6.0186,0.0,-6.5539,-6.389,-6.2836,-6.4733,-6.7117,-6.8421,-6.7393,-6.7641,-6.7466,-6.5601,-6.4812,-6.3576,-6.1484,-6.241,-6.3457,-6.346,-6.2924,-6.2714,-6.3743,-6.3576,-6.3651,0.0,0.0,0.0,0.0,0.0,0.0,0.0,0.0,0.6109,0.7344,0.0,0.9368,0.0,0.0,0.0,0.0,1.4244,1.5318,0.0,0.0,1.816,2.0456,2.2592,2.2307,2.2956,2.4471,2.3827,2.4041,2.5258,2.9791,0.0,0.0,0.0,0.0,0.0,0.0,5.2231,5.573,2.6902,-0.9102,-5.0556,-4.7874,-4.6961,-5.0597,-5.4609,-5.8628,-6.2397,-5.9132,-5.7675,-5.8379,-4.9642,0.0,0.0,0.0,0.0,0.0,0.0,0.0,0.0,0.0,0.0,0.0,0.0,0.0,0.0,0.0,0.0,0.0,0.0,0.0,0.0,1.839,0.0,0.0,0.0,0.0,0.0,0.0,0.0,0.0,0.0,0.0,-0.9053,-1.9474,-3.3503,-4.986,0.0,0.0,0.0,0.0,-5.8391,-5.4728,-5.4246,-5.5076,-5.6832,-5.9706,-6.2835,-6.5899,0.0,0.0,-6.7216,-6.3838,-6.082,-5.8091,-6.0551,-6.1259,-5.6299,-5.5513,-5.52,-5.4529,-5.5186,-5.5207,-5.5934,-5.7588,-5.9067,0.0,0.0,0.0,0.0,0.0,0.0,0.0,0.0,0.0,0.9919,1.0174,1.0423,0.0,0.0,0.0,0.0,0.0,0.0,0.0,0.0,1.7205,1.8388,1.956,2.0418,2.2246,0.0,2.5471,2.5708,0.0,0.0,0.0,0.0,0.0,0.0,0.0,0.0,5.3798,5.7738,2.4405,-0.8097,-3.6709,-4.1222,-4.4361,-4.7656,-4.9295,-5.1309,-5.404,-5.1751,-4.9509,0.0,0.0,0.0,0.0,0.0,0.0,0.0,0.0,0.0,0.0,0.0,0.0,0.0,0.0,0.0,0.0,0.0,0.0,0.0,0.0,0.0,0.0,0.0,3.0987,0.0,0.0,0.0,0.0,0.0,0.0,0.0,0.0,0.0,0.2482,-1.4851,-3.112,-4.0905,-4.8431,-5.3874,-5.6063,0.0,0.0,0.0,0.0,0.0,0.0,0.0,-5.8362,-5.7543,-5.7806,-5.8448,-5.973,-6.0298,-5.9855,-5.7578,0.0,0.0,-5.4294,-5.5257,-5.6407,-5.5815,-5.7161,-5.7976,-5.6822,-5.8038,-5.9423,0.0,0.0,0.0,0.0,0.0,0.0,0.0,0.0,0.0,1.2346,1.2532,0.0,0.0,0.0,0.0,0.0,0.0,0.0,0.0,0.0,0.0,0.0,2.0166,2.104,0.0,0.0,0.0,0.0,0.0,0.0,0.0,0.0,0.0,0.0,0.0,0.0,5.3096,5.3795,2.5979,-0.1109,-2.5335,-3.5938,-4.161,-4.2566,-4.4025,-4.5571,-4.7306,0.0,0.0,0.0,0.0,0.0,0.0,0.0,0.0,0.0,0.0,0.0,0.0,0.0,0.0,0.0,0.0,0.0,0.0,0.0,0.0,0.0,0.0,0.0,0.0,0.0,3.5427,0.0,0.0,0.0,0.0,0.0,0.0,0.0,0.0,0.0,0.0,0.0,-2.2233,-3.3105,-4.59,-5.4779,-5.6373,-5.8385,-6.0744,0.0,0.0,0.0,0.0,0.0,0.0,0.0,0.0,0.0,0.0,0.0,0.0,0.0,0.0,-5.371,-5.1755,-5.3004,-5.4143,-5.3586,0.0,0.0,0.0,0.0,0.0,0.0,0.0,0.0,0.0,0.0,0.0,0.0,0.0,0.0,0.0,1.5219,0.0,0.0,1.819,0.0,0.0,0.0,0.0,0.0,0.0,0.0,0.0,0.0,0.0,0.0,0.0,0.0,0.0,0.0,0.0,0.0,0.0,0.0,0.0,0.0,0.0,5.0187,4.5721,3.2623,1.1667,-1.7544,-3.2291,-3.8229,-3.532,-3.8866,-4.1628,-4.2655,0.0,0.0,0.0,0.0,0.0,0.0,0.0,0.0,0.0,0.0,0.0,0.0,0.0,0.0,0.0,0.0,0.0,0.0,0.0,0.0,0.0,0.0,0.0,0.0,0.0,0.0,3.4537,3.6202,3.5677,0.0,0.0,0.0,0.0,0.0,0.0,0.0,0.0,0.0,-2.678,-4.9141,-6.1159,-5.5307,-5.5805,-5.76,-5.9424,-5.7431,-5.7066,-6.1077,-6.2552,-6.3348,0.0,0.0,0.0,0.0,0.0,0.0,0.0,0.0,0.0,0.0,0.0,0.0,0.0,0.0,0.0,0.0,0.0,0.0,0.0,0.0,0.0,0.0,0.0,0.0,0.0,0.0,0.0,0.0,0.0,0.0,0.0,0.0,0.0,0.0,0.0,0.0,0.0,0.0,0.0,0.0,0.0,0.0,0.0,0.0,0.0,0.0,0.0,0.0,0.0,0.0,0.0,0.0,0.0,0.0,4.5177,4.5593,2.8871,0.4075,-2.9116,-3.1725,-3.3359,-3.4634,-3.4881,-3.4387,0.0,0.0,0.0,0.0,0.0,0.0,0.0,0.0,0.0,0.0,0.0,0.0,0.0,0.0,0.0,0.0,0.0,0.0,0.0,0.0,0.0,0.0,0.0,0.0,0.0,0.0,0.0,0.0,3.8455,3.7764,4.0927,0.0,0.0,0.0,0.0,0.0,0.0,0.0,0.0,0.0,0.0,-5.4738,-5.3687,-5.5786,-5.8093,-6.0025,-5.977,-5.9195,-5.8729,-6.0862,-6.1019,-5.6535,0.0,0.0,0.0,0.0,0.0,0.0,0.0,0.0,0.0,0.0,0.0,0.0,0.0,0.0,0.0,0.0,0.0,0.0,0.0,0.0,0.0,0.0,0.0,0.0,0.0,0.0,0.0,0.0,0.0,0.0,0.0,0.0,0.0,0.0,0.0,0.0,0.0,0.0,0.0,0.0,0.0,0.0,0.0,0.0,0.0,0.0,0.0,0.0,0.0,0.0,0.0,0.0,0.0,4.1039,4.0255,2.5367,0.4844,-2.0395,-2.545,-2.8839,-3.1814,-3.0343,-2.9009,0.0,0.0,0.0,0.0,0.0,0.0,0.0,0.0,0.0,0.0,0.0,0.0,0.0,0.0,0.0,0.0,0.0,0.0,0.0,0.0,0.0,0.0,0.0,0.0,0.0,0.0,0.0,0.0,3.8052,3.8128,4.0997,0.0,0.0,0.0,0.0,0.0,0.0,0.0,0.0,0.0,0.0,-4.679,-4.7258,-5.0642,0.0,0.0,-5.8212,-5.8223,-5.7763,-6.0767,-6.1052,-5.4784,-5.3463,0.0,0.0,0.0,0.0,0.0,0.0,0.0,0.0,0.0,0.0,0.0,0.0,0.0,0.0,0.0,0.0,0.0,0.0,0.0,0.0,0.0,0.0,0.0,0.0,0.0,0.0,0.0,0.0,0.0,0.0,0.0,0.0,0.0,0.0,0.0,0.0,0.0,0.0,0.0,0.0,0.0,0.0,0.0,0.0,0.0,0.0,0.0,0.0,0.0,0.0,0.0,0.0,3.7541,3.1873,2.2775,1.2512,0.1633,-1.4272,-2.4215,-2.7242,-2.5847,-2.526,0.0,0.0,0.0,0.0,0.0,0.0,0.0,0.0,0.0,0.0,0.0,0.0,0.0,0.0,0.0,0.0,0.0,0.0,0.0,0.0,0.0,0.0,0.0,0.0,0.0,0.0,0.0,0.0,0.0,0.0,0.0,0.0,0.0,0.0,0.0,0.0,0.0,0.0,0.0,0.0,0.0,-3.822,-3.7626,-4.2093,-4.7242,0.0,-5.3275,-5.4488,-5.6899,-6.1001,-6.1976,-5.6073,0.0,0.0,0.0,0.0,0.0,0.0,0.0,0.0,0.0,0.0,0.0,0.0,0.0,0.0,0.0,0.0,0.0,0.0,0.0,0.0,0.0,0.0,0.0,0.0,0.0,0.0,0.0,0.0,0.0,0.0,0.0,0.0,0.0,0.0,0.0,0.0,0.0,0.0,0.0,0.0,0.0,0.0,0.0,0.0,0.0,0.0,0.0,0.0,0.0,0.0,0.0,0.0,0.0,0.0,3.1004,2.512,2.0774,1.7607,-0.06,-1.5036,-2.4414,-2.3524,0.0,0.0,0.0,0.0,0.0,0.0,0.0,0.0,0.0,0.0,0.0,0.0,0.0,0.0,0.0,0.0,0.0,0.0,0.0,0.0,0.0,0.0,0.0,0.0,0.0,0.0,0.0,3.0257,0.0,0.0,0.0,0.0,0.0,0.0,0.0,0.0,0.0,0.0,0.0,0.0,0.0,0.0,-3.3257,-3.3786,-3.8169,-4.231,0.0,0.0,-4.741,-4.7098,-5.231,-5.4556,0.0,0.0,0.0,0.0,0.0,0.0,0.0,0.0,0.0,0.0,0.0,0.0,0.0,0.0,0.0,0.0,0.0,0.0,0.0,0.0,0.0,0.0,0.0,0.0,0.0,0.0,0.0,0.0,0.0,0.0,0.0,0.0,0.0,0.0,0.0,0.0,0.0,0.0,0.0,0.0,0.0,0.0,0.0,0.0,0.0,0.0,0.0,0.0,0.0,0.0,0.0,0.0,0.0,0.0,3.1432,2.8446,2.6184,2.3138,1.8764,0.8251,-0.58,-2.3431,-2.1248,-1.8437,0.0,0.0,0.0,0.0,0.0,0.0,0.0,0.0,0.0,0.0,0.0,0.0,0.0,0.0,0.0,0.0,0.0,0.0,0.0,0.0,0.0,0.0,0.0,0.0,0.0,0.0,0.0,0.0,0.0,0.0,0.0,0.0,0.0,0.0,0.0,0.0,0.0,0.0,0.0,0.0,0.0,0.0,-2.8419,-3.232,0.0,0.0,0.0,-4.3696,-4.2918,0.0,0.0,0.0,0.0,0.0,0.0,0.0,0.0,0.0,0.0,0.0,0.0,0.0,0.0,0.0,0.0,0.0,0.0,0.0,0.0,0.0,0.0,0.0,0.0,0.0,0.0,0.0,0.0,0.0,0.0,0.0,0.0,0.0,0.0,0.0,0.0,0.0,0.0,0.0,0.0,0.0,0.0,0.0,0.0,0.0,0.0,0.0,0.0,0.0,0.0,0.0,0.0,0.0,0.0,0.0,0.0,0.0,2.508,2.5311,2.1326,1.3194,1.3251,0.2786,-1.9477,-1.7196,-1.4682,0.0,0.0,0.0,0.0,0.0,0.0,0.0,0.0,0.0,0.0,0.0,0.0,0.0,0.0,0.0,0.0,0.0,0.0,0.0,0.0,0.0,0.0,0.0,0.0,0.0,0.0,0.0,0.0,0.0,0.0,0.0,0.0,0.0,0.0,0.0,0.0,0.0,0.0,0.0,0.0,0.0,-2.2336,-2.3154,-2.6434,-2.9089,0.0,0.0,-4.0533,-4.0884,-4.464,0.0,0.0,0.0,0.0,0.0,0.0,0.0,0.0,0.0,0.0,0.0,0.0,0.0,0.0,0.0,0.0,0.0,0.0,0.0,0.0,0.0,0.0,0.0,0.0,0.0,0.0,0.0,0.0,0.0,0.0,0.0,0.0,0.0,0.0,0.0,0.0,0.0,0.0,0.0,0.0,0.0,0.0,0.0,0.0,0.0,0.0,0.0,0.0,0.0,0.0,0.0,0.0,0.0,0.0,0.0,0.0,2.2455,1.8724,1.6326,1.5352,1.3481,0.855,0.0302,-0.3562,-0.3159,0.0,0.0,0.0,0.0,0.0,0.0,0.0,0.0,0.0,0.0,0.0,0.0,0.0,0.0,0.0,0.0,0.0,0.0,0.0,0.0,0.0,0.0,0.0,0.0,0.0,0.0,0.0,0.0,0.0,0.0,0.0,0.0,0.0,0.0,0.0,0.0,0.0,0.0,0.0,0.0,0.0,-2.9413,-2.2243,-2.5126,0.0,0.0,0.0,0.0,-3.3486,-3.4411,0.0,0.0,0.0,0.0,0.0,0.0,0.0,0.0,0.0,0.0,0.0,0.0,0.0,0.0,0.0,0.0,0.0,0.0,0.0,0.0,0.0,0.0,0.0,0.0,0.0,0.0,0.0,0.0,0.0,0.0,0.0,0.0,0.0,0.0,0.0,0.0,0.0,0.0,0.0,0.0,0.0,0.0,0.0,0.0,0.0,0.0,0.0,0.0,0.0,0.0,0.0,0.0,0.0,0.0,0.0,0.0,2.1317,1.8096,1.6875,1.7792,1.4473,1.2341,1.1705,0.7077,0.5077,0.0,0.0,0.0,0.0,0.0,0.0,0.0,0.0,0.0,0.0,0.0,0.0,0.0,0.0,0.0,0.0,0.0,0.0,0.0,0.0,0.0,0.0,0.0,0.0,0.0,0.0,0.0,0.0,0.0,0.0,0.0,0.0,0.0,0.0,0.0,0.0,0.0,0.0,0.0,0.0,-1.5862,-2.3362,-1.8342,0.0,0.0,0.0,0.0,0.0,0.0,-3.0853,-3.1303,0.0,0.0,0.0,0.0,0.0,0.0,0.0,0.0,0.0,0.0,0.0,0.0,0.0,0.0,0.0,0.0,0.0,0.0,0.0,0.0,0.0,0.0,0.0,0.0,0.0,0.0,0.0,0.0,0.0,0.0,0.0,0.0,0.0,0.0,0.0,0.0,0.0,0.0,0.0,0.0,0.0,0.0,0.0,0.0,0.0,0.0,0.0,0.0,0.0,0.0,0.0,0.0,0.0,0.0,0.0,2.0596,1.9091,1.8665,1.937,1.5584,1.4927,1.741,1.445,1.1172,0.7974,0.0,0.0,0.0,0.0,0.0,0.0,0.0,0.0,0.0,0.0,0.0,0.0,0.0,0.0,0.0,0.0,0.0,0.0,0.0,0.0,0.0,0.0,0.0,0.0,0.0,0.0,0.0,0.0,0.0,0.0,0.0,0.0,0.0,0.0,0.0,0.0,0.0,0.0,0.0,-0.8576,-1.373,0.0,0.0,0.0,0.0,0.0,0.0,0.0,0.0,-2.8545,0.0,0.0,0.0,0.0,0.0,0.0,0.0,0.0,0.0,0.0,0.0,0.0,0.0,0.0,0.0,0.0,0.0,0.0,0.0,0.0,0.0,0.0,0.0,0.0,0.0,0.0,0.0,0.0,0.0,0.0,0.0,0.0,0.0,0.0,0.0,0.0,0.0,0.0,0.0,0.0,0.0,0.0,0.0,0.0,0.0,0.0,0.0,0.0,0.0,0.0,0.0,0.0,0.0,0.0,0.0,0.0,1.7002,1.6333,1.69,1.7187,1.6685,1.56,1.4931,1.4464,1.4334,0.0,0.0,0.0,0.0,0.0,0.0,0.0,0.0,0.0,0.0,0.0,0.0,0.0,0.0,0.0,0.0,0.0,0.0,0.0,0.0,0.0,0.0,0.0,0.0,0.0,0.0,0.0,0.0,0.0,0.0,0.0,0.0,0.0,0.0,0.0,0.0,0.0,0.0,0.6929,-0.2717,0.0,0.0,0.0,0.0,0.0,0.0,0.0,0.0,-2.1783,0.0,0.0,0.0,0.0,0.0,0.0,0.0,0.0,0.0,0.0,0.0,0.0,0.0,0.0,0.0,0.0,0.0,0.0,0.0,0.0,0.0,0.0,0.0,0.0,0.0,0.0,0.0,0.0,0.0,0.0,0.0,0.0,0.0,0.0,0.0,0.0,0.0,0.0,0.0,0.0,0.0,0.0,0.0,0.0,0.0,0.0,0.0,0.0,0.0,0.0,0.0,0.0,0.0,0.0,0.0,0.0,0.0,0.0,1.754,1.9364,1.8478,1.8218,1.8158,1.7349,1.62,0.0,0.0,0.0,0.0,0.0,0.0,0.0,0.0,0.0,0.0,0.0,0.0,0.0,0.0,0.0,0.0,0.0,0.0,0.0,0.0,0.0,0.0,0.0,0.0,0.0,0.0,0.0,0.0,0.0,0.0,0.0,0.0,0.0,0.0,0.0,0.0,0.0,0.0,0.0,0.0,0.0,0.0,0.0,0.0,0.0,0.0,0.0,0.0,0.0,0.0,0.0,0.0,0.0,0.0,0.0,0.0,0.0,0.0,0.0,0.0,0.0,0.0,0.0,0.0,0.0,0.0,0.0,0.0,0.0,0.0,0.0,0.0,0.0,0.0,0.0,0.0,0.0,0.0,0.0,0.0,0.0,0.0,0.0,0.0,0.0,0.0,0.0,0.0,0.0,0.0,0.0,0.0,0.0,0.0,0.0,0.0,0.0,0.0,0.0,0.0,0.0,0.0,0.0,0.0,0.0,0.0,0.0,0.0,1.9388,2.1723,1.9803,1.9224,2.0346,1.9426,1.7593,0.0,0.0,0.0,0.0,0.0,0.0,0.0,0.0,0.0,0.0,0.0,0.0,0.0,0.0,0.0,0.0,0.0,0.0,0.0,0.0,0.0,0.0,0.0,0.0,0.0,0.0,0.0,0.0,0.0,0.0,0.0,0.0,0.0,0.0,0.0,0.0,0.0,0.0,0.0,0.0,0.0,0.0,0.0,0.0,0.0,0.0,0.0,0.0,-1.6817,0.0,0.0,0.0,0.0,0.0,0.0,0.0,0.0,0.0,0.0,0.0,0.0,0.0,0.0,0.0,0.0,0.0,0.0,0.0,0.0,0.0,0.0,0.0,0.0,0.0,0.0,0.0,0.0,0.0,0.0,0.0,0.0,0.0,0.0,0.0,0.0,0.0,0.0,0.0,0.0,0.0,0.0,0.0,0.0,0.0,0.0,0.0,0.0,0.0,0.0,0.0,0.0,0.0,0.0,0.0,0.0,0.0,0.0,0.0,2.0497,2.0737,2.0692,1.99,1.8476,1.9677,1.9433,0.0,0.0,0.0,0.0,0.0,0.0,0.0,0.0,0.0,0.0,0.0,0.0,0.0,0.0,0.0,0.0,0.0,0.0,0.0,0.0,0.0,0.0,0.0,0.0,0.0,0.0,0.0,0.0,0.0,0.0,0.0,0.0,0.0,0.0,0.0,0.0,0.0,0.0,0.0,0.0,0.0,0.0,0.0,0.0,0.0,0.0,0.0,0.0,0.0,0.0,0.0,0.0,0.0,0.0,0.0,0.0,0.0,0.0,0.0,0.0,0.0,0.0,0.0,0.0,0.0,0.0,0.0,0.0,0.0,0.0,0.0,0.0,0.0,0.0,0.0,0.0,0.0,0.0,0.0,0.0,0.0,0.0,0.0,0.0,0.0,0.0,0.0,0.0,0.0,0.0,0.0,0.0,0.0,0.0,0.0,0.0,0.0,0.0,0.0,0.0,0.0,0.0,0.0,0.0,0.0,0.0,0.0,0.0,1.9942,2.0542,2.1279,2.0414,1.7769,1.8976,1.8679,0.0,0.0,0.0,0.0,0.0,0.0,0.0,0.0,0.0,0.0,0.0,0.0,0.0,0.0,0.0,0.0,0.0,0.0,0.0,0.0,0.0,0.0,0.0,0.0,0.0,0.0,0.0,0.0,0.0,0.0,0.0,0.0,0.0,0.0,0.0,0.0,0.0,0.0,0.0,0.0,0.0,0.0,0.0,0.0,0.0,0.0,0.0,0.0,0.0,0.0,0.0,0.0,0.0,0.0,0.0,0.0,0.0,0.0,0.0,0.0,0.0,0.0,0.0,0.0,0.0,0.0,0.0,0.0,0.0,0.0,0.0,0.0,0.0,0.0,0.0,0.0,0.0,0.0,0.0,0.0,0.0,0.0,0.0,0.0,0.0,0.0,0.0,0.0,0.0,0.0,0.0,0.0,0.0,0.0,0.0,0.0,0.0,0.0,0.0,0.0,0.0,0.0,0.0,0.0,0.0,0.0,0.0,0.0,0.0,2.0088,2.0893,2.0232,1.7986,1.8438,1.8025,0.0,0.0,0.0,0.0,0.0,0.0,0.0,0.0,0.0,0.0,0.0,0.0,0.0,0.0,0.0,0.0,0.0,0.0,0.0,0.0,0.0,0.0,0.0,0.0,0.0,0.0,0.0,0.0,0.0,0.0,0.0,0.0,0.0,0.0,0.0,0.0,0.0,0.0,0.0,0.0,0.0,0.0,0.0,0.0,0.0,0.0,0.0,0.0,0.0,0.0,0.0,0.0,0.0,0.0,0.0,0.0,0.0,0.0,0.0,0.0,0.0,0.0,0.0,0.0,0.0,0.0,0.0,0.0,0.0,0.0,0.0,0.0,0.0,0.0,0.0,0.0,0.0,0.0,0.0,0.0,0.0,0.0,0.0,0.0,0.0,0.0,0.0,0.0,0.0,0.0,0.0,0.0,0.0,0.0,0.0,0.0,0.0,0.0,0.0,0.0,0.0,0.0,0.0,0.0,0.0,0.0,0.0,0.0,0.0,1.8919,1.8984,1.8973,1.8757,1.8787,1.8283,0.0,0.0,0.0,0.0,0.0,0.0,0.0,0.0,0.0,0.0,0.0,0.0,0.0,0.0,0.0,0.0,0.0,0.0,0.0,0.0,0.0,0.0,0.0,0.0,0.0,0.0,0.0,0.0,0.0,0.0,0.0,0.0,0.0,0.0,0.0,0.0,0.0,0.0,0.0,0.0,0.0,0.0,0.0,0.0,0.0,0.0,0.0,0.0,0.0,0.0,0.0,0.0,0.0,0.0,0.0,0.0,0.0,0.0,0.0,0.0,0.0,0.0,0.0,0.0,0.0,0.0,0.0,0.0,0.0,0.0,0.0,0.0,0.0,0.0,0.0,0.0,0.0,0.0,0.0,0.0,0.0,0.0,0.0,0.0,0.0,0.0,0.0,0.0,0.0,0.0,0.0,0.0,0.0,0.0,0.0,0.0,0.0,0.0,0.0,0.0,0.0,0.0,0.0,0.0,0.0,0.0,0.0,0.0,0.0,1.8802,1.8828,1.8686,1.8281,1.8183,1.7919,1.7153,0.0,0.0,0.0,0.0,0.0,0.0,0.0,0.0,0.0,0.0,0.0,0.0,0.0,0.0,0.0,0.0,0.0,0.0,0.0,0.0,0.0,0.0,0.0,0.0,0.0,0.0,0.0,0.0,0.0,0.0,0.0,0.0,0.0,0.0,0.0,0.0,0.0,0.0,0.0,0.0,0.0,0.0,0.0,0.0,0.0,0.0,0.0,0.0,0.0,0.0,0.0,0.0,0.0,0.0,0.0,0.0,0.0,0.0,0.0,0.0,0.0,0.0,0.0,0.0,0.0,0.0,0.0,0.0,0.0,0.0,0.0,0.0,0.0,0.0,0.0,0.0,0.0,0.0,0.0,0.0,0.0,0.0,0.0,0.0,0.0,0.0,0.0,0.0,0.0,0.0,0.0,0.0,0.0,0.0,0.0,0.0,0.0,0.0,0.0,0.0,0.0,0.0,0.0,0.0,0.0,0.0,0.0,0.0,1.8802,1.8828,1.8677,1.8237,1.7999,1.7699,0.0,0.0,0.0,0.0,0.0,0.0,0.0,0.0,0.0,0.0,0.0,0.0,0.0,0.0,0.0,0.0,0.0,0.0,0.0,0.0,0.0,0.0,0.0,0.0,0.0,0.0,0.0,0.0,0.0,0.0,0.0,0.0,0.0,0.0,0.0,0.0,0.0,0.0,0.0,0.0,0.0,0.0,0.0,0.0,0.0,0.0,0.0,0.0,0.0,0.0,0.0,0.0,0.0,0.0,0.0,0.0,0.0,0.0,0.0,0.0,0.0,0.0,0.0,0.0,0.0,0.0,0.0,0.0,0.0,0.0,0.0,0.0,0.0,0.0,0.0,0.0,0.0,0.0,0.0,0.0,0.0,0.0,0.0,0.0,0.0,0.0,0.0,0.0,0.0,0.0,0.0,0.0,0.0,0.0,0.0,0.0,0.0,0.0,0.0,0.0,0.0,0.0,0.0,0.0,0.0,0.0,0.0,0.0,1.8815,1.8841,1.8867,1.8961,1.8879,1.8225,1.7857,0.0,0.0,0.0,0.0,0.0,0.0,0.0,0.0,0.0,0.0,0.0,0.0,0.0,0.0,0.0,0.0,0.0,0.0,0.0,0.0,0.0,0.0,0.0,0.0,0.0,0.0,0.0,0.0,0.0,0.0,0.0,0.0,0.0,0.0,0.0,0.0,0.0,0.0,0.0,0.0,0.0,0.0,0.0,0.0,0.0,0.0,0.0,0.0,0.0,0.0,0.0,0.0,0.0,0.0,0.0,0.0,0.0,0.0,0.0,0.0,0.0,0.0,0.0,0.0,0.0,0.0,0.0,0.0,0.0,0.0,0.0,0.0,0.0,0.0,0.0,0.0,0.0,0.0,0.0,0.0,0.0,0.0,0.0,0.0,0.0,0.0,0.0,0.0,0.0,0.0,0.0,0.0,0.0,0.0,0.0,0.0,0.0,0.0,0.0,0.0,0.0,0.0,0.0,0.0,0.0,0.0,0.0,0.0,0.0,1.9971,0.0,1.9812,0.0,1.9141,1.8672,0.0,0.0,0.0,0.0,0.0,0.0,0.0,0.0,0.0,0.0,0.0,0.0,0.0,0.0,0.0,0.0,0.0,0.0,0.0,0.0,0.0,0.0,0.0,0.0,0.0,0.0,0.0,0.0,0.0,0.0,0.0,0.0,0.0,0.0,0.0,0.0,0.0,0.0,0.0,0.0,0.0,0.0,0.0,0.0,0.0,0.0,0.0,0.0,0.0,0.0,0.0,0.0,0.0,0.0,0.0,0.0,0.0,0.0,0.0,0.0,0.0,0.0,0.0,0.0,0.0,0.0,0.0,0.0,0.0,0.0,0.0,0.0,0.0,0.0,0.0,0.0,0.0,0.0,0.0,0.0,0.0,0.0,0.0,0.0,0.0,0.0,0.0,0.0,0.0,0.0,0.0,0.0,0.0,0.0,0.0,0.0,0.0,0.0,0.0,0.0,0.0,0.0,0.0,0.0,0.0,0.0,0.0,0.0,0.0,2.0639,2.0639,2.0348,1.9984,1.9776,1.9296,0.0,0.0,0.0,0.0,0.0,0.0,0.0,0.0,0.0,0.0,0.0,0.0,0.0,0.0,0.0,0.0,0.0,0.0,0.0,0.0,0.0,0.0,0.0,0.0,0.0,0.0,0.0,0.0,0.0,0.0,0.0,0.0,0.0,0.0,0.0,0.0,0.0,0.0,0.0,0.0,0.0,0.0,0.0,0.0,0.0,0.0,0.0,0.0,0.0,0.0,0.0,0.0,0.0,0.0,0.0,0.0,0.0,0.0,0.0,0.0,0.0,0.0,0.0,0.0,0.0,0.0,0.0,0.0,0.0,0.0,0.0,0.0,0.0,0.0,0.0,0.0,0.0,0.0,0.0,0.0,0.0,0.0,0.0,0.0,0.0,0.0,0.0,0.0,0.0,0.0,0.0,0.0,0.0,0.0,0.0,0.0,0.0,0.0,0.0,0.0,0.0,0.0,0.0,0.0,0.0,0.0,0.0,0.0,0.0,2.0639,2.0639,2.0639,2.0626,1.9997,1.9607,0.0,0.0,0.0,0.0,0.0,0.0,0.0,0.0,0.0,0.0,0.0,0.0,0.0,0.0,0.0,0.0,0.0,0.0,0.0,0.0,0.0,0.0,0.0,0.0,0.0,0.0,0.0,0.0,0.0,0.0,0.0,0.0,0.0,0.0,0.0,0.0,0.0,0.0,0.0,0.0,0.0,0.0,0.0,0.0,0.0,0.0,0.0,0.0,0.0,0.0,0.0,0.0,0.0,0.0,0.0,0.0,0.0,0.0,0.0,0.0,0.0,0.0,0.0,0.0,0.0,0.0,0.0,0.0,0.0,0.0,0.0,0.0,0.0,0.0,0.0,0.0,0.0,0.0,0.0,0.0,0.0,0.0,0.0,0.0,0.0,0.0,0.0,0.0,0.0,0.0,0.0,0.0,0.0,0.0,0.0,0.0,0.0,0.0,0.0,0.0,0.0,0.0,0.0,0.0,0.0,0.0,0.0,0.0,0.0,0.0,2.0639,2.0639,2.0516,1.9258,1.8212,1.7775,0.0,0.0,0.0,0.0,0.0,0.0,0.0,0.0,0.0,0.0,0.0,0.0,0.0,0.0,0.0,0.0,0.0,0.0,0.0,0.0,0.0,0.0,0.0,0.0,0.0,0.0,0.0,0.0,0.0,0.0,0.0,0.0,0.0,0.0,0.0,0.0,0.0,0.0,0.0,0.0,0.0,0.0,0.0,0.0,0.0,0.0,0.0,0.0,0.0,0.0,0.0,0.0,0.0,0.0,0.0,0.0,0.0,0.0,0.0,0.0,0.0,0.0,0.0,0.0,0.0,0.0,0.0,0.0,0.0,0.0,0.0,0.0,0.0,0.0,0.0,0.0,0.0,0.0,0.0,0.0,0.0,0.0,0.0,0.0,0.0,0.0,0.0,0.0,0.0,0.0,0.0,0.0,0.0,0.0,0.0,0.0,0.0,0.0,0.0,0.0,0.0,0.0,0.0,0.0,0.0,0.0,0.0,0.0,0.0,0.0,2.0639,2.0639,1.9653,1.8619,0.0,0.0,0.0,0.0,0.0,0.0,0.0,0.0,0.0,0.0,0.0,0.0,0.0,0.0,0.0,0.0,0.0,0.0,0.0,0.0,0.0,0.0,0.0,0.0,0.0,0.0,0.0,0.0,0.0,0.0,0.0,0.0,0.0,0.0,0.0,0.0,0.0,0.0,0.0,0.0,0.0,0.0,0.0,0.0,0.0,0.0,0.0,0.0,0.0,0.0,0.0,0.0,0.0,0.0,0.0,0.0,0.0,0.0,0.0,0.0,0.0,0.0,0.0,0.0,0.0,0.0,0.0,0.0,0.0,0.0,0.0,0.0,0.0,0.0,0.0,0.0,0.0,0.0,0.0,0.0,0.0,0.0,0.0,0.0,0.0,0.0,0.0,0.0,0.0,0.0,0.0,0.0,0.0,0.0,0.0,0.0,0.0,0.0,0.0,0.0,0.0,0.0,0.0,0.0,0.0,0.0,0.0,0.0,0.0,0.0,0.0,2.0639,2.0639,2.0529,0.0,1.8253,0.0,0.0,0.0,0.0,0.0,0.0,0.0,0.0,0.0,0.0,0.0,0.0,0.0,0.0,0.0,0.0,0.0,0.0,0.0,0.0,0.0,0.0,0.0,0.0,0.0,0.0,0.0,0.0,0.0,0.0,0.0,0.0,0.0,0.0,0.0,0.0,0.0,0.0,0.0,0.0,0.0,0.0,0.0,0.0,0.0,0.0,0.0,0.0,0.0,0.0,0.0,0.0,0.0,0.0,0.0,0.0,0.0,0.0,0.0,0.0,0.0,0.0,0.0,0.0,0.0,0.0,0.0,0.0,0.0,0.0,0.0,0.0,0.0,0.0,0.0,0.0,0.0,0.0,0.0,0.0,0.0,0.0,0.0,0.0,0.0,0.0,0.0,0.0,0.0,0.0,0.0,0.0,0.0,0.0,0.0,0.0,0.0,0.0,0.0,0.0,0.0,0.0,0.0,0.0,0.0,0.0,0.0,0.0,0.0,0.0,0.0,0.0,2.0639,1.9777,1.814,0.0,0.0,0.0,0.0,0.0,0.0,0.0,0.0,0.0,0.0,0.0,0.0,0.0,0.0,0.0,0.0,0.0,0.0,0.0,0.0,0.0,0.0,0.0,0.0,0.0,0.0,0.0,0.0,0.0,0.0,0.0,0.0,0.0,0.0,0.0,0.0,0.0,0.0,0.0,0.0,0.0,0.0,0.0,0.0,0.0,0.0,0.0,0.0,0.0,0.0,0.0,0.0,0.0,0.0,0.0,0.0,0.0,0.0,0.0,0.0,0.0,0.0,0.0,0.0,0.0,0.0,0.0,0.0,0.0,0.0,0.0,0.0,0.0,0.0,0.0,0.0,0.0,0.0,0.0,0.0,0.0,0.0,0.0,0.0,0.0,0.0,0.0,0.0,0.0,0.0,0.0,0.0,0.0,0.0,0.0,0.0,0.0,0.0,0.0,0.0,0.0,0.0,0.0,0.0,0.0,0.0,0.0,0.0,0.0,0.0,2.0639,2.0639,2.0639,2.0147,1.9282,0.0,0.0,0.0,0.0,0.0,0.0,0.0,0.0,0.0,0.0,0.0,0.0,0.0,0.0,0.0,0.0,0.0,0.0,0.0,0.0,0.0,0.0,0.0,0.0,0.0,0.0,0.0,0.0,0.0,0.0,0.0,0.0,0.0,0.0,0.0,0.0,0.0,0.0,0.0,0.0,0.0,0.0,0.0,0.0,0.0,0.0,0.0,0.0,0.0,0.0,0.0,0.0,0.0,0.0,0.0,0.0,0.0,0.0,0.0,0.0,0.0,0.0,0.0,0.0,0.0,0.0,0.0,0.0,0.0,0.0,0.0,0.0,0.0,0.0,0.0,0.0,0.0,0.0,0.0,0.0,0.0,0.0,0.0,0.0,0.0,0.0,0.0,0.0,0.0,0.0,0.0,0.0,0.0,0.0,0.0,0.0,0.0,0.0,0.0,0.0,0.0,0.0,0.0,0.0,0.0,0.0,0.0,0.0,0.0,0.0,0.0,0.0,0.0,0.0,2.0516,0.0,0.0,0.0,0.0,0.0,0.0,0.0,0.0,0.0,0.0,0.0,0.0,0.0,0.0,0.0,0.0,0.0,0.0,0.0,0.0,0.0,0.0,0.0,0.0,0.0,0.0,0.0,0.0,0.0,0.0,0.0,0.0,0.0,0.0,0.0,0.0,0.0,0.0,0.0,0.0,0.0,0.0,0.0,0.0,0.0,0.0,0.0,0.0,0.0,0.0,0.0,0.0,0.0,0.0,0.0,0.0,0.0,0.0,0.0,0.0,0.0,0.0,0.0,0.0,0.0,0.0,0.0,0.0,0.0,0.0,0.0,0.0,0.0,0.0,0.0,0.0,0.0,0.0,0.0,0.0,0.0,0.0,0.0,0.0,0.0,0.0,0.0,0.0,0.0,0.0,0.0,0.0,0.0,0.0,0.0,0.0,0.0,0.0,0.0,0.0,0.0,0.0,0.0,0.0,0.0,0.0,0.0,0.0,0.0,0.0,0.0,0.0,0.0,0.0,0.0,0.0,0.0,0.0,0.0,0.0,0.0,0.0,0.0,0.0,0.0,0.0,0.0,0.0,0.0,0.0,0.0,0.0,0.0,0.0,0.0,0.0,0.0,0.0,0.0,0.0,0.0,0.0,0.0,0.0,0.0,0.0,0.0,0.0,0.0,0.0,0.0,0.0,0.0,0.0,0.0,0.0,0.0,0.0,0.0,0.0,0.0,0.0,0.0,0.0,0.0,0.0,0.0,0.0,0.0,0.0,0.0,0.0,0.0,0.0,0.0,0.0,0.0,0.0,0.0,0.0,0.0,0.0,0.0,0.0,0.0,0.0,0.0,0.0,0.0,0.0,0.0,0.0,0.0,0.0,0.0,0.0,0.0,0.0,0.0,0.0,0.0,0.0,0.0,0.0,0.0,0.0,0.0,0.0,0.0,0.0,0.0,0.0,0.0,0.0,0.0,0.0,0.0,0.0,0.0,0.0,0.0,0.0,0.0,0.0,0.0,0.0,0.0,0.0,0.0,0.0,0.0,0.0,0.0,0.0,0.0,0.0,0.0,0.0,0.0,0.0,0.0,0.0,0.0,0.0,0.0,0.0,0.0,0.0,0.0,0.0,0.0,0.0,0.0,0.0,0.0,0.0,0.0,0.0,0.0,0.0,0.0,0.0,0.0,0.0,0.0,0.0,0.0,0.0,0.0,0.0,0.0,0.0,0.0,0.0,0.0,0.0,0.0,0.0,0.0,0.0,0.0,0.0,0.0,0.0,0.0,0.0,0.0,0.0,0.0,0.0,0.0,0.0,0.0,0.0,0.0,0.0,0.0,0.0,0.0,0.0,0.0,0.0,0.0,0.0,0.0,0.0,0.0,0.0,0.0,0.0,0.0,0.0,0.0,0.0,0.0,0.0,0.0,0.0,0.0,0.0,0.0,0.0,0.0,0.0,0.0,0.0,0.0,0.0,0.0,0.0,0.0,0.0,0.0,0.0,0.0,0.0,0.0,0.0,0.0,0.0,0.0,0.0,0.0,0.0,0.0,0.0,0.0,0.0,0.0,0.0,0.0,0.0,0.0,0.0,0.0,0.0,0.0,0.0,0.0,0.0,0.0,0.0,0.0,0.0,0.0,0.0,0.0,0.0,0.0,0.0,0.0,0.0,0.0,0.0,0.0,0.0,0.0,0.0,0.0,0.0,0.0,0.0,0.0,0.0,0.0,0.0,0.0,0.0,0.0,0.0,0.0,0.0,0.0,0.0,0.0,0.0,0.0,0.0,0.0,0.0,0.0,0.0,0.0,0.0,0.0,0.0,0.0,0.0,0.0,0.0,0.0,0.0,0.0,0.0,0.0,0.0,0.0,0.0,0.0,0.0,0.0,0.0,0.0,0.0,0.0,0.0,0.0,0.0,0.0,0.0,0.0,0.0,0.0,0.0,0.0,0.0,0.0,0.0,0.0,0.0,0.0,0.0,0.0,0.0,0.0,0.0,0.0,0.0,0.0,0.0,0.0,0.0,0.0,0.0,0.0,0.0,0.0,0.0,0.0,0.0,0.0,0.0,0.0,0.0,0.0,0.0,0.0,0.0,0.0,0.0,0.0,0.0,0.0,0.0,0.0,0.0,0.0,0.0,0.0,0.0,0.0,0.0,0.0,0.0,0.0,0.0,0.0,0.0,0.0,0.0,0.0,0.0,0.0,0.0,0.0,0.0,0.0,0.0,0.0,0.0,0.0,0.0,0.0,0.0,0.0,0.0,0.0,0.0,0.0,0.0,0.0,0.0,0.0,0.0,0.0,0.0,0.0,0.0,0.0,0.0,0.0,0.0,0.0,0.0,0.0,0.0,0.0,0.0,0.0,0.0,0.0,0.0,0.0,0.0,0.0,0.0,0.0,0.0,0.0,0.0,0.0,0.0,0.0,0.0,0.0,0.0,0.0,0.0,0.0,0.0,0.0,0.0,0.0,0.0,0.0,0.0,0.0,0.0,0.0,0.0,0.0,0.0,0.0,0.0,0.0,0.0,0.0,0.0,0.0,0.0,0.0,0.0,0.0,0.0,0.0,0.0,0.0,0.0,0.0,0.0,0.0,0.0,0.0,0.0,0.0,0.0,0.0,0.0,0.0,0.0,0.0,0.0,0.0,0.0,0.0,0.0,0.0,0.0,0.0,0.0,0.0,0.0,0.0,0.0,0.0,0.0,0.0,0.0,0.0,0.0,0.0,0.0,0.0,0.0,0.0,0.0,0.0,0.0,0.0,0.0,0.0,0.0,0.0,0.0,0.0,0.0,0.0,0.0,0.0,0.0,0.0,0.0,0.0,0.0,0.0,0.0,0.0,0.0,0.0,0.0,0.0,0.0,0.0,0.0,0.0,0.0,0.0,0.0,0.0,0.0,0.0,0.0,0.0,0.0,0.0,0.0,0.0,0.0,0.0,0.0,0.0,0.0,0.0,0.0,0.0,0.0,0.0,0.0,0.0,0.0,0.0,0.0,0.0,0.0,0.0,0.0,0.0,0.0,0.0,0.0,0.0,0.0,0.0,0.0,0.0,0.0,0.0,0.0,0.0,0.0,0.0,0.0,0.0,0.0,0.0,0.0,0.0,0.0,0.0,0.0,0.0,0.0,0.0,0.0,0.0,0.0,0.0,0.0,0.0,0.0,0.0,0.0,0.0,0.0,0.0,0.0,0.0,0.0,0.0,0.0,0.0,0.0,0.0,0.0,0.0,0.0,0.0,0.0,0.0,0.0,0.0,0.0,0.0,0.0,0.0,0.0,0.0,0.0,0.0,0.0,0.0,0.0,0.0,0.0,0.0,0.0,0.0,0.0,0.0,0.0,0.0,0.0,0.0,0.0,0.0,0.0,0.0,0.0,0.0,0.0,0.0,0.0,0.0,0.0,0.0,0.0,0.0,0.0,0.0,0.0,0.0,0.0,0.0,0.0,0.0,0.0,0.0,0.0,0.0,0.0,0.0,0.0,0.0,0.0,0.0,0.0,0.0,0.0,0.0,0.0,0.0,0.0,0.0,0.0,0.0,0.0,0.0,0.0,0.0,0.0,0.0,0.0,0.0,0.0,0.0,0.0,0.0,0.0,0.0,0.0,0.0,0.0,0.0,0.0,0.0,0.0,0.0,0.0,0.0,0.0,0.0,0.0,0.0,0.0,0.0,0.0,0.0,0.0,0.0,0.0,0.0,0.0,0.0,0.0,0.0,0.0,0.0,0.0,0.0,0.0,0.0,0.0,0.0,0.0,0.0,0.0,0.0,0.0,0.0,0.0,0.0,0.0,0.0,0.0,0.0,0.0,0.0,0.0,0.0,0.0,0.0,0.0,0.0,0.0,0.0,0.0,0.0,0.0,0.0,0.0,0.0,0.0,0.0,0.0,0.0,0.0,0.0,0.0,0.0,0.0,0.0,0.0,0.0,0.0,0.0,0.0,0.0,0.0,0.0,0.0,0.0,0.0,0.0,0.0,0.0,0.0,0.0,0.0,0.0,0.0,0.0,0.0,0.0,0.0,0.0,0.0,0.0,0.0,0.0,0.0,0.0,0.0,0.0,0.0,0.0,0.0,0.0,0.0,0.0,0.0,0.0,0.0,0.0,0.0,0.0,0.0,0.0,0.0,0.0,0.0,0.0,0.0,0.0,0.0,0.0,0.0,0.0,0.0,0.0,0.0,0.0,0.0,0.0,0.0,0.0,0.0,0.0,0.0,0.0,0.0,0.0,0.0,0.0,0.0,0.0,0.0,0.0,0.0,0.0,0.0,0.0,0.0,0.0,0.0,0.0,0.0,0.0,0.0,0.0,0.0,0.0,0.0,0.0,0.0,0.0,0.0,0.0,0.0,0.0,0.0,0.0,0.0,0.0,0.0,0.0,0.0,0.0,0.0]}]]]